Date StartTime U_cm/s V_cm/s W_cm/s Ustd_cm/s Vstd_cm/s Wstd_cm/s Uvar_(cm/s)^2 Vvar_(cm/s)^2 Wvar_(cm/s)^2 KE_(m/s)^2 TurbulentKE_(m/s)^2 HorizWindSpeed_cm/s FrictionSpeec_cm/s DragCoef SpeedOfSound_m/s SonicTemperature_C Pressure_mb 
05/19/2013  00:00:00      -82.123      143.502      -22.388       50.325       61.486       35.386     2532.588     3780.553     1252.156        1.770        0.378      165.339       32.024        0.038      339.770       13.331      864.419
05/19/2013  00:01:00      -92.107      137.809      -25.419       41.200       49.016       27.304     1697.468     2402.585      745.515        1.648        0.242      165.756       26.864        0.026      339.755       13.306      864.442
05/19/2013  00:02:00      -87.269       57.550       -5.921       32.493       43.593       28.697     1055.774     1900.365      823.494        0.737        0.189      104.536       22.480        0.046      339.745       13.291      864.456
05/19/2013  00:03:00      -60.421      103.459      -20.792       46.278       48.661       23.388     2141.677     2367.862      546.993        0.992        0.253      119.810       22.400        0.035      339.729       13.262      864.478
05/19/2013  00:04:00      -73.209      128.786      -14.789       62.286       64.238       39.233     3879.576     4126.584     1539.260        1.585        0.477      148.140       25.233        0.029      339.793       13.370      864.495
05/19/2013  00:05:00      -69.874      156.807      -17.140       42.412       46.532       29.360     1798.775     2165.259      862.011        1.729        0.241      171.671       24.153        0.020      339.793       13.370      864.509
05/19/2013  00:06:00      -76.147      173.094      -11.576       44.561       70.873       31.929     1985.694     5022.959     1019.472        2.196        0.401      189.103       30.344        0.026      339.824       13.422      864.537
05/19/2013  00:07:00      -91.686       93.527       -7.614       52.410       58.769       30.835     2746.766     3453.749      950.802        1.218        0.358      130.971       28.785        0.048      339.857       13.477      864.569
05/19/2013  00:08:00      -95.127      116.975      -23.877       54.731       61.107       27.956     2995.520     3734.053      781.543        1.541        0.376      150.772       23.839        0.025      339.892       13.536      864.587
05/19/2013  00:09:00      -66.810       75.263        1.932       56.346       68.672       33.069     3174.923     4715.894     1093.579        0.956        0.449      100.639       31.431        0.098      339.904       13.556      864.598
05/19/2013  00:10:00      -94.021      187.290      -19.866       49.718       75.973       37.323     2471.914     5771.878     1392.986        2.697        0.482      209.565       38.887        0.034      339.984       13.688      864.625
05/19/2013  00:11:00     -183.649      192.725      -28.142       74.122       88.562       57.352     5494.116     7843.144     3289.224        4.414        0.831      266.214       44.096        0.027      340.035       13.774      864.652
05/19/2013  00:12:00     -176.025       51.880      -25.070      115.668       79.807       50.689    13379.174     6369.202     2569.352        2.831        1.116      183.511       49.928        0.074      340.075       13.843      864.653
05/19/2013  00:13:00     -101.891       59.087       -5.582       58.828       73.540       41.170     3460.725     5408.179     1695.001        1.223        0.528      117.783       40.339        0.117      340.043       13.790      864.672
05/19/2013  00:14:00      -28.061      182.678      -18.976       32.138       56.027       29.973     1032.875     3139.036      898.380        1.979        0.254      184.821       30.413        0.027      340.010       13.734      864.693
05/19/2013  00:15:00      -26.788      190.464      -22.246       42.179       49.331       27.828     1779.042     2433.520      774.381        2.124        0.249      192.339       27.598        0.021      339.903       13.552      864.712
05/19/2013  00:16:00        4.719      142.640      -10.025       43.140       64.176       29.239     1861.022     4118.565      854.903        1.365        0.342      142.718       30.973        0.047      339.847       13.461      864.722
05/19/2013  00:17:00       55.798      180.121      -18.353       51.369       85.519       53.505     2638.807     7313.577     2862.781        2.435        0.641      188.565       54.575        0.084      339.632       13.097      864.727
05/19/2013  00:18:00       49.235      160.826       -9.848       56.030       69.202       42.472     3139.336     4788.883     1803.845        1.906        0.487      168.193       40.866        0.059      339.532       12.926      864.730
05/19/2013  00:19:00      -24.740      318.580      -38.326       64.752       93.017       38.017     4192.863     8652.145     1445.303        5.893        0.715      319.539       36.682        0.013      339.525       12.915      864.745
05/19/2013  00:20:00      -42.186      194.065      -22.782       36.190       54.201       22.117     1309.743     2937.742      489.158        2.235        0.237      198.597       24.475        0.015      339.551       12.959      864.751
05/19/2013  00:21:00      -60.429      187.277      -19.981       40.682       55.966       32.361     1655.009     3132.199     1047.232        2.248        0.292      196.785       30.222        0.024      339.562       12.979      864.755
05/19/2013  00:22:00      -37.653      132.285      -10.980       31.069       36.576       28.145      965.277     1337.806      792.127        1.107        0.155      137.540       25.986        0.036      339.601       13.047      864.760
05/19/2013  00:23:00      -36.146      123.564      -11.055       35.297       61.814       18.398     1245.900     3820.983      338.486        1.105        0.270      128.743       25.652        0.040      339.554       12.966      864.764
05/19/2013  00:24:00      -63.895       67.482      -14.409       52.073       44.965       24.701     2711.624     2021.811      610.132        0.709        0.267       92.932       33.987        0.134      339.609       13.060      864.770
05/19/2013  00:25:00      -81.358       45.182      -11.536       36.821       30.700       19.109     1355.817      942.515      365.141        0.573        0.133       93.062       17.746        0.036      339.577       13.005      864.774
05/19/2013  00:26:00      -37.313       74.394       -7.781       32.286       46.125       20.243     1042.362     2127.540      409.795        0.528        0.179       83.227       18.490        0.049      339.637       13.106      864.772
05/19/2013  00:27:00       15.711       76.729       -6.885       28.587       40.321       25.869      817.223     1625.746      669.229        0.465        0.156       78.321       18.125        0.054      339.649       13.126      864.778
05/19/2013  00:28:00      -29.699       54.911        0.692       22.822       32.266       18.912      520.845     1041.066      357.645        0.291        0.096       62.428       17.523        0.079      339.714       13.237      864.791
05/19/2013  00:29:00       12.721       57.297       -3.755       38.715       33.190       25.835     1498.836     1101.583      667.467        0.336        0.163       58.692       18.795        0.103      339.661       13.149      864.801
05/19/2013  00:30:00      -29.059       72.162       -6.894       46.706       38.029       19.774     2181.460     1446.186      391.027        0.506        0.201       77.793       19.873        0.065      339.664       13.153      864.813
05/19/2013  00:31:00     -109.858       70.814      -26.084       52.442       41.459       25.324     2750.193     1718.865      641.283        1.144        0.256      130.704       24.853        0.036      339.611       13.063      864.828
05/19/2013  00:32:00      -34.860      153.908      -10.780       39.631       49.009       24.535     1570.591     2401.859      601.962        1.480        0.229      157.807       20.052        0.016      339.626       13.089      864.830
05/19/2013  00:33:00      -32.278       76.389        5.196       39.881       44.666       38.956     1590.519     1995.044     1517.545        0.600        0.255       82.929       28.893        0.121      339.697       13.208      864.815
05/19/2013  00:34:00      -16.077       38.906       -7.122       16.885       23.909       12.619      285.098      571.650      159.247        0.142        0.051       42.097        8.883        0.045      339.684       13.186      864.795
05/19/2013  00:35:00      -31.096       16.750        2.665       16.207       16.481       12.986      262.669      271.618      168.628        0.098        0.035       35.320        8.282        0.055      339.654       13.136      864.776
05/19/2013  00:36:00      -34.996       15.759        1.718       23.028       24.335       11.405      530.290      592.210      130.076        0.136        0.063       38.380       10.446        0.074      339.649       13.127      864.765
05/19/2013  00:37:00      -33.100       77.819       -1.757       32.121       54.468       26.796     1031.746     2966.785      718.012        0.593        0.236       84.566       17.628        0.043      339.609       13.061      864.783
05/19/2013  00:38:00      -89.549       37.367      -10.830       27.589       31.211       24.531      761.162      974.098      601.794        0.593        0.117       97.033       17.723        0.033      339.616       13.073      864.787
05/19/2013  00:39:00       -8.529       88.712      -33.655       43.989       40.878       14.480     1935.015     1671.041      209.665        0.644        0.191       89.121       17.578        0.039      339.552       12.963      864.791
05/19/2013  00:40:00      -23.588       64.052       -7.835       36.433       79.711       33.691     1327.340     6353.886     1135.099        0.677        0.441       68.257       33.998        0.248      339.554       12.966      864.788
05/19/2013  00:41:00      -65.352       26.009      -15.439       49.730       59.871       29.796     2473.096     3584.479      887.814        0.606        0.347       70.337       24.738        0.124      339.577       13.005      864.800
05/19/2013  00:42:00      -89.002       45.611       -0.152       56.303       33.560       22.141     3170.006     1126.288      490.239        0.739        0.239      100.009       24.042        0.058      339.569       12.991      864.803
05/19/2013  00:43:00     -134.461       77.415      -19.264       67.561       79.430       40.737     4564.505     6309.054     1659.471        1.849        0.627      155.154       48.169        0.096      339.475       12.832      864.839
05/19/2013  00:44:00     -141.359      215.632      -36.294       51.756       64.142       43.381     2678.677     4114.152     1881.919        3.823        0.434      257.836       39.285        0.023      339.408       12.717      864.868
05/19/2013  00:45:00      -67.210       93.242       -8.596       51.044       86.973       32.080     2605.442     7564.370     1029.104        1.224        0.560      114.941       28.460        0.061      339.412       12.728      864.873
05/19/2013  00:46:00     -120.264       70.037      -21.199       57.567       81.371       45.207     3313.939     6621.245     2043.640        1.590        0.599      139.172       38.830        0.078      339.436       12.766      864.896
05/19/2013  00:47:00     -111.304       82.753      -12.353       65.099       62.978       41.073     4237.872     3966.170     1686.982        1.464        0.495      138.697       38.096        0.075      339.369       12.655      864.921
05/19/2013  00:48:00     -106.903       82.507      -24.820       68.107       53.907       33.641     4638.561     2905.950     1131.686        1.376        0.434      135.040       31.326        0.054      339.395       12.697      864.925
05/19/2013  00:49:00     -108.923      163.955      -16.905       65.766       81.973       38.313     4325.170     6719.498     1467.876        2.577        0.626      196.839       31.815        0.026      339.333       12.592      864.928
05/19/2013  00:50:00     -138.944       68.126      -29.606       73.338       77.238       39.463     5378.505     5965.635     1557.332        1.886        0.645      154.747       39.104        0.064      339.325       12.579      864.945
05/19/2013  00:51:00     -216.636      216.149      -47.463       76.161       99.679       54.757     5800.451     9935.897     2998.294        5.732        0.937      306.025       49.783        0.026      339.240       12.434      864.956
05/19/2013  00:52:00     -146.529      143.530      -39.101       44.061       52.574       35.558     1941.352     2763.998     1264.354        2.478        0.298      205.113       24.524        0.014      339.248       12.448      864.981
05/19/2013  00:53:00     -131.280      181.340      -36.667       60.004       64.929       40.982     3600.526     4215.717     1679.513        3.048        0.475      223.872       33.157        0.022      339.226       12.410      864.989
05/19/2013  00:54:00     -121.949      202.183      -29.337       98.782       98.538       54.347     9757.892     9709.664     2953.589        3.951        1.121      236.113       56.903        0.058      339.199       12.366      865.012
05/19/2013  00:55:00     -175.368      110.441      -30.940      117.768      136.346       44.414    13869.404    18590.106     1972.630        3.916        1.722      207.246       48.641        0.055      339.235       12.426      865.007
05/19/2013  00:56:00     -169.664      152.243       -6.404      120.829      136.246       59.131    14599.532    18563.060     3496.507        4.432        1.833      227.956       57.716        0.064      339.219       12.400      865.015
05/19/2013  00:57:00     -175.030      215.912      -55.105      100.646       87.409       54.807    10129.674     7640.252     3003.813        5.053        1.039      277.946       61.883        0.050      339.180       12.335      865.017
05/19/2013  00:58:00     -158.129      171.642      -39.989       78.285       68.057       44.601     6128.532     4631.781     1989.231        3.440        0.637      233.379       46.408        0.040      339.194       12.357      865.044
05/19/2013  00:59:00      -31.752      241.945       -7.921       79.920      101.350       68.487     6387.264    10271.804     4690.448        4.047        1.067      244.019       55.369        0.051      339.196       12.362      865.046
05/19/2013  01:00:00      -52.297      270.848      -28.011       60.921       67.772       33.169     3711.340     4592.990     1100.195        4.314        0.470      275.851       12.806        0.002      339.167       12.310      865.024
05/19/2013  01:01:00      -34.263      144.240      -10.531       52.535       78.741       34.265     2759.960     6200.088     1174.080        1.611        0.507      148.254       35.536        0.057      339.172       12.321      865.027
05/19/2013  01:02:00     -171.013      134.446      -37.308       54.084       96.277       39.329     2925.120     9269.268     1546.751        3.122        0.687      217.534       45.931        0.045      339.206       12.377      865.020
05/19/2013  01:03:00        4.878      151.085      -14.420      109.296       69.861       42.739    11945.711     4880.610     1826.583        2.085        0.933      151.163       47.022        0.097      339.170       12.320      865.029
05/19/2013  01:04:00      -67.926       71.238       -2.489       45.907       42.920       35.312     2107.474     1842.158     1246.905        0.744        0.260       98.432       20.420        0.043      339.234       12.429      865.009
05/19/2013  01:05:00      -78.486      155.147      -21.223       64.813       75.232       40.864     4200.773     5659.834     1669.898        2.110        0.577      173.870       33.356        0.037      339.174       12.324      865.049
05/19/2013  01:06:00     -165.002      244.370      -35.214       78.747       83.103       55.763     6201.022     6906.082     3109.535        5.220        0.811      294.860       48.052        0.027      339.136       12.258      865.054
05/19/2013  01:07:00     -123.847      217.853      -33.257       57.106       81.361       34.473     3261.041     6619.681     1188.391        3.748        0.553      250.595       28.745        0.013      339.128       12.246      865.083
05/19/2013  01:08:00      -56.605      115.421       -6.068       42.322       82.220       26.329     1791.177     6760.167      693.201        1.290        0.462      128.554       36.430        0.080      339.174       12.325      865.092
05/19/2013  01:09:00      -48.074      125.010      -10.427       40.920       72.159       35.923     1674.433     5206.925     1290.490        1.311        0.409      133.935       36.698        0.075      339.182       12.339      865.117
05/19/2013  01:10:00      -95.781      200.605      -25.067       87.538      104.770       51.712     7662.889    10976.653     2674.178        3.568        1.066      222.298       51.375        0.053      339.189       12.349      865.135
05/19/2013  01:11:00     -119.224      213.648      -32.656       78.311       93.576       57.958     6132.624     8756.385     3359.079        3.958        0.912      244.663       63.428        0.067      339.113       12.222      865.146
05/19/2013  01:12:00      -69.842      237.948      -16.603       65.889       96.012       53.458     4341.417     9218.340     2857.719        3.909        0.821      247.986       51.043        0.042      339.125       12.240      865.124
05/19/2013  01:13:00      -83.732       94.309       -7.249       51.048       80.145       33.975     2605.902     6423.178     1154.289        1.307        0.509      126.116       34.267        0.074      339.181       12.337      865.120
05/19/2013  01:14:00      -48.296       41.855        4.842       79.137       56.533       36.476     6262.692     3195.962     1330.495        0.745        0.539       63.909       33.236        0.270      339.215       12.396      865.118
05/19/2013  01:15:00      -81.008      177.808      -32.922       51.929       82.298       36.593     2696.583     6773.021     1339.036        2.503        0.540      195.392       37.150        0.036      339.129       12.248      865.122
05/19/2013  01:16:00      -59.533      201.073      -26.820       57.218       55.735       31.437     3273.925     3106.338      988.278        2.603        0.368      209.701       26.052        0.015      339.101       12.201      865.114
05/19/2013  01:17:00      -35.455      126.089       -7.769       50.275       60.010       32.187     2527.590     3601.195     1035.979        1.219        0.358      130.979       27.673        0.045      339.192       12.355      865.115
05/19/2013  01:18:00       -7.982      156.064      -23.454       39.152       60.128       29.214     1532.876     3615.427      853.438        1.548        0.300      156.268       20.767        0.018      339.097       12.198      865.112
05/19/2013  01:19:00       31.402      142.018      -16.096       43.607       74.559       28.169     1901.600     5559.076      793.498        1.483        0.413      145.448       30.807        0.045      339.076       12.161      865.107
05/19/2013  01:20:00       42.004      141.774      -22.212       49.441       69.873       39.234     2444.369     4882.229     1539.304        1.561        0.443      147.865       39.874        0.073      339.043       12.105      865.120
05/19/2013  01:21:00      -42.141       97.053        0.365       54.442       41.152       35.878     2963.971     1693.470     1287.253        0.857        0.297      105.807       25.912        0.060      339.094       12.193      865.132
05/19/2013  01:22:00        3.231       95.695       -0.594       18.938       27.924       19.066      358.648      779.751      363.517        0.533        0.075       95.750       16.434        0.029      339.057       12.128      865.145
05/19/2013  01:23:00       60.042       75.259       10.872       52.707       39.479       42.401     2777.991     1558.592     1797.817        0.776        0.307       96.276       27.893        0.084      339.025       12.077      865.149
05/19/2013  01:24:00      131.210       79.612       15.866       73.928       50.544       43.953     5465.376     2554.692     1931.860        1.688        0.498      153.474       30.112        0.038      339.027       12.079      865.160
05/19/2013  01:25:00       64.912      197.584        2.337       83.273      142.970       84.567     6934.407    20440.460     7151.649        3.889        1.726      207.974       85.060        0.167      338.974       11.988      865.173
05/19/2013  01:26:00       48.869      197.207      -23.202       71.324       87.993       55.463     5087.118     7742.806     3076.119        2.886        0.795      203.172       60.809        0.090      338.954       11.955      865.191
05/19/2013  01:27:00       73.161       69.580       13.542       60.401       62.930       56.181     3648.232     3960.217     3156.343        1.057        0.538      100.965       38.159        0.143      338.952       11.952      865.196
05/19/2013  01:28:00       43.570      134.679       -3.714       61.559       77.963       46.419     3789.548     6078.273     2154.700        1.603        0.601      141.551       39.588        0.078      338.939       11.929      865.200
05/19/2013  01:29:00       97.736      131.240        1.159       78.825       72.371       53.559     6213.416     5237.543     2868.519        2.055        0.716      163.634       49.016        0.090      338.920       11.898      865.211
05/19/2013  01:30:00      124.585       83.954       17.349      118.368       68.691       52.899    14010.887     4718.392     2798.333        2.219        1.076      150.232       35.770        0.057      338.926       11.908      865.218
05/19/2013  01:31:00       79.138       97.608       -7.075       74.844       82.935       61.575     5601.599     6878.214     3791.473        1.605        0.814      125.659       41.562        0.109      338.905       11.872      865.249
05/19/2013  01:32:00       62.915      113.339       -4.898       71.767       54.899       49.811     5150.471     3013.906     2481.121        1.373        0.532      129.630       40.518        0.098      338.905       11.871      865.255
05/19/2013  01:33:00       87.735       66.790        8.911       80.684       56.957       45.003     6509.890     3244.056     2025.306        1.201        0.589      110.265       29.395        0.071      338.927       11.911      865.264
05/19/2013  01:34:00       45.673      164.839      -15.689       57.072       60.507       41.790     3257.209     3661.116     1746.422        1.908        0.433      171.049       36.818        0.046      338.870       11.815      865.279
05/19/2013  01:35:00       -6.907      222.923      -15.041       62.145       96.266       43.380     3861.939     9267.131     1881.849        3.249        0.751      223.030       49.192        0.049      338.859       11.794      865.286
05/19/2013  01:36:00       26.684      210.143      -18.342       61.021      116.037       48.857     3723.512    13464.492     2387.052        3.239        0.979      211.831       62.106        0.086      338.843       11.767      865.298
05/19/2013  01:37:00      -30.007      162.393       -3.992       91.078       91.049       60.300     8295.232     8289.855     3636.066        2.375        1.011      165.142       59.146        0.128      338.868       11.810      865.300
05/19/2013  01:38:00      -66.749      316.743      -32.814       68.934      113.288       40.333     4751.942    12834.130     1626.780        6.253        0.961      323.700       49.084        0.023      338.841       11.764      865.310
05/19/2013  01:39:00      -31.122      277.666      -31.017       53.201      114.770       44.803     2830.332    13172.188     2007.344        4.852        0.900      279.404       49.402        0.031      338.831       11.747      865.309
05/19/2013  01:40:00     -108.662      205.116      -24.939       67.630       95.157       40.239     4573.862     9054.859     1619.160        3.487        0.762      232.121       42.867        0.034      338.848       11.775      865.310
05/19/2013  01:41:00      -93.769       94.153      -10.404       77.537       83.493       35.783     6012.009     6971.007     1280.405        1.601        0.713      132.881       35.076        0.070      338.850       11.780      865.304
05/19/2013  01:42:00      -65.465      206.883      -21.205       47.967       74.130       36.490     2300.833     5495.329     1331.554        2.833        0.456      216.994       40.990        0.036      338.838       11.759      865.319
05/19/2013  01:43:00      -67.082      185.834      -19.133       65.462       91.521       52.884     4285.215     8376.021     2796.707        2.743        0.773      197.571       51.347        0.068      338.838       11.758      865.322
05/19/2013  01:44:00      -70.582       96.029       -6.350       70.696      105.443       37.193     4997.969    11118.320     1383.295        1.587        0.875      119.178       41.848        0.123      338.896       11.858      865.304
05/19/2013  01:45:00     -175.645      306.197      -46.739       99.355       99.609       48.571     9871.507     9921.862     2359.176        7.447        1.108      352.998       54.886        0.024      338.772       11.648      865.300
05/19/2013  01:46:00     -160.659      190.530      -49.447       64.527       81.972       46.687     4163.693     6719.437     2179.652        3.881        0.653      249.225       50.982        0.042      338.778       11.659      865.301
05/19/2013  01:47:00     -170.414      194.554      -30.597      100.781       94.034       55.213    10156.849     8842.481     3048.490        4.493        1.102      258.635       63.250        0.060      338.744       11.600      865.298
05/19/2013  01:48:00     -148.453      218.390      -47.169       84.887       94.718       51.046     7205.733     8971.566     2605.649        4.537        0.939      264.069       53.354        0.041      338.750       11.612      865.291
05/19/2013  01:49:00     -154.735      127.503      -29.010       49.263       67.113       32.891     2426.852     4504.117     1081.792        2.453        0.401      200.499       24.213        0.015      338.746       11.604      865.288
05/19/2013  01:50:00     -119.869      139.829      -31.397       68.135       71.151       37.642     4642.407     5062.423     1416.902        2.301        0.556      184.176       34.340        0.035      338.735       11.588      865.281
05/19/2013  01:51:00      -64.003      134.284      -11.526       51.883       66.716       32.986     2691.805     4451.050     1088.044        1.524        0.412      148.757       24.749        0.028      338.763       11.636      865.262
05/19/2013  01:52:00      -63.793       53.943        2.159       53.419       44.599       27.958     2853.597     1989.097      781.667        0.630        0.281       83.543       17.770        0.045      338.801       11.699      865.257
05/19/2013  01:53:00      -77.381      214.020      -26.310       58.368      112.121       45.606     3406.867    12571.231     2079.939        3.527        0.903      227.580       45.231        0.040      338.746       11.605      865.264
05/19/2013  01:54:00     -125.012      190.598      -31.042       55.905       80.440       34.080     3125.386     6470.611     1161.462        3.184        0.538      227.938       30.804        0.018      338.708       11.541      865.276
05/19/2013  01:55:00     -107.679      112.719      -19.133       43.508       74.098       31.530     1892.912     5490.442      994.170        1.652        0.419      155.886       36.017        0.053      338.717       11.556      865.271
05/19/2013  01:56:00     -154.564      146.054      -35.476       76.233       85.870       45.845     5811.515     7373.689     2101.786        3.088        0.764      212.654       57.362        0.073      338.675       11.485      865.293
05/19/2013  01:57:00     -101.246      139.964      -22.976       56.563       67.586       37.190     3199.328     4567.801     1383.111        1.976        0.458      172.744       36.540        0.045      338.685       11.502      865.292
05/19/2013  01:58:00     -123.120      136.186      -28.495       70.509       65.665       35.171     4971.492     4311.867     1236.982        2.252        0.526      183.589       36.361        0.039      338.662       11.463      865.286
05/19/2013  01:59:00     -105.046      144.522      -18.272       80.381       83.409       46.978     6461.143     6957.144     2206.927        2.394        0.781      178.665       36.921        0.043      338.683       11.498      865.281
05/19/2013  02:00:00      -95.203      122.832      -11.220       53.551       96.969       49.778     2867.698     9402.947     2477.894        1.951        0.737      155.407       50.442        0.105      338.668       11.474      865.263
05/19/2013  02:01:00     -100.126      114.345      -19.424       54.085       56.309       29.066     2925.198     3170.683      844.814        1.521        0.347      151.987       23.347        0.024      338.671       11.480      865.248
05/19/2013  02:02:00     -184.655      215.878      -44.102       75.973       79.661       51.322     5771.823     6345.907     2633.898        4.870        0.738      284.079       46.047        0.026      338.655       11.450      865.250
05/19/2013  02:03:00     -183.590      153.726      -32.947       64.487       87.852       38.560     4158.542     7717.968     1486.906        3.589        0.668      239.451       41.316        0.030      338.666       11.468      865.228
05/19/2013  02:04:00     -110.724       86.508      -21.092       97.248       46.716       43.707     9457.269     2182.351     1910.335        1.687        0.677      140.512       51.595        0.135      338.684       11.500      865.214
05/19/2013  02:05:00      -31.633      135.589       -5.754       55.800       97.252       36.252     3113.671     9457.885     1314.231        1.665        0.694      139.230       32.736        0.055      338.651       11.447      865.222
05/19/2013  02:06:00      -86.870      230.508      -24.015       94.587       96.020       46.083     8946.794     9219.931     2123.615        4.077        1.015      246.334       45.684        0.034      338.677       11.488      865.226
05/19/2013  02:07:00      -65.872      120.367       -7.252       45.423      103.533       42.278     2063.286    10718.994     1787.415        1.672        0.728      137.213       30.003        0.048      338.721       11.564      865.220
05/19/2013  02:08:00      -65.442      145.947      -19.360       52.787       78.937       31.722     2786.435     6231.048     1006.292        1.799        0.501      159.947       35.862        0.050      338.700       11.528      865.232
05/19/2013  02:09:00      -72.641      168.444      -11.728       50.819       81.110       41.934     2582.541     6578.907     1758.473        2.235        0.546      183.440       44.827        0.060      338.676       11.487      865.251
05/19/2013  02:10:00      -84.436      167.861      -28.578       49.517       56.885       33.051     2451.946     3235.927     1092.338        2.145        0.339      187.901       31.902        0.029      338.692       11.514      865.264
05/19/2013  02:11:00     -114.869      164.886      -23.411       67.525       70.541       38.837     4559.602     4975.991     1508.299        2.598        0.552      200.953       33.023        0.027      338.651       11.445      865.278
05/19/2013  02:12:00     -109.730      110.426      -31.372       49.966       53.330       30.844     2496.572     2844.139      951.351        1.575        0.315      155.675       26.510        0.029      338.658       11.459      865.300
05/19/2013  02:13:00      -70.846      126.777      -15.167       57.153       63.752       41.463     3266.518     4064.372     1719.166        1.518        0.453      145.229       33.685        0.054      338.681       11.496      865.329
05/19/2013  02:14:00     -116.712      234.246      -42.084       69.784       95.042       38.056     4869.737     9032.960     1448.241        4.280        0.768      261.712       41.681        0.025      338.676       11.485      865.333
05/19/2013  02:15:00     -105.978      127.021      -19.334       51.467       59.851       29.987     2648.857     3582.170      899.229        1.743        0.357      165.426       19.794        0.014      338.657       11.455      865.348
05/19/2013  02:16:00     -116.947      200.382      -35.098       73.571       71.529       48.045     5412.655     5116.401     2308.360        3.395        0.642      232.012       44.190        0.036      338.683       11.498      865.377
05/19/2013  02:17:00      -53.720      171.015      -18.761       60.389       90.373       47.506     3646.816     8167.338     2256.789        2.327        0.704      179.254       53.312        0.088      338.676       11.487      865.382
05/19/2013  02:18:00      -55.702      182.691      -22.917       51.994       69.968       40.836     2703.335     4895.534     1667.597        2.313        0.463      190.994       33.816        0.031      338.711       11.547      865.375
05/19/2013  02:19:00     -143.342      227.418      -43.673       97.388       85.679       53.313     9484.349     7340.934     2842.246        4.692        0.983      268.823       61.095        0.052      338.685       11.502      865.391
05/19/2013  02:20:00      -58.299      182.948      -13.094       60.307       90.050       40.235     3636.966     8108.930     1618.880        2.520        0.668      192.012       38.835        0.041      338.677       11.489      865.395
05/19/2013  02:21:00      -28.721      146.315       -4.953       54.214       84.745       43.632     2939.158     7181.631     1903.757        1.714        0.601      149.107       47.606        0.102      338.677       11.490      865.395
05/19/2013  02:22:00      -41.681      268.318      -36.582       68.118       93.039       41.195     4640.047     8656.339     1697.068        4.503        0.750      271.536       45.872        0.029      338.680       11.492      865.388
05/19/2013  02:23:00      -33.663      267.902      -32.691       57.286       68.502       38.687     3281.730     4692.500     1496.706        4.172        0.474      270.009       23.923        0.008      338.664       11.465      865.386
05/19/2013  02:24:00      -20.538      189.914      -19.295       55.933       78.925       40.874     3128.525     6229.092     1670.686        2.394        0.551      191.022       39.008        0.042      338.652       11.447      865.389
05/19/2013  02:25:00      -54.627      179.453      -12.363       65.057       77.597       39.844     4232.435     6021.343     1587.547        2.359        0.592      187.583       38.701        0.043      338.646       11.438      865.383
05/19/2013  02:26:00      -25.170      163.884      -14.128       45.357       80.655       28.215     2057.252     6505.192      796.078        1.852        0.468      165.806       30.571        0.034      338.661       11.462      865.385
05/19/2013  02:27:00      -25.542      191.124      -25.353       49.788      114.355       33.394     2478.840    13077.123     1115.131        2.724        0.834      192.824       45.692        0.056      338.680       11.495      865.404
05/19/2013  02:28:00      -69.178      264.833      -32.871       63.498       90.110       44.146     4032.027     8119.815     1948.827        4.505        0.705      273.719       47.833        0.031      338.647       11.437      865.410
05/19/2013  02:29:00      -42.690      317.228      -35.847       82.370      122.577       48.295     6784.870    15025.066     2332.384        6.394        1.207      320.087       52.357        0.027      338.659       11.456      865.427
05/19/2013  02:30:00     -123.255      195.470      -30.177       97.661      149.530       58.336     9537.686    22359.362     3403.115        4.480        1.765      231.085       57.437        0.062      338.668       11.472      865.445
05/19/2013  02:31:00     -135.562      330.158      -36.674       92.743      120.165       49.098     8601.258    14439.600     2410.618        7.708        1.273      356.905       47.684        0.018      338.677       11.487      865.458
05/19/2013  02:32:00     -128.195      184.804      -33.812       58.349       76.110       37.880     3404.619     5792.682     1434.889        3.118        0.532      224.914       31.842        0.020      338.679       11.490      865.461
05/19/2013  02:33:00     -192.256      137.887      -29.788      109.938       99.738       56.666    12086.291     9947.571     3210.990        4.105        1.262      236.590       60.896        0.066      338.712       11.548      865.463
05/19/2013  02:34:00     -178.147      277.974      -51.854       81.531      127.878       55.265     6647.344    16352.720     3054.248        6.887        1.303      330.160       47.663        0.021      338.671       11.477      865.454
05/19/2013  02:35:00     -241.559      213.194      -38.307      108.767       83.611       65.321    11830.285     6990.786     4266.830        6.417        1.154      322.184       59.903        0.035      338.692       11.512      865.432
05/19/2013  02:36:00     -181.443      156.571      -44.499       80.040      100.327       44.775     6406.442    10065.453     2004.790        3.894        0.924      239.658       44.517        0.035      338.721       11.563      865.405
05/19/2013  02:37:00     -167.146      195.346      -28.327       99.532       86.941       57.037     9906.594     7558.722     3253.252        4.381        1.036      257.095       56.341        0.048      338.717       11.555      865.387
05/19/2013  02:38:00     -172.009      219.000      -22.279      106.476      109.688       68.041    11337.212    12031.542     4629.581        5.302        1.400      278.475       64.541        0.054      338.718       11.556      865.377
05/19/2013  02:39:00     -169.305      272.436      -42.339       93.688      131.634       55.167     8777.418    17327.421     3043.376        6.691        1.457      320.758       46.845        0.021      338.710       11.542      865.360
05/19/2013  02:40:00     -178.174      204.773      -46.218      101.412      133.479       57.123    10284.473    17816.666     3263.038        5.358        1.568      271.437       74.306        0.075      338.685       11.502      865.349
05/19/2013  02:41:00     -178.638      222.013      -37.850       80.562      115.804       49.757     6490.240    13410.651     2475.757        5.250        1.119      284.959       45.653        0.026      338.684       11.499      865.326
05/19/2013  02:42:00     -183.093       94.634      -30.712       91.419       75.340       40.655     8357.503     5676.061     1652.849        2.955        0.784      206.103       45.706        0.049      338.741       11.597      865.313
05/19/2013  02:43:00     -143.162       60.737      -18.181       63.505       74.576       44.485     4032.893     5561.555     1978.880        1.804        0.579      155.513       28.049        0.033      338.726       11.571      865.291
05/19/2013  02:44:00     -130.765       94.064      -17.940       55.898       98.297       51.079     3124.598     9662.315     2609.099        2.083        0.770      161.082       34.607        0.046      338.724       11.568      865.266
05/19/2013  02:45:00     -205.496       91.656      -13.326      142.221       79.516       59.031    20226.751     6322.795     3484.707        4.041        1.502      225.010       66.894        0.088      338.708       11.541      865.262
05/19/2013  02:46:00     -117.690      129.238      -19.574       71.119       79.597       41.827     5057.873     6335.729     1749.484        2.204        0.657      174.795       39.619        0.051      338.740       11.595      865.270
05/19/2013  02:47:00     -233.784      277.537      -61.296       99.795      127.496       59.037     9959.038    16255.194     3485.399        8.256        1.485      362.880       64.962        0.032      338.692       11.511      865.279
05/19/2013  02:48:00     -207.239      154.893      -37.808       74.992       98.658       48.490     5623.788     9733.358     2351.240        4.304        0.885      258.727       40.549        0.025      338.657       11.453      865.274
05/19/2013  02:49:00     -126.589       90.597      -17.335       86.211       71.032       45.986     7432.262     5045.543     2114.705        1.956        0.730      155.668       29.080        0.035      338.661       11.462      865.262
05/19/2013  02:50:00     -166.288       39.384      -32.787       72.387      112.588       40.344     5239.934    12676.033     1627.600        2.491        0.977      170.888       36.422        0.045      338.689       11.509      865.237
05/19/2013  02:51:00     -166.684      186.272      -45.562       88.137       97.871       45.081     7768.095     9578.768     2032.289        4.196        0.969      249.961       36.699        0.022      338.667       11.470      865.216
05/19/2013  02:52:00     -178.740      173.511      -29.630       97.576       87.578       55.376     9521.159     7669.969     3066.504        4.159        1.013      249.107       53.473        0.046      338.651       11.445      865.175
05/19/2013  02:53:00     -233.356      251.599      -57.792      118.762       91.013       60.042    14104.376     8283.327     3605.057        7.354        1.300      343.157       61.797        0.032      338.654       11.449      865.152
05/19/2013  02:54:00     -205.409      208.962      -45.148       81.415      108.006       50.412     6628.347    11665.359     2541.410        5.436        1.042      293.015       47.785        0.027      338.664       11.465      865.130
05/19/2013  02:55:00     -182.506      275.119      -49.456       95.534      104.582       65.928     9126.761    10937.458     4346.460        6.792        1.221      330.150       59.560        0.033      338.669       11.472      865.137
05/19/2013  02:56:00     -171.863      113.986      -10.998      105.600       87.037       49.868    11151.257     7575.387     2486.861        3.193        1.061      206.228       45.863        0.049      338.681       11.496      865.150
05/19/2013  02:57:00     -141.717      156.011      -27.556       84.513       70.355       45.331     7142.397     4949.868     2054.922        2.966        0.707      210.767       35.143        0.028      338.671       11.476      865.159
05/19/2013  02:58:00     -182.069      232.738      -31.094       62.326      116.382       57.828     3884.468    13544.675     3344.045        5.452        1.039      295.493       61.257        0.043      338.643       11.430      865.173
05/19/2013  02:59:00     -131.384      162.681      -20.907       71.030       98.867       43.612     5045.195     9774.721     1901.970        3.044        0.836      209.110       39.446        0.036      338.662       11.464      865.191
05/19/2013  03:00:00     -169.107      180.864      -36.767       77.838       73.875       42.063     6058.809     5457.466     1769.301        3.797        0.664      247.606       42.876        0.030      338.658       11.455      865.199
05/19/2013  03:01:00     -176.716      182.901      -37.500       76.260       83.661       47.932     5815.650     6999.163     2297.483        4.060        0.756      254.325       39.303        0.024      338.664       11.466      865.207
05/19/2013  03:02:00     -203.968      161.617      -51.063       98.447      112.206       53.382     9691.909    12590.284     2849.592        4.773        1.257      260.236       53.530        0.042      338.663       11.464      865.206
05/19/2013  03:03:00     -198.876      169.875      -35.218       76.023       84.264       45.234     5779.546     7100.457     2046.086        4.228        0.746      261.552       45.221        0.030      338.667       11.470      865.214
05/19/2013  03:04:00     -160.740      179.409      -32.827       98.822       94.506       57.216     9765.845     8931.302     3273.675        4.053        1.099      240.884       64.552        0.072      338.656       11.453      865.216
05/19/2013  03:05:00     -119.728      179.728      -19.035       76.606      115.698       56.020     5868.491    13385.954     3138.220        3.469        1.120      215.956       54.366        0.063      338.688       11.507      865.207
05/19/2013  03:06:00     -154.160      216.280      -31.990       69.643      102.257       48.971     4850.193    10456.414     2398.149        4.463        0.885      265.598       44.204        0.028      338.688       11.505      865.225
05/19/2013  03:07:00     -174.630      221.245      -35.409       66.081       78.098       51.555     4366.758     6099.324     2657.921        4.691        0.656      281.860       38.592        0.019      338.652       11.445      865.233
05/19/2013  03:08:00     -175.224      148.331      -34.777      120.303       99.901       58.018    14472.856     9980.262     3366.051        4.086        1.391      229.577       58.388        0.065      338.647       11.438      865.226
05/19/2013  03:09:00     -127.573      111.434       -9.209       94.255       83.228       55.089     8884.035     6926.910     3034.838        2.381        0.942      169.388       45.912        0.073      338.706       11.538      865.200
05/19/2013  03:10:00     -196.978      197.575      -42.154      100.880       90.343       56.334    10176.789     8161.931     3173.573        5.056        1.076      278.991       58.358        0.044      338.641       11.428      865.214
05/19/2013  03:11:00     -175.678      266.469      -39.948      105.327      121.924       62.697    11093.762    14865.517     3930.863        6.667        1.495      319.168       61.037        0.037      338.639       11.423      865.199
05/19/2013  03:12:00     -166.593      161.632      -28.364       84.188      125.969       46.616     7087.663    15868.111     2173.012        3.990        1.256      232.116       48.753        0.044      338.627       11.403      865.193
05/19/2013  03:13:00     -135.995      109.070       -6.258       94.682       76.986       52.272     8964.628     5926.861     2732.373        2.402        0.881      174.330       45.378        0.068      338.644       11.433      865.187
05/19/2013  03:14:00     -146.979      125.471      -13.267      103.263       87.420       49.802    10663.220     7642.316     2480.190        2.915        1.039      193.251       51.004        0.070      338.608       11.374      865.190
05/19/2013  03:15:00     -158.889      203.839      -27.923       88.641      117.858       52.455     7857.292    13890.586     2751.575        4.603        1.225      258.449       60.076        0.054      338.577       11.321      865.208
05/19/2013  03:16:00     -141.083      154.703      -14.778       93.240       62.004       48.215     8693.735     3844.500     2324.682        2.946        0.743      209.373       35.451        0.029      338.617       11.388      865.227
05/19/2013  03:17:00     -155.917      191.932      -24.335       77.085       71.812       49.414     5942.129     5156.941     2441.710        3.764        0.677      247.281       42.535        0.030      338.596       11.352      865.250
05/19/2013  03:18:00     -222.587      236.360      -55.691       82.017      110.202       53.336     6726.729    12144.407     2844.723        6.511        1.086      324.671       55.537        0.029      338.575       11.316      865.273
05/19/2013  03:19:00     -163.021      149.532      -34.093      104.773       81.336       54.211    10977.383     6615.467     2938.887        3.531        1.027      221.214       64.452        0.085      338.589       11.342      865.286
05/19/2013  03:20:00     -163.242      281.750      -41.392       78.822      104.369       57.297     6212.878    10892.943     3282.939        6.406        1.019      325.624       54.494        0.028      338.549       11.274      865.293
05/19/2013  03:21:00     -187.793      205.551      -33.588       92.957      113.990       60.687     8641.064    12993.801     3682.971        5.198        1.266      278.419       62.109        0.050      338.576       11.317      865.299
05/19/2013  03:22:00     -137.728      138.922      -26.865       95.769       97.895       55.818     9171.622     9583.456     3115.681        3.043        1.094      195.623       58.963        0.091      338.577       11.321      865.315
05/19/2013  03:23:00     -180.077      258.356      -43.449       85.807      148.517       65.833     7362.904    22057.222     4333.954        6.740        1.688      314.922       58.133        0.034      338.549       11.274      865.319
05/19/2013  03:24:00     -162.777      213.924      -32.490       59.693       98.753       50.727     3563.199     9752.135     2573.275        4.460        0.794      268.812       28.962        0.012      338.532       11.243      865.325
05/19/2013  03:25:00     -211.281      186.415      -38.086       95.994      114.604       66.392     9214.907    13134.050     4407.955        5.379        1.338      281.763       60.153        0.046      338.524       11.231      865.340
05/19/2013  03:26:00     -156.177      210.482      -20.618      104.603      117.344       57.143    10941.808    13769.711     3265.316        4.854        1.399      262.096       57.720        0.048      338.551       11.277      865.345
05/19/2013  03:27:00     -199.331      200.733      -43.007       68.775      107.135       50.886     4730.050    11478.008     2589.367        5.033        0.940      282.889       51.208        0.033      338.506       11.199      865.349
05/19/2013  03:28:00     -183.265      270.391      -36.947       94.585      108.662       55.312     8946.359    11807.470     3059.461        6.593        1.191      326.646       40.300        0.015      338.512       11.210      865.350
05/19/2013  03:29:00     -159.222      186.387      -23.450      100.204       96.314       51.640    10040.905     9276.296     2666.711        4.131        1.099      245.136       46.460        0.036      338.503       11.195      865.346
05/19/2013  03:30:00     -168.392      193.751      -23.844       73.225       84.914       44.715     5361.969     7210.352     1999.423        4.051        0.729      256.701       42.259        0.027      338.507       11.201      865.345
05/19/2013  03:31:00     -112.244      144.925      -17.378       54.499      104.468       48.850     2970.176    10913.666     2386.303        2.508        0.814      183.309       36.304        0.039      338.572       11.313      865.329
05/19/2013  03:32:00     -148.659      143.277      -21.765       75.383      111.946       41.553     5682.619    12531.965     1726.690        3.152        0.997      206.465       39.178        0.036      338.519       11.223      865.347
05/19/2013  03:33:00     -134.423      258.614      -29.043       84.617       96.443       59.024     7160.102     9301.208     3483.846        5.287        0.997      291.463       57.731        0.039      338.527       11.236      865.344
05/19/2013  03:34:00      -95.246      129.478      -23.711       65.353       99.949       47.990     4270.957     9989.745     2303.002        2.148        0.828      160.736       22.972        0.020      338.569       11.307      865.352
05/19/2013  03:35:00     -211.562      151.056      -38.703       96.057       90.617       51.607     9226.984     8211.380     2663.305        4.458        1.005      259.955       47.269        0.033      338.538       11.255      865.366
05/19/2013  03:36:00      -83.674      139.113       -9.583       76.190       80.931       44.511     5804.915     6549.764     1981.247        2.039        0.717      162.338       40.900        0.063      338.540       11.259      865.378
05/19/2013  03:37:00     -142.511      153.669       -2.185       79.752      178.766       63.774     6360.420    31957.172     4067.139        4.315        2.119      209.580       77.113        0.135      338.543       11.261      865.388
05/19/2013  03:38:00     -166.073      149.195      -32.386       86.828       92.223       53.571     7539.027     8505.157     2869.901        3.490        0.946      223.247       53.398        0.057      338.509       11.207      865.396
05/19/2013  03:39:00     -224.318      203.819      -42.471      104.009      121.598       50.816    10817.778    14786.026     2582.219        6.092        1.409      303.086       53.351        0.031      338.462       11.125      865.395
05/19/2013  03:40:00     -123.712      164.653      -10.902       79.462       81.451       52.815     6314.283     6634.219     2789.444        2.913        0.787      205.949       45.031        0.048      338.494       11.181      865.368
05/19/2013  03:41:00     -133.314      126.323      -19.552      105.093       58.084       50.040    11044.478     3373.737     2503.966        2.551        0.846      183.658       56.271        0.094      338.498       11.187      865.346
05/19/2013  03:42:00     -159.923      129.299      -10.119      120.871       66.745       49.343    14609.737     4454.959     2434.764        3.194        1.075      205.654       51.775        0.063      338.483       11.163      865.343
05/19/2013  03:43:00     -183.204      165.998      -19.547      106.137       99.720       57.538    11265.101     9944.151     3310.627        4.301        1.226      247.222       53.692        0.047      338.472       11.143      865.345
05/19/2013  03:44:00     -124.559      202.196      -31.314       73.731      115.746       66.039     5436.323    13397.127     4361.128        4.028        1.160      237.483       62.882        0.070      338.448       11.104      865.358
05/19/2013  03:45:00     -151.772       81.360      -25.662       66.142       71.311       36.197     4374.737     5085.289     1310.189        2.054        0.539      172.204       26.498        0.024      338.519       11.223      865.389
05/19/2013  03:46:00     -118.389      155.563      -12.265       60.909       97.353       50.849     3709.887     9477.660     2585.650        2.707        0.789      195.489       37.788        0.037      338.428       11.070      865.423
05/19/2013  03:47:00     -198.125      182.311      -41.748       92.124       96.337       51.555     8486.870     9280.795     2657.920        4.733        1.021      269.241       51.895        0.037      338.433       11.076      865.450
05/19/2013  03:48:00     -143.666      126.510      -22.847       99.512       67.258       49.932     9902.690     4523.652     2493.206        2.704        0.846      191.429       51.144        0.071      338.446       11.101      865.462
05/19/2013  03:49:00      -71.820      130.020      -11.554       79.484       80.281       41.954     6317.778     6445.031     1760.136        1.836        0.726      148.537       41.983        0.080      338.476       11.152      865.482
05/19/2013  03:50:00     -177.935      262.983      -41.759       73.560       80.116       44.887     5411.086     6418.631     2014.822        5.820        0.692      317.523       46.728        0.022      338.420       11.055      865.482
05/19/2013  03:51:00     -153.455      147.330      -15.660      102.399       96.373       52.370    10485.567     9287.845     2742.617        3.400        1.126      212.731       39.434        0.034      338.417       11.051      865.474
05/19/2013  03:52:00     -115.150      142.749      -17.003       95.407       76.650       53.697     9102.465     5875.220     2883.353        2.589        0.893      183.403       64.291        0.123      338.436       11.085      865.455
05/19/2013  03:53:00     -181.977      199.493      -38.475      105.582       87.194       59.427    11147.547     7602.730     3531.544        4.833        1.114      270.025       61.758        0.052      338.395       11.013      865.452
05/19/2013  03:54:00     -141.527      143.717      -31.780       73.202      101.395       54.456     5358.500    10280.887     2965.455        3.015        0.930      201.704       46.882        0.054      338.390       11.007      865.453
05/19/2013  03:55:00     -154.698      233.300      -30.592       75.511       98.496       53.019     5701.967     9701.390     2810.990        4.875        0.911      279.930       42.849        0.023      338.376       10.983      865.463
05/19/2013  03:56:00     -134.712      208.470      -32.277       85.743      112.313       54.156     7351.876    12614.216     2932.867        4.277        1.145      248.208       56.059        0.051      338.383       10.994      865.489
05/19/2013  03:57:00     -194.432      102.214      -34.443       88.355      108.350       49.656     7806.555    11739.643     2465.740        3.572        1.101      219.662       58.397        0.071      338.384       10.996      865.527
05/19/2013  03:58:00     -110.805      239.780      -23.879       94.722      126.418       58.171     8972.173    15981.609     3383.865        4.933        1.417      264.145       60.481        0.052      338.407       11.034      865.560
05/19/2013  03:59:00     -181.394      179.723      -34.520      106.198       99.260       59.548    11278.080     9852.452     3545.919        4.553        1.234      255.351       70.329        0.076      338.408       11.036      865.583
05/19/2013  04:00:00     -130.657      135.475      -23.860       71.341       76.184       41.989     5089.598     5804.023     1763.110        2.432        0.633      188.214       30.314        0.026      338.422       11.060      865.595
05/19/2013  04:01:00     -124.781      125.675      -10.016       92.802      118.770       51.476     8612.294    14106.356     2649.794        2.841        1.268      177.100       43.760        0.061      338.417       11.052      865.607
05/19/2013  04:02:00     -162.749      247.146      -39.816       67.539       83.159       54.864     4561.583     6915.367     3010.006        5.182        0.724      295.919       42.947        0.021      338.374       10.977      865.620
05/19/2013  04:03:00     -142.681       70.831      -23.126       86.123       81.887       39.010     7417.125     6705.473     1521.816        2.077        0.782      159.295       40.781        0.066      338.422       11.060      865.646
05/19/2013  04:04:00     -210.256      130.862      -31.760       75.998       66.969       46.172     5775.753     4484.890     2131.852        3.736        0.620      247.654       35.422        0.020      338.404       11.029      865.653
05/19/2013  04:05:00     -147.268      302.406      -40.035       65.432       84.877       54.808     4281.386     7204.125     3003.958        6.461        0.724      336.359       34.625        0.011      338.343       10.927      865.664
05/19/2013  04:06:00     -105.513      119.463      -19.827       66.327       62.455       40.900     4399.245     3900.639     1672.849        1.788        0.499      159.388       23.989        0.023      338.400       11.024      865.669
05/19/2013  04:07:00     -145.309      151.361      -21.875       80.281       85.976       58.491     6445.075     7391.800     3421.161        3.088        0.863      209.821       53.963        0.066      338.339       10.919      865.682
05/19/2013  04:08:00     -159.802       87.334      -18.315       97.394       75.551       40.109     9485.628     5707.973     1608.725        2.515        0.840      182.110       30.529        0.028      338.357       10.952      865.693
05/19/2013  04:09:00      -73.200      107.587      -10.683       60.344       72.124       44.458     3641.432     5201.829     1976.529        1.393        0.541      130.128       44.317        0.116      338.385       11.000      865.718
05/19/2013  04:10:00     -140.273      183.460      -35.528       62.563       81.949       44.379     3914.109     6715.600     1969.502        3.360        0.630      230.942       35.228        0.023      338.350       10.938      865.736
05/19/2013  04:11:00     -158.237      270.175      -35.915       84.984      137.648       51.992     7222.335    18946.885     2703.171        6.409        1.444      313.103       44.748        0.020      338.378       10.986      865.762
05/19/2013  04:12:00     -164.764      222.577      -39.631       94.818      109.490       51.847     8990.506    11988.038     2688.107        5.096        1.183      276.925       57.134        0.043      338.352       10.944      865.761
05/19/2013  04:13:00     -163.825       96.420      -14.246      117.956       50.022       48.388    13913.665     2502.186     2341.397        2.754        0.938      190.093       40.021        0.044      338.354       10.947      865.755
05/19/2013  04:14:00     -118.055      155.946      -14.720       83.919      118.110       51.190     7042.410    13949.921     2620.376        3.104        1.181      195.592       58.378        0.089      338.373       10.978      865.741
05/19/2013  04:15:00     -176.747      229.739      -39.058       71.096       94.448       55.013     5054.706     8920.474     3026.436        5.127        0.850      289.861       48.185        0.028      338.343       10.927      865.726
05/19/2013  04:16:00     -211.339      226.619      -51.248       94.263      114.508       53.853     8885.545    13112.049     2900.149        6.177        1.245      309.872       40.538        0.017      338.351       10.938      865.706
05/19/2013  04:17:00     -159.015      256.907      -15.283      123.438      135.280       76.377    15237.045    18300.787     5833.443        6.544        1.969      302.138       77.654        0.066      338.328       10.902      865.697
05/19/2013  04:18:00     -200.194      184.925      -34.275      136.987      100.957       59.934    18765.473    10192.385     3592.026        5.399        1.627      272.534       51.804        0.036      338.326       10.898      865.674
05/19/2013  04:19:00     -170.433      242.081      -36.403       87.239       92.066       59.853     7610.666     8476.140     3582.430        5.432        0.983      296.058       53.641        0.033      338.343       10.926      865.665
05/19/2013  04:20:00     -172.296      240.744      -48.642       80.113       80.417       50.499     6418.075     6466.849     2550.185        5.272        0.772      296.047       51.545        0.030      338.332       10.907      865.671
05/19/2013  04:21:00     -109.891      227.562      -23.643       65.031      100.585       55.854     4229.001    10117.262     3119.681        4.094        0.873      252.706       48.070        0.036      338.345       10.931      865.670
05/19/2013  04:22:00     -122.075      142.444      -17.784       65.514      107.552       43.255     4292.066    11567.373     1870.953        2.662        0.887      187.597       39.615        0.045      338.354       10.947      865.669
05/19/2013  04:23:00     -154.651      233.892      -45.872       93.059       92.798       51.819     8659.949     8611.413     2685.166        5.034        0.998      280.396       57.189        0.042      338.311       10.874      865.674
05/19/2013  04:24:00     -100.495      150.514      -11.554       75.756      100.231       51.719     5739.039    10046.249     2674.903        2.567        0.923      180.980       46.944        0.067      338.385       11.000      865.662
05/19/2013  04:25:00     -118.663      224.646      -24.947       58.424       79.709       51.173     3413.412     6353.466     2618.646        3.877        0.619      254.061       35.113        0.019      338.327       10.899      865.648
05/19/2013  04:26:00     -127.062      258.996      -30.248       81.235      121.015       56.363     6599.062    14644.579     3176.738        5.427        1.221      288.485       55.369        0.037      338.298       10.850      865.639
05/19/2013  04:27:00     -172.456      241.080      -49.802       90.904      101.614       54.415     8263.617    10325.450     2961.027        5.594        1.078      296.413       35.755        0.015      338.317       10.884      865.635
05/19/2013  04:28:00     -135.270      124.579      -18.037       82.093       74.371       49.703     6739.334     5531.054     2470.387        2.444        0.737      183.896       44.696        0.059      338.297       10.852      865.654
05/19/2013  04:29:00     -105.971      153.000      -15.479       73.595      101.358       45.897     5416.276    10273.366     2106.520        2.633        0.890      186.115       40.689        0.048      338.310       10.873      865.661
05/19/2013  04:30:00     -179.251      142.058      -22.850      109.990      110.166       48.486    12097.837    12136.471     2350.848        3.970        1.329      228.717       46.499        0.041      338.244       10.760      865.656
05/19/2013  04:31:00     -162.726      169.410      -20.067       99.261      115.215       52.592     9852.829    13274.433     2765.903        4.073        1.295      234.903       56.120        0.057      338.240       10.755      865.663
05/19/2013  04:32:00     -176.133      227.325      -35.274      135.718      146.467       72.386    18419.475    21452.448     5239.697        6.452        2.256      287.575       84.370        0.086      338.258       10.785      865.682
05/19/2013  04:33:00     -207.362      294.561      -43.026      122.256      130.958       70.173    14946.625    17149.917     4924.214        8.431        1.851      360.229       72.168        0.040      338.260       10.788      865.717
05/19/2013  04:34:00     -183.690      139.144      -34.448       62.953       93.286       40.557     3963.113     8702.280     1644.886        3.430        0.716      230.442       33.044        0.021      338.336       10.915      865.741
05/19/2013  04:35:00     -145.067       81.140      -33.429       76.028      110.628       48.973     5780.291    12238.607     2398.327        2.458        1.021      166.217       50.203        0.091      338.384       10.996      865.743
05/19/2013  04:36:00     -215.317      -12.659      -22.530       92.063       83.082       53.716     8475.593     6902.661     2885.414        3.264        0.913      215.689       52.922        0.060      338.397       11.017      865.734
05/19/2013  04:37:00     -207.703      115.174      -44.207       82.130       99.179       49.873     6745.330     9836.428     2487.282        3.871        0.953      237.498       60.178        0.064      338.376       10.982      865.755
05/19/2013  04:38:00     -189.706      -59.695      -15.258       95.139       95.181       47.243     9051.512     9059.360     2231.905        3.006        1.017      198.877       23.914        0.014      338.400       11.023      865.741
05/19/2013  04:39:00     -145.642      -21.108      -13.840       61.907       68.327       42.719     3832.534     4668.610     1824.934        1.609        0.516      147.163       22.670        0.024      338.425       11.066      865.740
05/19/2013  04:40:00     -128.271      -26.835      -14.993       67.778       61.947       42.525     4593.837     3837.381     1808.340        1.382        0.512      131.048       39.333        0.090      338.406       11.034      865.762
05/19/2013  04:41:00     -119.242       24.455      -10.542       96.187       44.473       42.648     9251.918     1977.814     1818.856        1.399        0.652      121.724       49.776        0.167      338.409       11.040      865.791
05/19/2013  04:42:00     -177.092       41.733      -12.653       70.100       60.050       38.291     4913.997     3606.061     1466.227        2.162        0.499      181.943       36.047        0.039      338.392       11.011      865.817
05/19/2013  04:43:00      -78.902       15.001       -9.839       49.962       42.159       38.986     2496.181     1777.376     1519.916        0.617        0.290       80.315       20.454        0.065      338.409       11.041      865.815
05/19/2013  04:44:00     -206.360      -78.500      -13.314       99.741       82.721       48.785     9948.231     6842.777     2379.981        3.404        0.959      220.786       30.484        0.019      338.310       10.873      865.808
05/19/2013  04:45:00     -189.674       -9.755      -17.503       70.769       71.481       39.884     5008.235     5109.474     1590.772        2.404        0.585      189.924       24.725        0.017      338.296       10.849      865.820
05/19/2013  04:46:00     -160.250      -50.493        5.621      105.554       85.225       47.893    11141.646     7263.345     2293.709        2.448        1.035      168.017       48.567        0.084      338.286       10.833      865.826
05/19/2013  04:47:00     -105.537       18.684       -2.158       59.904       71.477       37.805     3588.504     5108.931     1429.212        1.081        0.506      107.178       33.593        0.098      338.286       10.834      865.825
05/19/2013  04:48:00     -190.003       76.667      -21.422       57.522       67.631       42.301     3308.817     4574.000     1789.351        2.605        0.484      204.887       28.864        0.020      338.246       10.766      865.816
05/19/2013  04:49:00     -185.897      -44.028      -16.083      127.962       71.236       44.646    16374.190     5074.567     1993.265        3.009        1.172      191.039       42.559        0.050      338.271       10.807      865.788
05/19/2013  04:50:00     -268.312       -5.934      -27.698      110.716       68.891       47.212    12258.030     4745.922     2228.954        4.601        0.962      268.377       49.760        0.034      338.246       10.765      865.780
05/19/2013  04:51:00     -233.619      -25.177      -20.429       98.545      100.036       38.715     9711.086    10007.147     1498.878        3.842        1.061      234.972       37.757        0.026      338.258       10.785      865.759
05/19/2013  04:52:00     -264.508     -101.324       -4.460      167.613       95.383       52.223    28094.111     9097.862     2727.230        6.008        1.996      283.251       62.408        0.049      338.272       10.808      865.734
05/19/2013  04:53:00     -308.636      -42.371      -30.766      147.467       99.039       49.974    21746.526     9808.625     2497.368        6.602        1.703      311.531       54.575        0.031      338.279       10.819      865.740
05/19/2013  04:54:00     -154.270        3.299       -9.375       68.314       52.472       34.536     4666.817     2753.303     1192.729        1.625        0.431      154.306       28.520        0.034      338.300       10.856      865.754
05/19/2013  04:55:00     -122.194      -47.925       -7.137       67.749       87.327       33.825     4589.875     7625.932     1144.097        1.532        0.668      131.256       26.291        0.040      338.318       10.888      865.743
05/19/2013  04:56:00     -141.858      -27.622        0.447       84.324       49.228       28.318     7110.550     2423.432      801.882        1.561        0.517      144.522       39.732        0.076      338.294       10.847      865.735
05/19/2013  04:57:00     -270.108       11.387      -32.490      117.128       58.755       31.925    13719.022     3452.207     1019.179        4.616        0.910      270.348       38.117        0.020      338.260       10.788      865.729
05/19/2013  04:58:00     -227.464      -59.660      -21.893       73.338       93.189       40.341     5378.416     8684.248     1627.376        3.573        0.785      235.158       22.319        0.009      338.305       10.863      865.708
05/19/2013  04:59:00     -203.154     -101.470      -17.249       85.919       55.551       38.691     7382.115     3085.938     1496.973        3.191        0.598      227.085       32.229        0.020      338.292       10.841      865.712
05/19/2013  05:00:00     -248.941      -66.776      -13.893       71.620       53.339       32.935     5129.409     2845.085     1084.702        3.784        0.453      257.742       26.781        0.011      338.228       10.734      865.700
05/19/2013  05:01:00     -257.986      -20.920      -14.520       73.860       51.847       38.412     5455.253     2688.085     1475.514        3.841        0.481      258.833       38.309        0.022      338.210       10.703      865.693
05/19/2013  05:02:00     -163.843      -34.030       -8.628       98.257       62.457       47.479     9654.415     3900.872     2254.250        2.194        0.790      167.339       47.436        0.080      338.225       10.729      865.678
05/19/2013  05:03:00     -232.808      -48.710       -5.551       87.932       68.148       44.942     7732.043     4644.085     2019.745        3.550        0.720      237.849       45.180        0.036      338.203       10.691      865.659
05/19/2013  05:04:00     -226.972      -27.140      -19.732       96.126       88.559       39.019     9240.117     7842.785     1522.478        3.562        0.930      228.589       47.598        0.043      338.191       10.671      865.650
05/19/2013  05:05:00     -177.915        1.633       -3.934       65.415       66.796       30.803     4279.116     4461.676      948.814        2.068        0.484      177.922       30.332        0.029      338.178       10.650      865.649
05/19/2013  05:06:00     -192.018       -4.630       -7.347      114.365       58.842       41.367    13079.314     3462.394     1711.269        2.760        0.913      192.074       52.952        0.076      338.149       10.601      865.653
05/19/2013  05:07:00     -171.292       49.198      -17.151       73.471       76.070       34.444     5397.952     5786.702     1186.397        2.221        0.619      178.217       29.303        0.027      338.101       10.522      865.663
05/19/2013  05:08:00     -202.553      144.188      -31.662       76.265       76.479       45.560     5816.307     5849.083     2075.756        3.828        0.687      248.632       44.282        0.032      338.071       10.472      865.680
05/19/2013  05:09:00     -130.305      102.219      -14.861       90.913       81.599       40.226     8265.216     6658.354     1618.170        2.209        0.827      165.615       21.292        0.017      338.048       10.433      865.692
05/19/2013  05:10:00     -111.191      121.816      -18.430       56.154       72.467       39.265     3153.271     5251.397     1541.771        1.874        0.497      164.932       30.593        0.034      338.046       10.431      865.717
05/19/2013  05:11:00      -80.324       90.753      -24.414       61.587       67.384       23.832     3792.900     4540.646      567.966        1.209        0.445      121.194       23.800        0.039      338.086       10.498      865.743
05/19/2013  05:12:00      -68.738       58.334      -11.898       31.542       56.425       21.626      994.896     3183.832      467.680        0.646        0.232       90.154       16.990        0.036      338.078       10.485      865.770
05/19/2013  05:13:00      -61.871       95.001      -13.643       54.633       54.704       35.712     2984.805     2992.556     1275.329        1.014        0.363      113.372       29.341        0.067      338.098       10.519      865.791
05/19/2013  05:14:00       -6.799      119.383        4.936       31.734       66.277       36.362     1007.051     4392.692     1322.167        1.052        0.336      119.577       34.540        0.083      338.066       10.465      865.804
05/19/2013  05:15:00      -65.986      261.615      -21.497       72.653      123.352       49.843     5278.444    15215.821     2484.326        4.811        1.149      269.808       45.060        0.028      338.020       10.384      865.830
05/19/2013  05:16:00      -88.185      214.185      -20.863       66.857       90.160       38.810     4469.899     8128.771     1506.251        3.409        0.705      231.629       34.724        0.022      337.979       10.316      865.846
05/19/2013  05:17:00      -90.299      238.538      -26.252       63.593       90.795       39.214     4044.069     8243.730     1537.723        3.978        0.691      255.058       40.236        0.025      337.985       10.326      865.861
05/19/2013  05:18:00      -88.433      242.996      -35.315       62.294      101.252       46.900     3880.566    10252.017     2199.585        4.222        0.817      258.588       49.665        0.037      337.978       10.316      865.862
05/19/2013  05:19:00     -179.751      223.372      -32.923       94.800      111.704       42.267     8987.035    12477.832     1786.536        5.327        1.163      286.715       33.848        0.014      337.917       10.209      865.853
05/19/2013  05:20:00     -172.561      274.651      -43.355       86.345       77.098       49.226     7455.375     5944.112     2423.157        6.145        0.791      324.361       50.970        0.025      337.870       10.131      865.869
05/19/2013  05:21:00     -117.550      190.091      -29.693      101.458      145.685       43.861    10293.663    21224.180     1923.755        4.213        1.672      223.501       34.345        0.024      337.899       10.182      865.873
05/19/2013  05:22:00      -99.423      375.056      -49.495       72.485      131.305       50.629     5254.116    17241.083     2563.299        8.903        1.253      388.010       56.477        0.021      337.858       10.111      865.871
05/19/2013  05:23:00     -170.228      236.500      -40.263      100.260       97.104       58.618    10052.047     9429.276     3436.086        5.472        1.146      291.393       48.757        0.028      337.852       10.101      865.887
05/19/2013  05:24:00     -263.201      255.735      -52.862      107.840      141.076       75.964    11629.392    19902.572     5770.595        8.738        1.865      366.981       80.067        0.048      337.775        9.973      865.885
05/19/2013  05:25:00     -132.508      168.716      -31.069       95.812       89.305       54.349     9179.924     7975.306     2953.845        3.354        1.005      214.530       46.807        0.048      337.808       10.029      865.865
05/19/2013  05:26:00     -180.143      148.104      -22.331       82.702       91.750       47.519     6839.620     8418.149     2258.030        3.620        0.876      233.208       41.298        0.031      337.823       10.055      865.863
05/19/2013  05:27:00     -193.165      260.469      -53.159       89.327       80.950       57.881     7979.254     6552.861     3350.247        6.293        0.894      324.279       60.816        0.035      337.765        9.957      865.872
05/19/2013  05:28:00     -214.954      257.474      -42.580       91.285      118.600       61.778     8332.927    14065.988     3816.555        7.026        1.311      335.407       60.195        0.032      337.740        9.916      865.879
05/19/2013  05:29:00     -129.759      231.687      -43.615       56.797      114.418       63.784     3225.935    13091.461     4068.441        4.640        1.019      265.549       54.776        0.043      337.766        9.959      865.897
05/19/2013  05:30:00     -120.656      232.458      -26.669       83.507      116.241       58.597     6973.407    13512.066     3433.592        4.661        1.196      261.906       47.733        0.033      337.763        9.953      865.909
05/19/2013  05:31:00     -158.121      223.892      -29.901       90.857       95.339       57.863     8255.059     9089.486     3348.075        4.835        1.035      274.098       51.542        0.035      337.784        9.990      865.950
05/19/2013  05:32:00     -140.099      195.081      -26.260       98.597       93.686       68.751     9721.313     8777.109     4726.709        4.079        1.161      240.175       66.578        0.077      337.749        9.931      865.972
05/19/2013  05:33:00     -134.116      277.502      -38.164       96.744      104.372       57.280     9359.458    10893.472     3280.970        5.999        1.177      308.212       48.794        0.025      337.734        9.905      865.985
05/19/2013  05:34:00     -154.891      252.732      -34.778       86.441      110.190       52.058     7471.985    12141.769     2710.005        5.569        1.116      296.419       53.688        0.033      337.728        9.894      865.985
05/19/2013  05:35:00     -117.992      198.694      -22.523       74.465       89.784       56.766     5545.029     8061.228     3222.339        3.537        0.841      231.087       42.250        0.033      337.696        9.842      865.992
05/19/2013  05:36:00      -89.940      191.957      -10.178       64.129       81.565       54.891     4112.467     6652.895     3013.033        2.941        0.689      211.983       46.896        0.049      337.699        9.847      865.964
05/19/2013  05:37:00      -95.071      264.195      -22.053       92.559      129.077       60.108     8567.112    16660.757     3612.993        5.408        1.442      280.780       70.215        0.063      337.679        9.813      865.979
05/19/2013  05:38:00     -110.700      300.354      -30.327       86.750      117.200       62.863     7525.565    13735.794     3951.766        6.429        1.261      320.105       58.115        0.033      337.647        9.759      866.013
05/19/2013  05:39:00     -207.506      253.037      -47.197       69.947      112.903       57.255     4892.578    12747.063     3278.183        6.511        1.046      327.241       49.500        0.023      337.647        9.759      866.017
05/19/2013  05:40:00     -150.178      208.272      -32.400       73.818       79.286       44.572     5449.066     6286.336     1986.687        4.035        0.686      256.770       41.975        0.027      337.624        9.720      866.035
05/19/2013  05:41:00     -131.792      319.306      -39.033      132.101      145.434       80.359    17450.677    21150.912     6457.608        8.294        2.253      345.435       70.613        0.042      337.605        9.688      866.053
05/19/2013  05:42:00     -143.374      289.454      -36.621       91.636      105.321       52.439     8397.165    11092.614     2749.798        6.396        1.112      323.017       56.344        0.030      337.591        9.665      866.080
05/19/2013  05:43:00      -73.977      346.140      -43.434       82.888      127.650       51.777     6870.400    16294.574     2680.872        7.650        1.292      353.957       52.352        0.022      337.586        9.655      866.097
05/19/2013  05:44:00     -199.008      318.126      -44.513       90.905      125.321       61.329     8263.630    15705.281     3761.269        8.525        1.387      375.245       54.121        0.021      337.570        9.628      866.143
05/19/2013  05:45:00     -124.424      225.418      -17.237      106.780      128.901       73.032    11402.048    16615.405     5333.708        4.996        1.668      257.478       70.661        0.075      337.560        9.614      866.146
05/19/2013  05:46:00     -114.170      248.413      -23.043       83.987      129.081       57.080     7053.818    16661.938     3258.182        5.112        1.349      273.393       59.517        0.047      337.539        9.577      866.141
05/19/2013  05:47:00     -147.343      188.901      -16.790       77.670       95.863       66.753     6032.660     9189.729     4455.987        3.867        0.984      239.569       63.590        0.070      337.543        9.583      866.143
05/19/2013  05:48:00     -132.922      209.051      -32.130       97.106      109.492       49.418     9429.655    11988.497     2442.129        4.313        1.193      247.731       51.171        0.043      337.560        9.613      866.119
05/19/2013  05:49:00     -136.255      219.294      -25.726       79.258       98.948       44.959     6281.796     9790.636     2021.340        4.270        0.905      258.177       39.052        0.023      337.500        9.512      866.129
05/19/2013  05:50:00     -141.593      148.697      -32.378       88.512       76.028       49.700     7834.290     5780.225     2470.110        2.964        0.804      205.328       43.314        0.045      337.512        9.532      866.155
05/19/2013  05:51:00     -131.154      248.356      -35.768       77.381      117.937       55.848     5987.851    13909.148     3119.031        5.158        1.151      280.859       54.434        0.038      337.473        9.468      866.161
05/19/2013  05:52:00     -116.142      200.812      -10.560       87.791       99.059       62.400     7707.345     9812.728     3893.775        3.767        1.071      231.980       50.898        0.048      337.483        9.484      866.174
05/19/2013  05:53:00     -105.769      332.246      -36.546       76.474      107.956       58.927     5848.344    11654.493     3472.435        7.194        1.049      348.675       49.381        0.020      337.464        9.452      866.180
05/19/2013  05:54:00     -115.894      269.515      -28.286       85.414      107.801       60.647     7295.551    11621.013     3678.068        5.473        1.130      293.377       51.675        0.031      337.457        9.440      866.205
05/19/2013  05:55:00     -146.846      368.734      -47.595      117.451      149.287       73.992    13794.804    22286.611     5474.848       10.067        2.078      396.899       63.066        0.025      337.459        9.444      866.231
05/19/2013  05:56:00     -137.478      197.814      -25.376       85.740      155.737       55.965     7351.270    24254.078     3132.134        4.670        1.737      240.895       67.302        0.078      337.521        9.547      866.233
05/19/2013  05:57:00     -131.965      245.629      -26.129      103.454      124.380       70.738    10702.683    15470.462     5003.929        5.480        1.559      278.834       59.470        0.045      337.493        9.501      866.246
05/19/2013  05:58:00     -119.045      246.167      -17.233      113.329      105.033       66.378    12843.419    11032.003     4406.047        5.167        1.414      273.441       57.432        0.044      337.490        9.494      866.254
05/19/2013  05:59:00     -134.234      223.788      -22.315      120.558      130.668       62.486    14534.144    17074.174     3904.460        5.205        1.776      260.959       74.209        0.081      337.498        9.510      866.278
05/19/2013  06:00:00     -113.381      284.039      -19.552      105.621      159.863       65.755    11155.831    25556.027     4323.681        6.747        2.052      305.832       76.575        0.063      337.495        9.505      866.285
05/19/2013  06:01:00     -162.217      296.778      -41.808       84.112      119.707       64.488     7074.849    14329.879     4158.718        7.085        1.278      338.218       65.383        0.037      337.471        9.463      866.299
05/19/2013  06:02:00      -97.835      247.641      -16.698       73.172      118.636       52.153     5354.133    14074.613     2719.890        4.666        1.107      266.267       46.594        0.031      337.502        9.516      866.310
05/19/2013  06:03:00     -113.688      190.589      -19.119       70.149       74.614       49.578     4920.879     5567.294     2457.971        3.128        0.647      221.921       41.400        0.035      337.508        9.527      866.307
05/19/2013  06:04:00     -131.215      170.164      -31.904       58.599       82.780       34.935     3433.843     6852.583     1220.483        2.935        0.575      214.879       35.064        0.027      337.488        9.492      866.295
05/19/2013  06:05:00     -105.427      207.908      -33.387       71.915      115.035       42.351     5171.754    13233.121     1793.586        3.782        1.010      233.111       37.728        0.026      337.476        9.473      866.297
05/19/2013  06:06:00     -156.138      136.510      -15.076       99.578       78.526       57.657     9915.722     6166.398     3324.293        3.132        0.970      207.398       47.112        0.052      337.522        9.551      866.272
05/19/2013  06:07:00     -142.735      169.220      -23.981       83.719       86.142       46.538     7008.819     7420.477     2165.784        3.309        0.830      221.379       41.223        0.035      337.486        9.490      866.255
05/19/2013  06:08:00     -139.989      161.637      -20.071       86.532       78.039       42.850     7487.839     6090.104     1836.130        3.077        0.771      213.831       29.605        0.019      337.499        9.512      866.233
05/19/2013  06:09:00     -177.635      169.683      -27.077       92.642      103.536       67.928     8582.526    10719.608     4614.261        4.249        1.196      245.656       60.681        0.061      337.460        9.445      866.222
05/19/2013  06:10:00     -163.249      210.361      -36.541       76.836      109.076       51.741     5903.704    11897.605     2677.171        4.635        1.024      266.274       45.514        0.029      337.450        9.430      866.227
05/19/2013  06:11:00     -156.928      143.672      -19.250       82.878       94.320       55.695     6868.783     8896.217     3101.922        3.225        0.943      212.763       55.654        0.068      337.454        9.437      866.221
05/19/2013  06:12:00     -163.200      265.923      -51.480       93.330       74.556       50.008     8710.498     5558.611     2500.781        5.838        0.838      312.009       46.671        0.022      337.434        9.402      866.231
05/19/2013  06:13:00     -188.917      264.602      -51.626       88.989       71.304       50.109     7919.125     5084.252     2510.927        6.194        0.776      325.121       48.630        0.022      337.445        9.420      866.246
05/19/2013  06:14:00     -119.096      249.329      -15.499       65.134      104.385       55.126     4242.441    10896.202     3038.925        4.738        0.909      276.313       52.608        0.036      337.456        9.438      866.259
05/19/2013  06:15:00     -101.096      149.352      -22.822       69.765       84.133       40.771     4867.114     7078.359     1662.268        2.332        0.680      180.351       47.529        0.069      337.506        9.525      866.261
05/19/2013  06:16:00     -158.012      253.111      -39.863      114.589      116.706       62.225    13130.727    13620.198     3871.896        6.062        1.531      298.384       69.082        0.054      337.466        9.455      866.260
05/19/2013  06:17:00     -192.459      217.069      -35.247       74.011       89.211       48.876     5477.613     7958.516     2388.820        5.061        0.791      290.103       44.170        0.023      337.431        9.396      866.278
05/19/2013  06:18:00     -161.176      218.283      -31.060       68.794       96.834       54.796     4732.612     9376.782     3002.557        4.585        0.856      271.339       52.071        0.037      337.453        9.433      866.295
05/19/2013  06:19:00     -173.587      173.083      -34.724       83.170       85.341       49.706     6917.248     7283.028     2470.691        3.898        0.834      245.133       48.081        0.038      337.451        9.429      866.297
05/19/2013  06:20:00     -212.607      277.747      -57.798      125.637      117.579       63.887    15784.613    13824.784     4081.524        7.968        1.685      349.779       71.941        0.042      337.419        9.376      866.302
05/19/2013  06:21:00      -44.909      158.857       -1.179       80.126       96.240       50.066     6420.241     9262.197     2506.588        2.272        0.909      165.083       47.867        0.084      337.571        9.632      866.303
05/19/2013  06:22:00     -181.186      234.558      -41.540       89.263      100.686       62.219     7967.851    10137.604     3871.223        5.577        1.099      296.388       59.996        0.041      337.449        9.428      866.311
05/19/2013  06:23:00     -238.396      242.248      -43.966      137.180      158.546       66.491    18818.310    25136.807     4421.061        8.290        2.419      339.877       68.021        0.040      337.439        9.411      866.326
05/19/2013  06:24:00     -174.736      191.458      -30.665       94.898      151.941       61.805     9005.589    23085.982     3819.813        5.201        1.796      259.208       77.868        0.090      337.472        9.467      866.309
05/19/2013  06:25:00     -209.462      274.156      -53.597       98.027      104.178       59.911     9609.282    10852.987     3589.329        7.298        1.203      345.016       56.357        0.027      337.424        9.385      866.309
05/19/2013  06:26:00     -211.486      246.530      -55.468       75.012       92.321       52.637     5626.776     8523.145     2770.636        6.275        0.846      324.813       43.481        0.018      337.460        9.445      866.304
05/19/2013  06:27:00     -200.898      350.655      -42.361       86.221      171.261       54.305     7434.120    29330.484     2948.995       10.241        1.986      404.127       63.596        0.025      337.399        9.343      866.316
05/19/2013  06:28:00     -199.030      211.260      -42.861      128.192      114.554       64.307    16433.122    13122.523     4135.390        5.988        1.685      290.248       65.837        0.051      337.444        9.419      866.324
05/19/2013  06:29:00     -138.044      183.115      -23.949      106.130      108.204       66.087    11263.608    11708.011     4367.529        4.024        1.367      229.319       65.997        0.083      337.501        9.515      866.330
05/19/2013  06:30:00     -172.278      253.279      -28.796       95.022      122.802       65.949     9029.182    15080.320     4349.223        6.155        1.423      306.317       52.557        0.029      337.466        9.454      866.355
05/19/2013  06:31:00     -197.633      212.259      -39.894       84.590       95.434       53.531     7155.526     9107.710     2865.557        5.241        0.956      290.022       42.951        0.022      337.488        9.493      866.367
05/19/2013  06:32:00     -152.574      268.794      -36.111       98.935      115.610       63.771     9788.155    13365.610     4066.726        6.202        1.361      309.077       73.329        0.056      337.527        9.558      866.395
05/19/2013  06:33:00     -154.446      231.626      -26.009       79.113      103.741       62.161     6258.933    10762.187     3863.965        4.953        1.044      278.396       55.082        0.039      337.515        9.538      866.413
05/19/2013  06:34:00     -238.292      240.078      -53.929      115.404      113.884       69.719    13318.166    12969.650     4860.806        7.423        1.557      338.261       71.788        0.045      337.531        9.563      866.443
05/19/2013  06:35:00     -167.915      289.434      -34.987       97.407      128.117       60.130     9488.036    16414.007     3615.575        7.135        1.476      334.616       62.812        0.035      337.569        9.627      866.464
05/19/2013  06:36:00     -221.494      247.513      -48.741       85.388      140.282       60.707     7291.113    19679.064     3685.319        7.167        1.533      332.148       50.262        0.023      337.540        9.579      866.492
05/19/2013  06:37:00     -137.480      225.196      -41.630       75.981       77.695       44.441     5773.160     6036.505     1974.974        4.256        0.689      263.845       38.410        0.021      337.585        9.655      866.508
05/19/2013  06:38:00     -111.674      138.824      -19.143       85.829       78.949       40.054     7366.575     6232.995     1604.344        2.365        0.760      178.166       40.839        0.053      337.660        9.782      866.511
05/19/2013  06:39:00      -91.707      103.774       -5.103       65.993       69.783       42.067     4355.058     4869.684     1769.595        1.510        0.550      138.489       37.153        0.072      337.794       10.009      866.510
05/19/2013  06:40:00     -135.003      208.480      -18.652      101.299      121.562       57.459    10261.456    14777.305     3301.572        4.518        1.417      248.375       64.145        0.067      337.643        9.753      866.505
05/19/2013  06:41:00     -143.756      148.457      -25.830       81.479       90.111       52.756     6638.893     8119.966     2783.201        3.045        0.877      206.652       38.640        0.035      337.612        9.701      866.511
05/19/2013  06:42:00     -123.734      184.060      -32.448       73.351       91.743       53.729     5380.437     8416.781     2886.808        3.346        0.834      221.784       48.808        0.048      337.626        9.725      866.502
05/19/2013  06:43:00     -149.754      159.595      -41.241       93.634       98.927       53.118     8767.415     9786.614     2821.480        3.548        1.069      218.853       67.630        0.095      337.632        9.733      866.489
05/19/2013  06:44:00     -111.972      156.641      -23.508       79.615       96.411       46.759     6338.530     9295.033     2186.401        2.772        0.891      192.547       48.879        0.064      337.659        9.782      866.477
05/19/2013  06:45:00     -138.263       78.789      -18.216       99.867       99.916       55.939     9973.427     9983.129     3129.176        2.437        1.154      159.137       70.669        0.197      337.759        9.950      866.483
05/19/2013  06:46:00     -150.647      214.326      -31.083       90.370       74.998       50.136     8166.762     5624.763     2513.631        4.295        0.815      261.974       47.042        0.032      337.646        9.758      866.491
05/19/2013  06:47:00      -92.004      177.874      -14.818       66.083       74.172       45.657     4366.966     5501.435     2084.580        2.614        0.598      200.260       40.917        0.042      337.698        9.845      866.492
05/19/2013  06:48:00      -58.455      128.597        0.951       77.457       73.869       46.325     5999.636     5456.690     2145.978        1.678        0.680      141.259       57.363        0.165      337.904       10.193      866.495
05/19/2013  06:49:00     -159.049      244.594      -30.534       72.820      116.932       53.361     5302.748    13673.086     2847.415        5.393        1.091      291.758       48.289        0.027      337.690        9.832      866.520
05/19/2013  06:50:00     -133.930      217.655      -21.249       89.165       81.992       51.023     7950.462     6722.646     2603.346        4.152        0.864      255.560       51.478        0.041      337.659        9.780      866.537
05/19/2013  06:51:00     -141.442      182.947      -20.032      102.125       77.235       52.829    10429.492     5965.268     2790.872        3.653        0.959      231.248       51.694        0.050      337.714        9.871      866.562
05/19/2013  06:52:00     -106.832      113.998      -21.171       77.956       60.469       48.154     6077.155     3656.537     2318.851        1.845        0.603      156.232       36.976        0.056      337.805       10.026      866.579
05/19/2013  06:53:00     -201.706      205.785      -39.713      106.249       88.302       62.943    11288.847     7797.236     3961.804        5.382        1.152      288.154       63.869        0.049      337.671        9.798      866.586
05/19/2013  06:54:00     -205.706      250.951      -52.451      102.269       94.643       56.054    10459.030     8957.353     3142.000        6.530        1.128      324.487       63.895        0.039      337.598        9.677      866.585
05/19/2013  06:55:00     -166.512      180.228      -47.101       87.600       87.684       47.229     7673.839     7688.523     2230.621        4.001        0.880      245.374       34.731        0.020      337.637        9.743      866.596
05/19/2013  06:56:00     -124.417      233.413      -29.166       73.494      109.750       48.709     5401.360    12045.066     2372.565        4.531        0.991      264.502       40.397        0.023      337.677        9.810      866.614
05/19/2013  06:57:00     -119.153      133.977      -28.058       62.004       99.581       38.180     3844.457     9916.396     1457.726        2.407        0.761      179.296       45.365        0.064      337.715        9.874      866.642
05/19/2013  06:58:00     -142.876      233.827      -33.472       78.765      120.300       60.486     6203.902    14472.203     3658.496        5.027        1.217      274.023       45.578        0.028      337.655        9.772      866.654
05/19/2013  06:59:00     -159.320      173.205      -27.452      106.150      115.056       64.854    11267.882    13237.936     4206.000        4.242        1.436      235.336       72.407        0.095      337.705        9.857      866.674
05/19/2013  07:00:00      -97.003      154.892      -15.117       65.935       81.607       45.572     4347.461     6659.764     2076.765        2.335        0.654      182.760       42.881        0.055      337.778        9.980      866.675
05/19/2013  07:01:00     -156.418      231.814      -23.872      106.712      124.018       68.259    11387.467    15380.393     4659.229        5.509        1.571      279.650       65.873        0.055      337.725        9.891      866.700
05/19/2013  07:02:00     -136.426      260.885      -21.742       55.353      144.608       51.158     3064.002    20911.491     2617.192        5.686        1.330      294.403       47.396        0.026      337.770        9.966      866.733
05/19/2013  07:03:00     -146.153      181.968      -20.274       57.835       94.720       48.294     3344.875     8971.874     2332.330        3.476        0.732      233.395       38.989        0.028      337.847       10.097      866.737
05/19/2013  07:04:00      -74.839      216.920      -12.915       78.891       98.317       47.204     6223.751     9666.169     2228.256        3.547        0.906      229.467       44.631        0.038      337.913       10.205      866.750
05/19/2013  07:05:00     -164.854      157.821      -31.569       85.866      126.301       55.959     7372.993    15952.060     3131.461        3.976        1.323      228.220       47.491        0.043      337.832       10.068      866.748
05/19/2013  07:06:00      -88.151      194.182      -10.549       78.728      110.803       62.968     6198.128    12277.269     3964.999        3.401        1.122      213.254       62.796        0.087      337.935       10.243      866.746
05/19/2013  07:07:00      -90.571      112.140      -25.635       77.212       75.772       50.024     5961.666     5741.434     2502.366        1.782        0.710      144.147       44.716        0.096      338.018       10.384      866.758
05/19/2013  07:08:00     -114.574      218.087      -17.887       84.381      103.253       49.169     7120.212    10661.198     2417.626        4.060        1.010      246.352       39.321        0.025      337.928       10.231      866.759
05/19/2013  07:09:00      -56.522      185.108      -12.277       54.531      108.692       42.716     2973.651    11814.055     1824.692        2.711        0.831      193.545       43.962        0.052      338.038       10.415      866.766
05/19/2013  07:10:00     -154.768      245.098      -34.732      101.039      100.560       52.509    10208.965    10112.342     2757.174        5.415        1.154      289.873       63.597        0.048      337.883       10.154      866.767
05/19/2013  07:11:00     -108.453      121.207       -3.166       89.450       81.304       55.849     8001.380     6610.338     3119.118        2.209        0.887      162.644       48.151        0.088      338.018       10.382      866.765
05/19/2013  07:12:00      -75.780      169.066       -5.264       76.275       81.870       49.450     5817.839     6702.617     2445.325        2.466        0.748      185.272       47.733        0.066      338.021       10.387      866.773
05/19/2013  07:13:00     -160.388      125.198      -19.037       82.807      113.225       57.840     6857.038    12819.994     3345.444        3.239        1.151      203.467       47.401        0.054      337.971       10.302      866.768
05/19/2013  07:14:00     -170.447      173.280      -28.771      102.722      125.657       62.070    10551.881    15789.805     3852.729        4.504        1.510      243.060       76.357        0.099      337.891       10.169      866.780
05/19/2013  07:15:00     -246.859      100.358      -23.260      155.888       74.733       46.166    24301.105     5585.082     2131.287        5.178        1.601      266.479       48.052        0.033      337.867       10.128      866.771
05/19/2013  07:16:00     -108.025      307.587      -16.195       73.684      156.512       60.859     5429.287    24496.069     3703.772        7.008        1.681      326.005       68.047        0.044      337.894       10.174      866.788
05/19/2013  07:17:00     -114.443      147.241      -19.416       72.811      117.939       47.997     5301.371    13909.713     2303.757        2.833        1.076      186.486       56.914        0.093      338.013       10.375      866.794
05/19/2013  07:18:00     -122.574      121.632       -8.496       83.845       80.361       52.877     7029.935     6457.848     2795.937        2.308        0.814      172.681       45.882        0.071      338.027       10.397      866.796
05/19/2013  07:19:00     -189.494      225.885      -38.349       75.141       76.058       45.412     5646.151     5784.871     2062.271        5.095        0.675      294.842       37.440        0.016      337.893       10.169      866.799
05/19/2013  07:20:00     -155.761      240.819      -36.038       75.316       97.136       58.828     5672.534     9435.307     3460.740        5.106        0.928      286.802       56.679        0.039      337.919       10.215      866.799
05/19/2013  07:21:00     -141.009      173.814      -17.287      111.878      112.181       54.998    12516.678    12584.624     3024.827        3.925        1.406      223.819       61.792        0.076      337.928       10.232      866.805
05/19/2013  07:22:00     -110.930      204.973      -18.442      109.687      111.973       59.839    12031.285    12538.010     3580.675        4.140        1.407      233.065       51.996        0.050      337.992       10.338      866.795
05/19/2013  07:23:00     -126.080      170.547      -15.149       86.041      102.083       49.490     7403.045    10420.949     2449.269        3.274        1.014      212.091       41.547        0.038      337.989       10.334      866.799
05/19/2013  07:24:00     -127.755      206.362      -25.489       79.659      105.628       47.587     6345.624    11157.294     2264.514        3.966        0.988      242.707       50.856        0.044      337.939       10.249      866.800
05/19/2013  07:25:00      -63.658      127.681       -3.868       51.092       61.201       44.948     2610.363     3745.621     2020.287        1.437        0.419      142.671       42.562        0.089      338.278       10.821      866.804
05/19/2013  07:26:00     -117.794      163.606      -19.666       64.806       95.308       44.713     4199.851     9083.577     1999.219        2.815        0.764      201.599       40.796        0.041      338.118       10.550      866.796
05/19/2013  07:27:00     -104.573      192.788      -17.393       74.498       85.905       47.527     5549.938     7379.719     2258.856        3.179        0.759      219.323       47.457        0.047      338.056       10.446      866.786
05/19/2013  07:28:00      -27.946      296.734      -30.034       68.534      115.705       53.351     4696.938    13387.566     2846.361        5.533        1.047      298.048       55.824        0.035      338.129       10.569      866.783
05/19/2013  07:29:00      -78.117      205.036      -13.930       71.585       99.117       47.140     5124.427     9824.245     2222.151        3.275        0.859      219.413       48.146        0.048      338.176       10.647      866.785
05/19/2013  07:30:00      -46.821      278.240      -18.333       56.915       95.772       48.484     3239.319     9172.351     2350.663        4.735        0.738      282.152       45.212        0.026      338.192       10.674      866.794
05/19/2013  07:31:00      -62.360      258.659      -19.367       63.717      127.529       49.287     4059.890    16263.646     2429.233        4.696        1.138      266.070       54.832        0.042      338.127       10.565      866.806
05/19/2013  07:32:00      -72.095      349.237      -25.792       65.598      115.924       55.152     4303.139    13438.274     3041.720        7.430        1.039      356.601       48.179        0.018      338.056       10.445      866.805
05/19/2013  07:33:00      -79.955      127.352       -2.642       71.355       74.553       48.509     5091.517     5558.156     2353.127        1.781        0.650      150.371       45.617        0.092      338.269       10.805      866.808
05/19/2013  07:34:00      -93.600      244.033      -25.083      108.063      116.065       57.269    11677.646    13470.984     3279.736        4.868        1.421      261.367       71.104        0.074      338.118       10.550      866.804
05/19/2013  07:35:00     -146.376      153.735      -23.196       82.327       91.700       52.610     6777.795     8408.933     2767.849        3.177        0.898      212.274       53.893        0.064      338.031       10.403      866.825
05/19/2013  07:36:00      -90.686      197.637      -25.008       79.708       98.648       54.299     6353.322     9731.474     2948.389        3.347        0.952      217.450       55.500        0.065      338.125       10.562      866.835
05/19/2013  07:37:00     -164.491      209.306      -33.247      100.088       75.230       45.686    10017.601     5659.535     2087.212        4.486        0.888      266.207       43.826        0.027      338.019       10.382      866.851
05/19/2013  07:38:00     -122.121      187.464      -21.482      108.687       83.616       46.186    11812.858     6991.627     2133.157        3.572        1.047      223.733       43.808        0.038      338.055       10.443      866.851
05/19/2013  07:39:00      -87.557      192.760      -10.018       92.098       93.154       56.157     8482.021     8677.756     3153.652        3.261        1.016      211.714       50.979        0.058      338.198       10.686      866.849
05/19/2013  07:40:00      -93.293      217.088      -19.634       75.227       82.288       50.687     5659.075     6771.389     2569.124        3.560        0.750      236.286       47.762        0.041      338.207       10.699      866.846
05/19/2013  07:41:00      -23.389      145.066       -6.617       48.947       72.802       44.763     2395.834     5300.067     2003.753        1.567        0.485      146.939       42.884        0.085      338.465       11.136      866.857
05/19/2013  07:42:00      -34.451      170.057        0.543       51.126       73.355       46.223     2613.874     5380.985     2136.551        2.012        0.507      173.511       31.998        0.034      338.438       11.089      866.875
05/19/2013  07:43:00      -38.978      203.597      -20.142       67.271       88.534       38.428     4525.444     7838.350     1476.678        2.861        0.692      207.294       37.263        0.032      338.280       10.822      866.897
05/19/2013  07:44:00      -41.697      122.258        8.023       46.727       85.718       34.018     2183.435     7347.508     1157.214        1.372        0.534      129.173       41.310        0.102      338.543       11.265      866.930
05/19/2013  07:45:00      -23.952      136.406       -3.709       49.292       91.125       40.815     2429.711     8303.740     1665.840        1.579        0.620      138.493       45.852        0.110      338.608       11.374      866.933
05/19/2013  07:46:00      -34.010      235.473      -16.270       43.979      119.153       40.203     1934.174    14197.498     1616.244        3.730        0.887      237.916       47.091        0.039      338.446       11.102      866.940
05/19/2013  07:47:00        0.701      205.115      -17.779       44.949       99.139       46.129     2020.443     9828.545     2127.909        2.818        0.699      205.116       48.082        0.055      338.336       10.916      866.916
05/19/2013  07:48:00       -5.770      212.083      -29.667       51.271       70.204       31.615     2628.675     4928.663      999.507        2.722        0.428      212.162       35.113        0.027      338.366       10.966      866.915
05/19/2013  07:49:00      -20.390      132.126        4.558       51.071       69.522       38.939     2608.254     4833.369     1516.243        1.342        0.448      133.690       39.175        0.086      338.815       11.723      866.904
05/19/2013  07:50:00      -47.979      214.341      -10.617       67.769      164.988       54.134     4592.687    27221.190     2930.492        4.154        1.737      219.645       71.401        0.106      338.571       11.310      866.905
05/19/2013  07:51:00      -82.625      259.178      -15.669       58.497       80.237       44.994     3421.855     6437.980     2024.449        4.306        0.594      272.030       45.992        0.029      338.226       10.729      866.921
05/19/2013  07:52:00      -30.856      199.346      -11.932       53.513       76.112       42.650     2863.680     5793.107     1819.007        2.565        0.524      201.719       42.384        0.044      338.455       11.115      866.918
05/19/2013  07:53:00      -81.288      171.680      -18.966       74.094       91.732       37.862     5489.971     8414.792     1433.514        2.589        0.767      189.952       33.551        0.031      338.325       10.898      866.938
05/19/2013  07:54:00      -34.663      142.045        2.538       64.865       89.948       55.122     4207.444     8090.602     3038.426        1.836        0.767      146.214       48.251        0.109      338.654       11.452      866.948
05/19/2013  07:55:00      -76.108      193.734      -20.312       76.612      103.444       44.086     5869.324    10700.592     1943.571        3.112        0.926      208.148       36.563        0.031      338.361       10.957      866.956
05/19/2013  07:56:00      -82.006      152.153      -12.160       78.151       98.319       43.496     6107.545     9666.718     1891.926        2.384        0.883      172.845       32.215        0.035      338.322       10.892      866.947
05/19/2013  07:57:00       -8.632       40.063       41.545       41.793       47.776       40.593     1746.682     2282.544     1647.814        0.454        0.284       40.982       36.579        0.797      338.914       11.890      866.944
05/19/2013  07:58:00     -101.266       -9.027        4.484       86.845       42.424       43.589     7541.981     1799.796     1900.027        1.080        0.562      101.667       37.108        0.133      338.557       11.287      866.944
05/19/2013  07:59:00      -60.284       65.232       -9.087       41.213       51.697       30.694     1698.510     2672.558      942.126        0.664        0.266       88.822       24.859        0.078      338.662       11.466      866.938
05/19/2013  08:00:00      -92.692        3.442       -6.259       59.390       62.455       29.810     3527.229     3900.669      888.618        0.848        0.416       92.756       27.132        0.086      338.564       11.301      866.940
05/19/2013  08:01:00     -124.079       32.082       -4.784       95.308       82.840       49.192     9083.687     6862.462     2419.824        1.740        0.918      128.159       51.871        0.164      338.449       11.108      866.926
05/19/2013  08:02:00        7.046      269.687      -27.578       66.046      154.415       47.616     4362.081    23844.133     2267.264        5.200        1.524      269.779       61.079        0.051      338.516       11.218      866.930
05/19/2013  08:03:00      -32.789      232.261      -22.579       47.746       94.632       35.994     2279.725     8955.259     1295.554        3.403        0.627      234.564       45.644        0.038      338.407       11.035      866.942
05/19/2013  08:04:00      -40.210      156.149       -2.167       61.381       82.824       41.660     3767.682     6859.805     1735.579        1.918        0.618      161.243       42.833        0.071      338.799       11.696      866.948
05/19/2013  08:05:00      -37.220       65.380        0.327       45.347       58.956       37.292     2056.330     3475.865     1390.725        0.629        0.346       75.232       28.425        0.143      338.860       11.800      866.940
05/19/2013  08:06:00      -59.165       91.319       -2.481       49.719       52.405       35.863     2471.951     2746.298     1286.129        0.917        0.325      108.810       33.474        0.095      338.797       11.694      866.947
05/19/2013  08:07:00     -133.143      149.029      -30.830       69.926       58.372       35.391     4889.671     3407.334     1252.513        2.522        0.477      199.842       35.123        0.031      338.374       10.980      866.949
05/19/2013  08:08:00      -82.818      111.106       -2.834       73.707       70.738       47.388     5432.784     5003.893     2245.612        1.594        0.634      138.576       40.446        0.085      338.697       11.525      866.940
05/19/2013  08:09:00     -104.402       96.437      -24.045       45.839       74.255       35.822     2101.198     5513.750     1283.198        1.484        0.445      142.127       30.186        0.045      338.482       11.162      866.931
05/19/2013  08:10:00      -92.598      140.622      -15.382       59.388       62.481       45.799     3526.895     3903.829     2097.535        1.906        0.476      168.372       40.743        0.059      338.497       11.189      866.923
05/19/2013  08:11:00      -35.456        3.929        7.676       31.166       37.419       24.621      971.327     1400.175      606.198        0.215        0.149       35.673       22.476        0.397      338.672       11.485      866.901
05/19/2013  08:12:00      -17.587       84.243       17.792       31.402       70.172       34.347      986.096     4924.099     1179.692        0.740        0.354       86.060       33.342        0.150      339.325       12.583      866.898
05/19/2013  08:13:00     -115.461       41.074      -17.318       51.488       46.950       37.697     2650.965     2204.281     1421.041        1.080        0.314      122.549       27.722        0.051      338.463       11.130      866.890
05/19/2013  08:14:00       15.624      138.466       -8.224       59.402       68.620       48.016     3528.562     4708.762     2305.537        1.501        0.527      139.345       40.033        0.083      339.056       12.127      866.897
05/19/2013  08:15:00       10.166      110.169       -0.991       38.572       73.797       38.889     1487.803     5446.053     1512.385        1.034        0.422      110.637       40.521        0.134      339.014       12.057      866.909
05/19/2013  08:16:00       66.743      105.041       20.219       85.278       64.688       46.696     7272.275     4184.532     2180.540        1.476        0.682      124.451       40.735        0.107      339.035       12.092      866.915
05/19/2013  08:17:00       61.047      208.434      -24.290       95.476      111.957       49.632     9115.580    12534.292     2463.382        3.593        1.206      217.189       60.856        0.079      338.817       11.722      866.933
05/19/2013  08:18:00      -17.713      144.062        1.871       59.730       84.059       44.466     3567.644     7065.996     1977.253        1.684        0.631      145.146       42.883        0.087      338.823       11.735      866.944
05/19/2013  08:19:00       32.521      142.552        0.957       55.535       77.876       45.022     3084.092     6064.705     2026.992        1.628        0.559      146.215       46.320        0.100      338.997       12.029      866.943
05/19/2013  08:20:00      -17.012      198.725      -10.406       67.527       74.669       46.902     4559.911     5575.461     2199.844        2.611        0.617      199.452       52.736        0.070      338.627       11.404      866.944
05/19/2013  08:21:00       87.124       64.896        7.061       49.782       37.638       37.711     2478.232     1416.626     1422.086        0.858        0.266      108.637       19.221        0.031      338.710       11.546      866.925
05/19/2013  08:22:00       24.407       45.391       13.104       51.270       44.353       28.841     2628.599     1967.215      831.801        0.413        0.271       51.537       26.388        0.262      338.875       11.825      866.925
05/19/2013  08:23:00      -82.237       74.995      -11.783       64.828       70.295       41.862     4202.621     4941.369     1752.390        1.171        0.545      111.298       54.808        0.243      338.741       11.598      866.928
05/19/2013  08:24:00      -89.809      -11.217        8.525       65.322       65.228       37.633     4266.909     4254.718     1416.245        0.910        0.497       90.506       30.895        0.117      338.876       11.826      866.911
05/19/2013  08:25:00      -54.023      257.326      -31.098       51.210       92.866       42.271     2622.432     8624.172     1786.870        4.157        0.652      262.936       38.105        0.021      338.581       11.327      866.933
05/19/2013  08:26:00      -19.531      105.055       12.773       49.417       65.787       40.814     2442.057     4327.983     1665.760        1.001        0.422      106.855       44.988        0.177      338.962       11.971      866.940
05/19/2013  08:27:00      -57.082      156.323        2.199       66.001       92.309       51.634     4356.115     8520.956     2666.038        2.162        0.777      166.419       57.649        0.120      338.845       11.773      866.939
05/19/2013  08:28:00       11.281      183.152      -12.299       52.273       76.201       52.092     2732.481     5806.622     2713.610        2.254        0.563      183.499       40.409        0.048      338.787       11.674      866.937
05/19/2013  08:29:00       15.918      104.765       18.325       48.140      106.021       50.831     2317.415    11240.474     2583.753        1.385        0.807      105.968       60.327        0.324      339.080       12.167      866.937
05/19/2013  08:30:00      -24.176      239.919      -11.547       51.204       89.116       47.017     2621.900     7941.620     2210.639        3.552        0.639      241.134       45.193        0.035      338.787       11.674      866.949
05/19/2013  08:31:00     -166.213       97.100      -24.801       74.263       74.532       38.850     5514.955     5555.016     1509.312        2.512        0.629      192.497       45.753        0.056      338.565       11.300      866.955
05/19/2013  08:32:00     -141.647       57.122      -11.066       99.905       49.015       43.623     9980.946     2402.470     1903.009        1.886        0.714      152.731       53.435        0.122      338.783       11.668      866.947
05/19/2013  08:33:00     -103.800       21.091      -21.552       70.795       42.831       38.471     5011.923     1834.488     1480.047        1.000        0.416      105.921       30.511        0.083      338.623       11.400      866.950
05/19/2013  08:34:00       29.425       20.782       10.254       46.587       57.383       35.706     2170.334     3292.832     1274.937        0.407        0.337       36.024       29.045        0.650      339.194       12.361      866.949
05/19/2013  08:35:00       85.229       65.745       33.579       64.008       41.258       38.642     4097.004     1702.246     1493.180        1.000        0.365      107.641       26.911        0.063      338.986       12.010      866.961
05/19/2013  08:36:00        5.427      104.121       32.208       48.859       58.311       47.211     2387.225     3400.210     2228.835        0.996        0.401      104.262       37.438        0.129      339.251       12.457      866.971
05/19/2013  08:37:00       46.289       74.320       22.775       69.218       45.007       39.121     4791.091     2025.671     1530.419        0.826        0.417       87.556       30.321        0.120      339.295       12.531      866.985
05/19/2013  08:38:00       75.804       91.518       18.319       64.992       57.984       40.161     4223.921     3362.146     1612.916        1.183        0.460      118.835       28.626        0.058      338.982       12.004      866.966
05/19/2013  08:39:00       27.414       57.458       30.910       64.122       67.946       51.875     4111.666     4616.704     2691.011        0.821        0.571       63.662       46.649        0.537      339.226       12.414      866.971
05/19/2013  08:40:00       91.182       76.043       65.387       93.072       77.121       81.445     8662.331     5947.648     6633.337        1.980        1.062      118.730       35.711        0.090      339.118       12.232      866.944
05/19/2013  08:41:00        5.645      126.458       -2.058       40.729       79.353       41.178     1658.822     6296.827     1695.601        1.284        0.483      126.584       44.337        0.123      339.170       12.320      866.948
05/19/2013  08:42:00       88.353      106.362        2.601       97.600       63.467       46.295     9525.707     4028.098     2143.223        1.741        0.785      138.272       34.771        0.063      339.193       12.359      866.931
05/19/2013  08:43:00      145.187      110.415       13.892       81.225       82.338       72.130     6597.523     6779.607     5202.732        2.602        0.929      182.403       52.295        0.082      339.064       12.139      866.930
05/19/2013  08:44:00      126.143       76.427       10.195       75.378       58.083       36.610     5681.808     3373.674     1340.281        1.612        0.520      147.490       28.614        0.038      339.331       12.591      866.930
05/19/2013  08:45:00      158.593       90.815       27.552      107.205      101.328       55.801    11492.809    10267.290     3113.759        2.951        1.244      182.754       20.108        0.012      339.265       12.480      866.938
05/19/2013  08:46:00      234.563      152.715       64.692       84.065       64.215       56.110     7066.926     4123.590     3148.311        4.843        0.717      279.896       42.614        0.023      339.037       12.093      866.932
05/19/2013  08:47:00      183.722      113.311       40.534      102.948       84.688       49.651    10598.311     7172.083     2465.205        3.423        1.012      215.855       42.230        0.038      338.976       11.992      866.949
05/19/2013  08:48:00       86.066       79.232       24.789       88.477       56.894       52.974     7828.239     3236.984     2806.270        1.408        0.694      116.983       21.072        0.032      339.417       12.734      866.956
05/19/2013  08:49:00      114.877       84.440        4.464       38.806       30.415       37.551     1505.870      925.072     1410.105        1.209        0.192      142.572       21.628        0.023      339.175       12.330      866.950
05/19/2013  08:50:00      108.537       91.174        8.782       88.733       45.630       51.509     7873.632     2082.060     2653.151        1.639        0.630      141.750       35.957        0.064      339.134       12.258      866.959
05/19/2013  08:51:00      191.830      133.945       18.440      109.316       70.057       63.403    11950.020     4907.923     4019.893        3.797        1.044      233.966       49.705        0.045      339.082       12.169      866.966
05/19/2013  08:52:00      -21.502      187.516      -20.668       84.470      158.163       45.136     7135.261    25015.634     2037.237        3.511        1.709      188.745       43.366        0.053      339.233       12.425      866.970
05/19/2013  08:53:00       63.194      178.072       -8.095       82.996      123.201       77.166     6888.260    15178.528     5954.667        3.189        1.401      188.953       70.249        0.138      339.360       12.638      866.984
05/19/2013  08:54:00       69.696      121.122       22.701       69.630       99.714       78.574     4848.396     9942.914     6173.934        2.050        1.048      139.743       73.453        0.276      339.255       12.461      866.984
05/19/2013  08:55:00      168.392       91.936       22.166       77.859       56.997       51.896     6062.099     3248.659     2693.146        2.465        0.600      191.854       35.481        0.034      339.078       12.164      866.982
05/19/2013  08:56:00       47.853       76.541       41.813       70.113       49.747       43.228     4915.764     2474.733     1868.690        0.958        0.463       90.269       24.184        0.072      339.019       12.066      866.965
05/19/2013  08:57:00       -0.004      101.828       -0.697       47.511       55.934       37.632     2257.327     3128.626     1416.164        0.858        0.340      101.828       24.521        0.058      339.156       12.296      866.953
05/19/2013  08:58:00       -4.193      111.667        1.536       26.855       96.480       37.351      721.176     9308.472     1395.118        1.195        0.571      111.746       52.048        0.217      339.406       12.717      866.956
05/19/2013  08:59:00      -19.464      167.660      -10.500       48.704      121.542       38.736     2372.035    14772.365     1500.478        2.362        0.932      168.786       47.676        0.080      339.350       12.621      866.941
05/19/2013  09:00:00      -62.366      168.139      -18.061       51.464       98.239       38.104     2648.586     9650.959     1451.915        2.312        0.688      179.333       43.087        0.058      339.210       12.387      866.927
05/19/2013  09:01:00       43.236      175.023       -3.257       88.369      139.126       60.794     7809.040    19356.044     3695.929        3.168        1.543      180.284       67.429        0.140      339.347       12.617      866.936
05/19/2013  09:02:00       28.199      106.855       10.079       78.379       80.528       45.069     6143.239     6484.733     2031.210        1.348        0.733      110.513       45.012        0.166      339.274       12.494      866.924
05/19/2013  09:03:00       32.962       68.988       12.391       76.552       57.554       57.640     5860.172     3312.519     3322.381        0.924        0.625       76.458       40.652        0.283      339.676       13.172      866.927
05/19/2013  09:04:00       38.688       43.741        9.102       67.287       45.676       45.420     4527.525     2086.311     2062.955        0.608        0.434       58.396       23.413        0.161      339.433       12.763      866.937
05/19/2013  09:05:00      -13.905      149.681        3.733       42.046       72.659       44.391     1767.847     5279.323     1970.545        1.581        0.451      150.325       34.013        0.051      339.549       12.957      866.925
05/19/2013  09:06:00      131.497       97.408       10.172       89.960       62.219       52.113     8092.871     3871.263     2715.724        2.078        0.734      163.646       28.306        0.030      339.648       13.125      866.919
05/19/2013  09:07:00       84.076      114.616        3.715       86.014       57.839       43.102     7398.490     3345.375     1857.808        1.641        0.630      142.147       30.932        0.047      339.588       13.024      866.934
05/19/2013  09:08:00       75.533       93.354        4.380       65.964       55.483       40.412     4351.264     3078.373     1633.157        1.175        0.453      120.084       27.327        0.052      339.623       13.082      866.922
05/19/2013  09:09:00       76.193       47.333       52.641       78.319       57.951       54.810     6133.865     3358.367     3004.124        1.165        0.625       89.699       49.541        0.305      339.656       13.138      866.917
05/19/2013  09:10:00       67.302       86.460       84.623      109.867       75.823       59.559    12070.826     5749.159     3547.215        2.026        1.068      109.567       65.458        0.357      339.611       13.061      866.921
05/19/2013  09:11:00       19.718      170.690      -17.460       64.831      124.434       49.912     4203.005    15483.872     2491.213        2.600        1.109      171.825       61.087        0.126      339.302       12.544      866.936
05/19/2013  09:12:00      -50.075       99.045        2.197       47.268       55.308       39.469     2234.257     3058.988     1557.774        0.959        0.343      110.984       35.624        0.103      339.804       13.389      866.932
05/19/2013  09:13:00       78.582       52.550       45.300       77.997       42.469       42.784     6083.464     1803.649     1830.455        1.035        0.486       94.534       37.690        0.159      339.947       13.631      866.930
05/19/2013  09:14:00      159.039       72.867       25.568       64.299       56.052       49.098     4134.353     3141.794     2410.651        2.047        0.484      174.937       30.582        0.031      339.489       12.857      866.939
05/19/2013  09:15:00      184.493      113.554       18.824      110.870       80.278       60.829    12292.173     6444.617     3700.188        3.486        1.122      216.638       38.590        0.032      339.633       13.099      866.957
05/19/2013  09:16:00      179.244      106.293       12.508       82.094       66.414       47.170     6739.504     4410.809     2225.026        2.848        0.669      208.390       35.513        0.029      339.337       12.599      866.962
05/19/2013  09:17:00       84.048       38.868       12.627       71.887       51.376       38.758     5167.683     2639.517     1502.212        0.902        0.465       92.600       19.763        0.046      339.575       13.002      866.953
05/19/2013  09:18:00       25.500       46.322        6.429       33.229       48.754       28.878     1104.186     2376.944      833.939        0.358        0.216       52.877       25.797        0.238      339.773       13.336      866.950
05/19/2013  09:19:00      -51.382      217.467      -15.080       42.132       77.417       39.343     1775.073     5993.404     1547.846        2.974        0.466      223.455       41.435        0.034      339.416       12.731      866.945
05/19/2013  09:20:00      -12.395      209.355       -4.607       66.693      158.354       66.546     4448.016    25075.992     4428.354        3.897        1.698      209.721       83.216        0.157      339.839       13.446      866.927
05/19/2013  09:21:00      -33.883      300.267      -27.704       53.890       79.626       37.837     2904.109     6340.299     1431.673        5.137        0.534      302.172       40.083        0.018      339.189       12.349      866.940
05/19/2013  09:22:00       54.914      117.950        5.917      106.478       53.913       43.497    11337.499     2906.581     1892.002        1.655        0.807      130.107       35.604        0.075      339.861       13.485      866.940
05/19/2013  09:23:00      177.768       94.438        6.736       97.894       60.494       52.172     9583.293     3659.580     2721.919        2.826        0.798      201.296       31.502        0.024      339.813       13.402      866.918
05/19/2013  09:24:00      249.519      170.228       28.502      157.495      109.742       80.194    24804.750    12043.339     6431.148        6.766        2.164      302.055       28.368        0.009      339.579       13.006      866.924
05/19/2013  09:25:00      259.393      207.727       28.542      134.037       89.827       80.851    17966.030     8068.972     6536.929        7.190        1.629      332.318       38.135        0.013      339.305       12.544      866.938
05/19/2013  09:26:00      146.850      149.662        4.637       82.455       71.829       59.340     6798.823     5159.399     3521.231        2.973        0.774      209.675       49.114        0.055      339.163       12.305      866.930
05/19/2013  09:27:00       92.402       99.960        5.794      118.604       58.584       50.647    14066.957     3432.113     2565.144        1.931        1.003      136.126       39.493        0.084      339.383       12.677      866.911
05/19/2013  09:28:00       17.195      233.018      -18.810      102.460      125.445       58.552    10497.969    15736.493     3428.362        4.230        1.483      233.651       69.893        0.089      339.380       12.670      866.898
05/19/2013  09:29:00       44.424      116.751       10.006       80.271       82.504       51.970     6443.407     6806.933     2700.832        1.582        0.798      124.917       54.735        0.192      339.542       12.946      866.871
05/19/2013  09:30:00      -40.449      170.011       -1.236       45.749       77.043       44.189     2092.967     5935.659     1952.651        2.026        0.499      174.757       42.221        0.058      339.649       13.125      866.844
05/19/2013  09:31:00       75.773       99.170       19.988      112.515       62.790       43.308    12659.698     3942.616     1875.545        1.722        0.924      124.805       29.144        0.055      339.929       13.597      866.843
05/19/2013  09:32:00      189.216      137.348       48.633      134.125       82.823       57.757    17989.402     6859.668     3335.894        4.260        1.409      233.810       63.615        0.074      339.391       12.690      866.817
05/19/2013  09:33:00       20.515      155.309       10.563       72.935       98.683       63.076     5319.573     9738.411     3978.538        2.184        0.952      156.658       59.799        0.146      339.806       13.390      866.791
05/19/2013  09:34:00       84.230      127.350        7.113       74.512       79.640       72.656     5552.024     6342.475     5278.877        2.026        0.859      152.685       49.293        0.104      339.816       13.407      866.771
05/19/2013  09:35:00       93.411       40.197        7.853       74.818       61.741       43.386     5597.762     3811.930     1882.385        1.085        0.565      101.693       29.631        0.085      340.348       14.305      866.745
05/19/2013  09:36:00      107.771       80.204       41.703       73.954       67.234       62.051     5469.223     4520.461     3850.292        1.681        0.692      134.340       24.808        0.034      340.124       13.928      866.740
05/19/2013  09:37:00      213.901      101.700       54.575      132.580       90.677       83.541    17577.505     8222.328     6979.171        4.592        1.639      236.847       63.183        0.071      339.583       13.013      866.708
05/19/2013  09:38:00       23.196       89.288      126.373       62.497       77.921       56.269     3905.814     6071.717     3166.232        1.881        0.657       92.252       50.890        0.304      339.948       13.630      866.693
05/19/2013  09:39:00      136.575       89.951       56.450      109.262       69.535       55.292    11938.147     4835.157     3057.236        2.488        0.992      163.536       51.349        0.099      339.713       13.235      866.709
05/19/2013  09:40:00       55.567       78.004        1.425       72.123       57.063       54.684     5201.700     3256.185     2990.378        1.031        0.572       95.772       42.957        0.201      339.595       13.037      866.738
05/19/2013  09:41:00       -7.299      172.500       -8.466       49.150       66.529       45.195     2415.753     4426.158     2042.580        1.938        0.444      172.655       36.521        0.045      339.744       13.287      866.747
05/19/2013  09:42:00      175.982      107.054       39.306       89.883       59.122       64.784     8078.965     3495.364     4196.981        2.987        0.789      205.986       51.829        0.063      339.685       13.186      866.732
05/19/2013  09:43:00       80.134       51.908        9.864       68.512       58.012       26.054     4693.894     3365.354      678.836        0.897        0.437       95.477       27.435        0.083      339.426       12.750      866.750
05/19/2013  09:44:00       89.145       61.096       54.470      122.562       65.584       58.819    15021.443     4301.311     3459.673        1.871        1.139      108.072       43.467        0.162      339.958       13.648      866.744
05/19/2013  09:45:00       16.409      175.066       -6.642      107.395      103.456       61.908    11533.698    10703.088     3832.568        2.851        1.303      175.834       72.109        0.168      339.683       13.182      866.757
05/19/2013  09:46:00      -52.251      151.522        3.715       59.282       80.138       52.596     3514.302     6422.163     2766.295        1.920        0.635      160.278       48.143        0.090      340.049       13.800      866.760
05/19/2013  09:47:00      -44.128      200.686      -14.212       56.042       99.452       47.981     3140.755     9890.691     2302.157        2.888        0.767      205.481       47.025        0.052      339.726       13.256      866.772
05/19/2013  09:48:00        4.432      241.420      -10.115       49.797      189.119       58.380     2479.693    35766.045     3408.219        5.002        2.083      241.461       91.223        0.143      340.012       13.738      866.756
05/19/2013  09:49:00      107.312      193.800        7.101      114.249      144.597       81.833    13052.911    20908.244     6696.585        4.488        2.033      221.527       82.340        0.138      339.902       13.551      866.761
05/19/2013  09:50:00       94.420       90.862        3.558       49.141       85.163       50.081     2414.863     7252.806     2508.136        1.468        0.609      131.039       41.668        0.101      339.569       12.991      866.779
05/19/2013  09:51:00      -19.346       11.780       22.814       38.648       35.507       26.112     1493.697     1260.723      681.812        0.223        0.172       22.651       21.570        0.907      339.916       13.578      866.760
05/19/2013  09:52:00      128.983      110.470       23.444       83.280       71.715       72.617     6935.486     5143.028     5273.226        2.337        0.868      169.824       35.795        0.044      339.763       13.317      866.772
05/19/2013  09:53:00      132.379       68.523       26.513      123.308       69.959       63.181    15204.956     4894.212     3991.814        2.350        1.205      149.062       58.853        0.156      340.026       13.761      866.776
05/19/2013  09:54:00      164.567      133.428       34.672      112.146       67.337       68.492    12576.657     4534.268     4691.147        3.394        1.090      211.862       47.399        0.050      339.851       13.465      866.795
05/19/2013  09:55:00       62.409       60.161       11.026       67.037       47.124       43.033     4493.957     2220.647     1851.860        0.810        0.428       86.685       15.811        0.033      340.011       13.737      866.797
05/19/2013  09:56:00      128.658       92.803        8.787       75.547       51.937       50.998     5707.385     2697.444     2600.844        1.812        0.550      158.635       31.200        0.039      339.969       13.666      866.800
05/19/2013  09:57:00       -9.574      180.142        2.335       47.334      119.673       61.669     2240.509    14321.542     3803.076        2.645        1.018      180.396       73.848        0.168      340.202       14.059      866.786
05/19/2013  09:58:00       19.510       43.568        9.912       39.207       83.595       35.488     1537.221     6988.047     1259.381        0.608        0.489       47.737       33.101        0.481      340.429       14.444      866.803
05/19/2013  09:59:00      -36.475      187.227       -2.246       49.896       72.582       46.327     2489.632     5268.095     2146.205        2.314        0.495      190.747       47.027        0.061      339.950       13.633      866.796
05/19/2013  10:00:00      -15.359       97.332       11.602       38.455       95.889       42.809     1478.772     9194.705     1832.640        1.117        0.625       98.537       46.086        0.219      340.341       14.296      866.802
05/19/2013  10:01:00      -39.411       45.371        8.752       40.006       48.751       39.633     1600.515     2376.696     1570.743        0.462        0.277       60.098       29.293        0.238      339.911       13.570      866.772
05/19/2013  10:02:00      -35.493       23.623        2.883       52.047       33.781       26.409     2708.889     1141.187      697.460        0.319        0.227       42.636       18.299        0.184      339.924       13.591      866.771
05/19/2013  10:03:00      -29.226       68.662        7.652       41.542       63.993       35.415     1725.740     4095.088     1254.198        0.635        0.354       74.623       36.093        0.234      340.574       14.690      866.759
05/19/2013  10:04:00       73.260       92.450       10.642       83.679       73.254       44.360     7002.164     5366.184     1967.808        1.418        0.717      117.958       45.216        0.147      339.941       13.617      866.729
05/19/2013  10:05:00     -111.388       18.714        7.206       89.000       40.081       38.789     7920.971     1606.470     1504.566        1.192        0.552      112.949       49.160        0.189      340.025       13.762      866.720
05/19/2013  10:06:00       -1.947      285.660      -16.069       66.042      143.024       65.336     4361.513    20455.911     4268.812        5.547        1.454      285.666       72.490        0.064      339.844       13.453      866.717
05/19/2013  10:07:00       28.753       93.987        6.537       67.774       75.945       50.803     4593.350     5767.620     2580.926        1.132        0.647       98.287       41.371        0.177      340.335       14.283      866.743
05/19/2013  10:08:00       51.170      106.405       17.418       82.020       75.267       54.733     6727.297     5665.100     2995.655        1.481        0.769      118.069       50.168        0.181      340.558       14.661      866.730
05/19/2013  10:09:00      176.667      122.619       72.375       99.751       57.300       57.544     9950.280     3283.234     3311.307        3.401        0.827      215.050       53.049        0.061      339.988       13.695      866.734
05/19/2013  10:10:00       87.991       94.302       28.126       74.465       63.217       69.694     5545.012     3996.382     4857.249        1.591        0.720      128.978       39.016        0.092      340.148       13.969      866.744
05/19/2013  10:11:00      114.762      106.268        1.573       80.226       63.705       49.327     6436.216     4058.321     2433.157        1.869        0.646      156.407       39.653        0.064      340.316       14.251      866.758
05/19/2013  10:12:00       74.842       98.687       13.709       84.881       68.915       47.314     7204.722     4749.341     2238.636        1.486        0.710      123.856       39.924        0.104      340.315       14.250      866.759
05/19/2013  10:13:00      197.010       93.718       40.156      107.840       87.800       76.391    11629.366     7708.927     5835.581        3.719        1.259      218.165       54.093        0.061      340.215       14.079      866.754
05/19/2013  10:14:00      205.759      135.769       74.512      108.924       71.959       75.216    11864.479     5178.080     5657.396        4.451        1.135      246.516       49.101        0.040      340.071       13.836      866.746
05/19/2013  10:15:00      134.088       58.692       84.604      120.506       80.066       63.554    14521.713     6410.513     4039.099        2.677        1.249      146.370       64.390        0.194      340.242       14.126      866.750
05/19/2013  10:16:00      210.835      109.971       70.898       95.319      104.552       66.179     9085.735    10931.035     4379.615        4.298        1.220      237.792       45.674        0.037      340.127       13.930      866.746
05/19/2013  10:17:00      230.384      158.816       47.490      143.015       93.431       84.810    20453.342     8729.278     7192.711        5.846        1.819      279.820       54.179        0.037      339.943       13.621      866.764
05/19/2013  10:18:00      235.690      140.116       32.044       87.983       70.614       65.518     7740.995     4986.392     4292.574        4.661        0.851      274.194       26.007        0.009      339.783       13.350      866.776
05/19/2013  10:19:00      189.879       85.332       19.031       83.975       59.064       44.555     7051.758     3488.515     1985.143        2.811        0.626      208.173       34.558        0.028      339.996       13.710      866.769
05/19/2013  10:20:00       27.843       -5.988       58.352       76.449       92.100       55.314     5844.524     8482.375     3059.663        1.080        0.869       28.479       24.512        0.741      340.693       14.890      866.741
05/19/2013  10:21:00      103.733      -85.647       65.185       91.369      136.466       82.633     8348.240    18623.083     6828.281        2.807        1.690      134.522       86.057        0.409      340.333       14.281      866.718
05/19/2013  10:22:00        9.023       89.716      113.588       48.192       87.401       53.436     2322.433     7638.909     2855.450        1.692        0.641       90.168       54.711        0.368      340.354       14.315      866.729
05/19/2013  10:23:00       79.079       74.574       80.151      108.289      103.097       61.662    11726.564    10629.073     3802.179        2.219        1.308      108.696       46.759        0.185      340.223       14.095      866.728
05/19/2013  10:24:00      223.051      107.891       15.973       57.309       75.079       55.002     3284.373     5636.799     3025.266        3.679        0.597      247.775       30.539        0.015      339.894       13.537      866.735
05/19/2013  10:25:00      164.154      126.769       25.857      121.211       76.990       59.359    14692.228     5927.470     3523.531        3.391        1.207      207.406       38.235        0.034      339.983       13.688      866.731
05/19/2013  10:26:00       77.421       46.253       41.411      124.265       87.042       56.938    15441.752     7576.324     3241.915        1.805        1.313       90.185       45.853        0.258      340.613       14.755      866.711
05/19/2013  10:27:00       17.116       32.699       94.987       45.863       92.345       44.262     2103.439     8527.666     1959.083        1.148        0.630       36.908       51.800        1.970      340.424       14.434      866.720
05/19/2013  10:28:00       75.377       14.554       62.197       84.647       74.149       54.240     7165.078     5498.088     2941.966        1.268        0.780       76.770       47.625        0.385      340.474       14.520      866.718
05/19/2013  10:29:00       78.611      122.076      131.359      104.806       75.709       67.178    10984.229     5731.858     4512.922        2.978        1.061      145.197       58.986        0.165      340.032       13.771      866.718
05/19/2013  10:30:00       88.054      -74.785       48.902       79.422      108.883       62.154     6307.850    11855.610     3863.109        1.888        1.101      115.527       60.529        0.275      340.359       14.324      866.698
05/19/2013  10:31:00       48.911       14.791       57.123       75.492       94.311       72.084     5699.110     8894.484     5196.037        1.283        0.989       51.098       68.994        1.823      340.541       14.633      866.718
05/19/2013  10:32:00       81.369     -107.522        1.203       87.312      119.713       70.445     7623.467    14331.181     4962.568        2.254        1.346      134.841       80.834        0.359      340.351       14.310      866.730
05/19/2013  10:33:00       -2.367      -58.937      -10.241       79.996       88.170       41.181     6399.299     7773.916     1695.880        0.972        0.793       58.985       33.490        0.322      339.770       13.332      866.749
05/19/2013  10:34:00      -40.162       -9.713       16.024       33.681       39.638       43.950     1134.378     1571.163     1931.589        0.330        0.232       41.320       37.227        0.812      340.274       14.183      866.729
05/19/2013  10:35:00       14.072       44.788       56.957       45.703       42.591       34.060     2088.800     1814.001     1160.106        0.525        0.253       46.947       20.498        0.191      340.623       14.773      866.724
05/19/2013  10:36:00       15.504        2.437       42.569       27.355       38.809       26.902      748.280     1506.132      723.736        0.252        0.149       15.694       24.467        2.430      340.952       15.329      866.718
05/19/2013  10:37:00       28.197      -75.218       20.519       82.664       92.535       49.513     6833.392     8562.777     2451.496        1.236        0.892       80.330       60.725        0.571      340.608       14.746      866.711
05/19/2013  10:38:00       52.828       13.382       51.695       76.872       70.043       56.506     5909.280     4906.054     3192.970        0.982        0.700       54.496       61.170        1.260      340.520       14.598      866.704
05/19/2013  10:39:00      114.521       58.785       57.278       99.308       60.309       47.758     9862.128     3637.157     2280.796        1.781        0.789      128.727       44.799        0.121      340.485       14.538      866.706
05/19/2013  10:40:00      169.562       92.426       35.703       81.904       55.471       55.844     6708.201     3077.074     3118.517        2.573        0.645      193.116       41.585        0.046      339.908       13.562      866.702
05/19/2013  10:41:00       -0.371       42.870       79.588       46.423       86.801       61.545     2155.102     7534.430     3787.817        1.082        0.674       42.871       64.379        2.255      340.287       14.204      866.694
05/19/2013  10:42:00        3.719      -49.978       12.063       41.390       69.076       38.472     1713.128     4771.471     1480.111        0.531        0.398       50.117       20.988        0.175      340.358       14.323      866.677
05/19/2013  10:43:00       13.105       53.508        7.550       50.526       84.454       37.862     2552.909     7132.415     1433.554        0.710        0.556       55.090       21.836        0.157      340.579       14.697      866.674
05/19/2013  10:44:00       64.532       50.074       45.560       53.494       57.749       51.727     2861.576     3334.995     2675.724        0.881        0.444       81.681       36.053        0.195      340.801       15.073      866.657
05/19/2013  10:45:00      140.898      108.115       55.613      127.818       90.342       91.461    16337.456     8161.746     8365.169        3.374        1.643      177.598       44.698        0.063      340.666       14.840      866.632
05/19/2013  10:46:00      173.026      150.096       78.800      139.415       79.158       81.149    19436.653     6266.006     6585.144        4.548        1.614      229.056       46.313        0.041      340.496       14.555      866.626
05/19/2013  10:47:00      177.032      146.492       81.622       49.311       45.381       63.455     2431.589     2059.451     4026.507        3.399        0.426      229.783       23.417        0.010      339.906       13.557      866.628
05/19/2013  10:48:00       53.609       59.374       84.075       68.588       66.250       38.738     4704.333     4389.016     1500.615        1.203        0.530       79.995       32.787        0.168      340.551       14.649      866.603
05/19/2013  10:49:00       -5.629       -0.973       28.042       31.185       31.757       27.618      972.476     1008.517      762.729        0.178        0.137        5.713       18.379       10.351      340.299       14.225      866.599
05/19/2013  10:50:00       20.752       26.992       19.737       28.282       30.339       30.448      799.874      920.467      927.094        0.210        0.132       34.047       19.789        0.338      340.469       14.511      866.567
05/19/2013  10:51:00       81.066      101.807       73.388       55.978       50.388       46.633     3133.522     2538.950     2174.612        1.508        0.392      130.139       34.332        0.070      340.186       14.031      866.552
05/19/2013  10:52:00       86.872       68.610       22.389       43.473       29.285       36.740     1889.932      857.616     1349.818        0.843        0.205      110.698       14.440        0.017      339.861       13.484      866.558
05/19/2013  10:53:00        5.009      -45.023        0.681       30.021       32.306       29.230      901.273     1043.694      854.369        0.243        0.140       45.301       14.350        0.100      339.808       13.397      866.541
05/19/2013  10:54:00      -20.961       -0.472       10.245       39.165       60.416       34.278     1533.918     3650.068     1174.995        0.345        0.318       20.966       23.782        1.287      340.586       14.709      866.523
05/19/2013  10:55:00       -1.432       66.118        3.725       44.238       61.366       47.229     1956.970     3765.769     2230.605        0.617        0.398       66.134       20.125        0.093      340.640       14.800      866.500
05/19/2013  10:56:00      -19.926       54.373       18.874       39.283       41.761       31.550     1543.117     1743.963      995.374        0.400        0.214       57.909       19.243        0.110      340.924       15.284      866.495
05/19/2013  10:57:00       31.695       90.666       -6.315       36.687       40.661       37.620     1345.948     1653.352     1415.285        0.684        0.221       96.046       24.702        0.066      340.779       15.036      866.507
05/19/2013  10:58:00       21.546       65.992      -11.617       40.715       40.648       24.851     1657.684     1652.259      617.577        0.444        0.196       69.420       16.688        0.058      341.098       15.576      866.500
05/19/2013  10:59:00      -19.421       -1.032       14.123       24.935       45.610       44.248      621.770     2080.290     1957.926        0.262        0.233       19.448       27.908        2.059      341.327       15.963      866.492
05/19/2013  11:00:00       63.370       53.166       63.428       63.258       55.590       37.115     4001.555     3090.243     1377.546        0.967        0.423       82.719       17.894        0.047      340.845       15.149      866.466
05/19/2013  11:01:00      155.889      108.743       41.493       99.368       54.896       56.604     9873.926     3013.570     3203.966        2.697        0.805      190.070       44.003        0.054      340.609       14.745      866.455
05/19/2013  11:02:00      101.042       96.536       41.026       73.269       56.926       58.009     5368.365     3240.603     3365.050        1.659        0.599      139.745       33.470        0.057      340.846       15.147      866.453
05/19/2013  11:03:00      121.430       48.353       32.662       76.689       63.436       48.861     5881.217     4024.122     2387.363        1.522        0.615      130.703       32.142        0.060      340.717       14.929      866.471
05/19/2013  11:04:00       -9.493      105.063      -12.458       74.396       57.769       30.882     5534.720     3337.259      953.695        1.055        0.491      105.491       27.817        0.070      340.373       14.348      866.460
05/19/2013  11:05:00       52.753      121.428       -8.009       77.226       71.877       37.331     5963.845     5166.361     1393.583        1.506        0.626      132.392       29.704        0.050      340.525       14.605      866.468
05/19/2013  11:06:00      -25.471      177.567       -2.277       65.693       73.735       49.377     4315.510     5436.789     2438.063        2.218        0.610      179.384       37.392        0.043      340.709       14.915      866.466
05/19/2013  11:07:00       42.428      142.513       -3.053       46.562       82.328       55.230     2167.982     6777.881     3050.373        1.706        0.600      148.694       57.345        0.149      340.767       15.015      866.470
05/19/2013  11:08:00       21.887      155.431       -0.339       59.634       92.458       55.437     3556.165     8548.569     3073.268        1.990        0.759      156.964       51.741        0.109      340.667       14.845      866.452
05/19/2013  11:09:00       -4.753      107.016       17.046       61.851       84.784       46.696     3825.568     7188.247     2180.475        1.248        0.660      107.121       50.913        0.226      340.788       15.050      866.450
05/19/2013  11:10:00       -2.486      126.212       11.093       55.143       71.765       36.883     3040.796     5150.223     1360.326        1.280        0.478      126.237       36.853        0.085      340.792       15.058      866.452
05/19/2013  11:11:00      -48.325       10.570       13.565       57.938       32.384       36.673     3356.789     1048.698     1344.933        0.419        0.288       49.467       41.125        0.691      340.531       14.617      866.447
05/19/2013  11:12:00      123.309       79.274        0.967       61.301       53.827       40.060     3757.839     2897.355     1604.814        1.487        0.413      146.593       30.076        0.042      340.433       14.448      866.442
05/19/2013  11:13:00       68.544      118.038       -5.943       54.437       54.497       37.910     2963.422     2969.946     1437.199        1.302        0.369      136.496       30.904        0.051      340.534       14.622      866.438
05/19/2013  11:14:00      -13.306       79.965       -2.955       27.445       50.594       33.430      753.211     2559.785     1117.561        0.550        0.222       81.065       29.009        0.128      340.816       15.099      866.453
05/19/2013  11:15:00      -17.883       80.946        6.435       34.344       51.784       42.137     1179.510     2681.587     1775.513        0.627        0.282       82.898       40.249        0.236      341.080       15.548      866.451
05/19/2013  11:16:00      -17.704      128.444       -7.867       42.944       46.481       36.864     1844.201     2160.507     1358.937        1.112        0.268      129.658       30.718        0.056      340.852       15.160      866.452
05/19/2013  11:17:00      -27.644       48.501       16.756       30.190       35.016       34.147      911.428     1226.150     1166.047        0.335        0.165       55.825       26.018        0.217      341.451       16.174      866.428
05/19/2013  11:18:00       -6.616       20.808       22.209       33.193       35.575       29.860     1101.794     1265.567      891.644        0.211        0.163       21.835       11.632        0.284      341.240       15.818      866.418
05/19/2013  11:19:00      -33.253       43.253        7.511       32.512       40.549       35.340     1057.006     1644.215     1248.922        0.349        0.198       54.558       28.026        0.264      341.040       15.478      866.408
05/19/2013  11:20:00      -44.899      -14.590       18.572       45.874       33.678       23.733     2104.455     1134.239      563.269        0.319        0.190       47.211       21.927        0.216      341.333       15.975      866.392
05/19/2013  11:21:00      -31.328      -36.842       12.833       47.529       50.441       28.731     2259.044     2544.318      825.491        0.407        0.281       48.361       25.805        0.285      341.100       15.579      866.385
05/19/2013  11:22:00       10.815        5.400       28.034       32.544       40.788       28.369     1059.094     1663.690      804.795        0.223        0.176       12.088       21.021        3.024      341.704       16.602      866.375
05/19/2013  11:23:00        1.334       69.224       15.823       47.934       70.813       39.491     2297.712     5014.415     1559.574        0.696        0.444       69.237       35.556        0.264      341.632       16.481      866.370
05/19/2013  11:24:00       79.325      118.565       19.820      101.697       76.005       49.488    10342.327     5776.814     2449.062        1.965        0.928      142.654       47.335        0.110      341.200       15.748      866.352
05/19/2013  11:25:00      165.344       99.553       23.866       64.769       48.351       56.999     4195.047     2337.794     3248.882        2.380        0.489      193.001       37.171        0.037      340.665       14.840      866.329
05/19/2013  11:26:00      148.153      102.576       35.343       76.638       50.701       47.437     5873.334     2570.557     2250.305        2.221        0.535      180.198        6.129        0.001      340.351       14.309      866.340
05/19/2013  11:27:00       14.384       31.677       31.505       34.842       46.984       28.981     1213.950     2207.534      839.917        0.323        0.213       34.790       25.317        0.530      340.750       14.986      866.342
05/19/2013  11:28:00       26.838       48.014       -6.583       34.981       37.517       28.195     1223.701     1407.495      794.947        0.325        0.171       55.006       24.869        0.204      340.950       15.324      866.352
05/19/2013  11:29:00        0.738      -29.099       -1.335       25.810       25.442       22.850      666.160      647.286      522.125        0.134        0.092       29.108       16.225        0.311      340.865       15.182      866.362
05/19/2013  11:30:00       36.342       15.797       13.658       35.773       44.421       36.415     1279.710     1973.214     1326.037        0.317        0.229       39.627       20.508        0.268      341.297       15.913      866.335
05/19/2013  11:31:00      161.281       89.629       35.581       71.707       53.070       47.368     5141.870     2816.448     2243.719        2.275        0.510      184.512       22.666        0.015      341.051       15.493      866.329
05/19/2013  11:32:00      147.089      100.918       28.821       91.731       61.421       68.391     8414.649     3772.589     4677.310        2.475        0.843      178.381       28.931        0.026      340.934       15.296      866.320
05/19/2013  11:33:00       47.748       27.993       50.449       65.705      100.935       60.632     4317.109    10187.936     3676.296        1.189        0.909       55.348       39.728        0.515      340.866       15.183      866.311
05/19/2013  11:34:00        2.577      103.233       -4.220       77.186       57.438       41.459     5957.685     3299.136     1718.884        1.083        0.549      103.266       31.833        0.095      340.976       15.368      866.318
05/19/2013  11:35:00       40.540      107.013        9.306       73.649       77.684       45.484     5424.241     6034.765     2068.810        1.335        0.676      114.434       34.129        0.089      341.336       15.977      866.300
05/19/2013  11:36:00      128.224       89.894       20.314      102.082       76.285       47.957    10420.726     5819.386     2299.896        2.173        0.927      156.596       13.375        0.007      341.456       16.178      866.302
05/19/2013  11:37:00       11.656      131.133       -6.167       68.752      100.200       59.096     4726.772    10040.020     3492.368        1.781        0.913      131.650       52.983        0.162      341.134       15.635      866.289
05/19/2013  11:38:00        6.918       73.803        6.367       49.346       76.456       46.509     2435.002     5845.562     2163.094        0.799        0.522       74.126       41.059        0.307      341.687       16.573      866.294
05/19/2013  11:39:00       39.574      146.688        3.602       72.607       99.955       50.642     5271.746     9991.002     2564.591        2.046        0.891      151.933       55.005        0.131      341.249       15.830      866.300
05/19/2013  11:40:00       29.186      133.835        0.430       65.066       67.836       57.319     4233.644     4601.723     3285.523        1.544        0.606      136.980       39.557        0.083      340.934       15.298      866.295
05/19/2013  11:41:00      106.661       78.831       -0.983       35.704       35.684       38.189     1274.795     1273.314     1458.413        1.080        0.200      132.630       25.459        0.037      340.579       14.698      866.287
05/19/2013  11:42:00        5.508       98.471      -16.790      104.788       66.849       40.180    10980.444     4468.839     1614.404        1.353        0.853       98.624       46.098        0.218      340.620       14.767      866.281
05/19/2013  11:43:00      -58.656      112.977       -5.718       58.958       87.234       45.920     3476.042     7609.703     2108.674        1.471        0.660      127.296       46.912        0.136      340.916       15.266      866.274
05/19/2013  11:44:00      -14.387      105.392        7.900       38.464       57.833       35.868     1479.496     3344.640     1286.503        0.874        0.306      106.369       34.534        0.105      341.264       15.857      866.253
05/19/2013  11:45:00       66.959       50.482       35.772       67.394       47.331       39.315     4541.924     2240.199     1545.705        0.832        0.416       83.857       20.915        0.062      341.291       15.902      866.222
05/19/2013  11:46:00       21.560       41.865       63.292       41.976       44.868       33.946     1762.017     2013.173     1152.333        0.557        0.246       47.090       27.235        0.334      341.412       16.106      866.204
05/19/2013  11:47:00       40.850       58.225       48.412       48.410       57.089       50.849     2343.488     3259.205     2585.638        0.779        0.409       71.126       36.116        0.258      341.126       15.622      866.204
05/19/2013  11:48:00        0.573       22.823        8.736       25.249       50.600       27.885      637.508     2560.344      777.578        0.229        0.199       22.830       32.791        2.063      341.674       16.552      866.198
05/19/2013  11:49:00      -32.739       11.833      -19.624       32.432       35.036       28.086     1051.859     1227.550      788.796        0.233        0.153       34.812       23.640        0.461      341.177       15.708      866.167
05/19/2013  11:50:00      -46.451       -4.925        5.093       58.678       36.014       26.996     3443.159     1296.974      728.800        0.384        0.273       46.712       27.289        0.341      341.904       16.941      866.153
05/19/2013  11:51:00     -100.116      -25.838        6.687       68.301       70.720       36.716     4665.056     5001.252     1348.057        1.087        0.551      103.396       35.800        0.120      341.363       16.024      866.119
05/19/2013  11:52:00     -140.701      -55.049        6.806       56.634       42.136       30.077     3207.354     1775.461      904.641        1.438        0.294      151.086       24.092        0.025      340.778       15.035      866.121
05/19/2013  11:53:00       21.965       -5.554       36.729       40.899       31.175       26.035     1672.751      971.910      677.805        0.259        0.166       22.656       18.772        0.687      341.714       16.619      866.107
05/19/2013  11:54:00       21.607       50.906      -19.231       40.116       42.951       27.673     1609.257     1844.757      765.805        0.382        0.211       55.301       18.246        0.109      341.273       15.872      866.108
05/19/2013  11:55:00       33.227      -12.739      -11.025       40.649       54.050       33.079     1652.323     2921.450     1094.191        0.353        0.283       35.585       30.400        0.730      341.060       15.512      866.091
05/19/2013  11:56:00       36.608       12.138       27.825       37.699       61.794       52.163     1421.243     3818.524     2721.006        0.511        0.398       38.568       22.978        0.355      341.503       16.261      866.086
05/19/2013  11:57:00       17.392        7.194       39.712       25.884       34.981       22.134      669.992     1223.681      489.900        0.216        0.119       18.822       10.888        0.335      342.036       17.166      866.073
05/19/2013  11:58:00      136.915       88.638        4.147      108.943       78.410       54.070    11868.494     6148.069     2923.530        2.378        1.047      163.103       43.384        0.071      341.743       16.665      866.080
05/19/2013  11:59:00      239.350      197.157       26.899      143.059       98.315       74.923    20465.960     9665.930     5613.497        6.631        1.787      310.095       46.736        0.023      340.747       14.979      866.075
05/19/2013  12:00:00       -1.607       67.092       -1.961       56.444       56.136       29.628     3185.972     3151.248      877.809        0.586        0.361       67.111       18.293        0.074      341.221       15.783      866.069
05/19/2013  12:01:00       54.973       34.770       53.563       78.599       67.243       45.676     6177.812     4521.618     2086.256        0.994        0.639       65.045       24.306        0.140      341.462       16.192      866.027
05/19/2013  12:02:00       87.662       23.824       64.794      104.342      135.420       73.385    10887.249    18338.529     5385.403        2.352        1.731       90.841       78.346        0.744      341.474       16.210      866.012
05/19/2013  12:03:00       83.072       54.978       67.218       70.954       98.966       59.073     5034.519     9794.227     3489.653        1.638        0.916       99.617       57.851        0.337      341.244       15.822      866.016
05/19/2013  12:04:00       97.734     -145.112       -5.311       96.360      104.388       60.050     9285.224    10896.936     3605.975        2.721        1.189      174.956       68.127        0.152      341.524       16.295      865.992
05/19/2013  12:05:00      128.934       79.212       71.581      123.236      113.657       58.659    15187.049    12918.006     3440.843        2.978        1.577      151.323       36.942        0.060      341.588       16.403      865.994
05/19/2013  12:06:00      117.002      111.097       92.453       69.831       88.754       69.562     4876.417     7877.330     4838.925        2.608        0.880      161.344       59.639        0.137      341.444       16.159      866.000
05/19/2013  12:07:00      148.960      144.845      102.203      100.889      100.525       86.454    10178.675    10105.330     7474.375        4.068        1.388      207.772       71.700        0.119      341.360       16.015      865.994
05/19/2013  12:08:00      123.691      177.040      149.258      109.435       77.681       78.063    11976.053     6034.341     6093.762        4.651        1.205      215.969       67.683        0.098      341.094       15.563      865.984
05/19/2013  12:09:00      280.413      134.118       16.743      109.073       98.077       65.581    11896.938     9619.075     4300.847        6.135        1.291      310.836       37.513        0.015      340.763       15.005      866.012
05/19/2013  12:10:00       41.688       42.400       82.161       58.677       74.267       41.292     3442.945     5515.561     1705.023        1.047        0.533       59.461       37.640        0.401      341.019       15.441      866.000
05/19/2013  12:11:00       41.530       -6.293       32.070       56.468       72.500       35.569     3188.627     5256.229     1265.171        0.625        0.486       42.004       30.034        0.511      341.159       15.678      865.970
05/19/2013  12:12:00       70.264       58.056       94.886       87.726      109.648       71.072     7695.779    12022.628     5051.175        2.104        1.238       91.145       72.654        0.635      341.291       15.901      865.936
05/19/2013  12:13:00       70.008      120.755      135.021       93.697      116.049       77.608     8779.128    13467.410     6022.975        3.299        1.413      139.581       78.279        0.315      341.003       15.413      865.943
05/19/2013  12:14:00       49.927       92.550      102.350       69.721       94.471       67.317     4861.080     8924.839     4531.564        1.992        0.916      105.158       59.765        0.323      340.998       15.405      865.941
05/19/2013  12:15:00       12.728       22.036       54.036       57.973       72.057       53.375     3360.876     5192.277     2848.851        0.748        0.570       25.448       29.832        1.374      341.349       16.001      865.930
05/19/2013  12:16:00      164.420      145.434       94.368      143.850       88.673       74.905    20692.692     7862.862     5610.769        4.562        1.708      219.511       67.419        0.094      341.432       16.138      865.931
05/19/2013  12:17:00      138.053      130.864       81.771       94.603       78.711       76.940     8949.755     6195.406     5919.760        3.196        1.053      190.220       45.559        0.057      341.337       15.977      865.961
05/19/2013  12:18:00       49.891       15.464       30.786       58.207       56.255       36.029     3388.098     3164.678     1298.082        0.576        0.393       52.233       15.707        0.090      341.634       16.484      865.955
05/19/2013  12:19:00      121.338      -15.518       69.812       66.007       67.930       50.392     4356.907     4614.530     2539.365        1.567        0.576      122.327       25.079        0.042      341.008       15.423      865.954
05/19/2013  12:20:00      113.355     -117.002       26.082       70.645       66.261       44.968     4990.683     4390.464     2022.082        1.931        0.570      162.908       49.773        0.093      340.793       15.057      865.930
05/19/2013  12:21:00       23.318      -25.400       39.031       47.452      102.282       46.819     2251.681    10461.627     2191.999        0.881        0.745       34.480       54.442        2.493      341.350       16.002      865.890
05/19/2013  12:22:00       44.097      -94.537       40.179       45.527       82.922       48.881     2072.731     6876.123     2389.368        1.191        0.567      104.316       15.240        0.021      341.059       15.508      865.872
05/19/2013  12:23:00       62.899       27.579       14.142       46.980       49.295       32.925     2207.078     2429.976     1084.070        0.532        0.286       68.680       20.661        0.091      341.520       16.290      865.854
05/19/2013  12:24:00       41.056      -30.084       41.704       58.257       96.896       51.467     3393.898     9388.826     2648.888        0.988        0.772       50.899       32.081        0.397      341.865       16.875      865.842
05/19/2013  12:25:00       65.746       -3.288       90.633       84.460       98.489       81.059     7133.466     9700.174     6570.556        1.797        1.170       65.829       65.235        0.982      341.676       16.554      865.804
05/19/2013  12:26:00       33.398       56.282      105.453       65.675       97.255       55.738     4313.192     9458.496     3106.736        1.614        0.844       65.445       43.699        0.446      341.592       16.410      865.814
05/19/2013  12:27:00      140.070      119.738       79.205       68.996       43.414       44.464     4760.485     1884.809     1977.038        2.442        0.431      184.273       34.410        0.035      340.606       14.740      865.817
05/19/2013  12:28:00       55.642       12.972       40.648       41.608       84.397       44.088     1731.192     7122.931     1943.765        0.786        0.540       57.134       35.691        0.390      340.915       15.264      865.787
05/19/2013  12:29:00       28.654       17.782       38.217       25.663       53.920       31.552      658.573     2907.368      995.507        0.358        0.228       33.723       18.631        0.305      341.412       16.107      865.759
05/19/2013  12:30:00       88.646      -82.613       16.656       78.944       75.022       53.076     6232.199     5628.273     2817.016        1.482        0.734      121.173       48.245        0.159      341.490       16.239      865.731
05/19/2013  12:31:00       10.980        9.156       17.566       45.507       46.754       51.111     2070.896     2185.951     2612.313        0.369        0.343       14.297       35.806        6.272      341.392       16.073      865.713
05/19/2013  12:32:00      -19.513       -1.087       11.265       21.987       12.501       22.468      483.420      156.285      504.815        0.083        0.057       19.544       18.326        0.879      341.948       17.017      865.700
05/19/2013  12:33:00      -16.389      -19.636       31.929       26.979       68.399       32.172      727.861     4678.431     1035.026        0.406        0.322       25.576       26.159        1.046      342.059       17.204      865.692
05/19/2013  12:34:00       13.777     -141.879       -6.267       75.566       60.954       46.145     5710.169     3715.423     2129.400        1.595        0.578      142.547       34.206        0.058      341.453       16.174      865.678
05/19/2013  12:35:00       58.657     -183.518        2.912       70.099      106.630       51.025     4913.860    11369.957     2603.560        2.800        0.944      192.664       43.697        0.051      341.343       15.988      865.685
05/19/2013  12:36:00       43.037      -71.998       27.848       49.530       97.278       40.167     2453.176     9462.957     1613.396        1.067        0.676       83.881       47.456        0.320      341.376       16.046      865.682
05/19/2013  12:37:00       82.175       54.824       31.560       75.852       55.918       49.120     5753.497     3126.811     2412.795        1.102        0.565       98.785       26.864        0.074      341.839       16.830      865.701
05/19/2013  12:38:00       75.173       82.319        7.956       71.967       46.201       36.473     5179.283     2134.492     1330.307        1.057        0.432      111.478       18.874        0.029      341.371       16.036      865.711
05/19/2013  12:39:00      171.818      126.446        1.173      110.400       69.858       54.157    12188.196     4880.159     2932.934        3.275        1.000      213.331       30.867        0.021      341.043       15.479      865.701
05/19/2013  12:40:00       27.125       46.154       26.535       34.275       47.955       28.894     1174.804     2299.680      834.840        0.394        0.215       53.535       21.700        0.164      341.555       16.350      865.679
05/19/2013  12:41:00     -102.096       49.927      -16.856       71.519       49.918       34.726     5114.916     2491.758     1205.862        1.100        0.441      113.650       28.792        0.064      341.068       15.525      865.634
05/19/2013  12:42:00     -126.929      -20.010       -4.506       59.073       38.634       28.093     3489.618     1492.606      789.195        1.115        0.289      128.497       17.771        0.019      341.139       15.646      865.607
05/19/2013  12:43:00      -21.201      -38.702        0.954       63.972       47.887       37.658     4092.465     2293.145     1418.118        0.487        0.390       44.129       28.277        0.411      341.832       16.820      865.600
05/19/2013  12:44:00      -94.924      -37.207        0.612       38.918       31.496       25.947     1514.595      992.011      673.243        0.679        0.159      101.956       16.989        0.028      341.363       16.025      865.572
05/19/2013  12:45:00      -53.874      -36.059        5.212       50.419       44.206       19.156     2542.065     1954.163      366.951        0.455        0.243       64.828       16.601        0.066      341.470       16.206      865.546
05/19/2013  12:46:00       57.655     -120.576        4.935       58.661       60.939       46.659     3441.114     3713.560     2177.047        1.361        0.467      133.651       31.487        0.056      341.737       16.656      865.534
05/19/2013  12:47:00       38.998      -55.208       20.662       68.386      151.245       59.336     4676.606    22875.102     3520.750        1.803        1.554       67.592       74.564        1.217      341.794       16.753      865.511
05/19/2013  12:48:00       71.838       74.214       59.483       81.280       74.289       40.219     6606.467     5518.784     1617.606        1.397        0.687      103.288       29.474        0.081      342.260       17.546      865.497
05/19/2013  12:49:00      212.533      104.760       21.975      108.989       94.983       59.385    11878.610     9021.760     3526.520        4.052        1.221      236.949       33.714        0.020      341.653       16.514      865.518
05/19/2013  12:50:00      121.738       92.170       45.644       79.769       60.446       45.721     6363.155     3653.735     2090.401        1.875        0.605      152.694       23.260        0.023      341.187       15.725      865.529
05/19/2013  12:51:00       66.619       73.804       50.648       56.146       54.577       71.612     3152.341     2978.605     5128.245        1.185        0.563       99.424       54.574        0.301      341.296       15.911      865.517
05/19/2013  12:52:00       22.762       64.660        4.757       47.238       49.081       43.726     2231.434     2408.928     1911.922        0.564        0.328       68.549       36.669        0.286      341.699       16.594      865.503
05/19/2013  12:53:00      113.250      112.740       89.259       87.143       83.731       76.581     7593.825     7010.909     5864.656        2.698        1.023      159.800       59.230        0.137      341.499       16.252      865.499
05/19/2013  12:54:00       61.711        6.987       69.386       75.036       82.254       56.611     5630.409     6765.796     3204.771        1.213        0.780       62.105       51.723        0.694      341.635       16.484      865.497
05/19/2013  12:55:00       63.165       33.245       49.473       74.944       92.415       45.878     5616.542     8540.523     2104.812        1.190        0.813       71.380       25.262        0.125      341.924       16.973      865.479
05/19/2013  12:56:00      182.616      101.990       71.075      116.804       71.189       60.009    13643.156     5067.871     3601.072        3.555        1.116      209.167       28.637        0.019      341.917       16.961      865.487
05/19/2013  12:57:00      273.916      115.034       32.068      165.741       95.183       64.068    27470.056     9059.881     4104.659        6.495        2.032      297.091       51.535        0.030      341.476       16.212      865.461
05/19/2013  12:58:00      169.915       95.569       20.962      110.818       60.083       64.077    12280.562     3610.003     4105.841        2.922        1.000      194.948       52.667        0.073      341.737       16.655      865.452
05/19/2013  12:59:00       14.200      197.341      -16.437       60.335       92.492       42.363     3640.270     8554.717     1794.661        2.670        0.699      197.851       42.463        0.046      341.693       16.580      865.456
05/19/2013  13:00:00      135.355       96.509       23.285      107.451       64.028       49.319    11545.719     4099.556     2432.337        2.312        0.904      166.238       39.089        0.055      342.043       17.175      865.451
05/19/2013  13:01:00       62.376       99.079       11.995       62.679       56.427       53.098     3928.657     3183.964     2819.420        1.189        0.497      117.078       31.873        0.074      341.638       16.490      865.441
05/19/2013  13:02:00       94.687      100.174       49.661       76.404       63.133       57.061     5837.535     3985.763     3255.903        1.727        0.654      137.842       37.342        0.073      341.826       16.806      865.424
05/19/2013  13:03:00       46.775       31.457       16.936       87.327       67.193       50.721     7625.946     4514.851     2572.610        0.909        0.736       56.369       45.790        0.660      342.016       17.132      865.433
05/19/2013  13:04:00      106.264      162.622       13.339      121.669      106.492       78.573    14803.283    11340.521     6173.675        3.511        1.616      194.263       68.759        0.125      341.871       16.882      865.424
05/19/2013  13:05:00      145.346      214.535       -2.388      157.480      119.277       92.173    24799.971    14226.899     8495.802        5.733        2.376      259.135       72.319        0.078      341.642       16.493      865.409
05/19/2013  13:06:00      189.990      154.110       12.554      151.688       98.107       75.388    23009.141     9624.959     5683.360        4.915        1.916      244.635       53.802        0.048      341.830       16.815      865.399
05/19/2013  13:07:00       75.595      221.831      -16.073      145.430      121.831       69.302    21149.961    14842.753     4802.825        4.798        2.040      234.358       68.114        0.084      341.933       16.988      865.407
05/19/2013  13:08:00     -123.469      305.712      -34.319       74.820      146.387       46.602     5598.086    21429.038     2171.718        6.953        1.460      329.703       49.784        0.023      341.736       16.653      865.436
05/19/2013  13:09:00      -93.701      176.001      -21.686       76.267       88.427       50.870     5816.714     7819.273     2587.744        2.822        0.811      199.390       48.554        0.059      341.899       16.930      865.428
05/19/2013  13:10:00      -75.175      173.841       -7.350       70.728       90.667       53.076     5002.474     8220.566     2817.026        2.598        0.802      189.399       60.895        0.103      342.073       17.226      865.432
05/19/2013  13:11:00       38.058      238.147      -10.054      101.370      144.037       67.528    10275.970    20746.642     4560.032        4.692        1.779      241.169       74.090        0.094      342.294       17.600      865.419
05/19/2013  13:12:00      146.684      124.169       19.806       95.888       71.461       66.517     9194.509     5106.740     4424.453        2.802        0.936      192.183       51.829        0.073      341.968       17.047      865.419
05/19/2013  13:13:00       98.987       89.072       10.762       90.240       77.898       51.581     8143.210     6068.123     2660.596        1.736        0.844      133.163       37.654        0.080      342.123       17.312      865.396
05/19/2013  13:14:00      219.466      143.451       25.986      185.606      102.950       77.446    34449.673    10598.688     5997.906        6.022        2.552      262.190       45.000        0.029      342.021       17.138      865.353
05/19/2013  13:15:00      283.698      214.353       27.027      110.879       92.746       78.993    12294.121     8601.864     6239.964        7.714        1.357      355.572       47.145        0.018      341.950       17.016      865.341
05/19/2013  13:16:00      247.685      169.223       28.314      148.616       90.754       74.411    22086.612     8236.376     5537.000        6.332        1.793      299.974       47.810        0.025      341.786       16.738      865.340
05/19/2013  13:17:00      309.111      152.135       36.110      105.222       83.256       76.713    11071.584     6931.609     5884.852        7.194        1.194      344.521       55.230        0.026      341.602       16.426      865.345
05/19/2013  13:18:00      148.674      105.064        4.446       91.509       67.560       61.332     8373.807     4564.295     3761.576        2.493        0.835      182.051       34.016        0.035      341.638       16.488      865.352
05/19/2013  13:19:00       36.428      117.826       34.816       88.810       87.687       53.841     7887.165     7689.026     2898.855        1.744        0.924      123.329       40.794        0.109      341.868       16.879      865.298
05/19/2013  13:20:00        7.814      292.415      -37.761       50.208       87.268       40.621     2520.846     7615.694     1650.046        4.939        0.589      292.519       32.353        0.012      341.608       16.436      865.320
05/19/2013  13:21:00      -51.016      152.235       -6.338       45.907       86.199       40.722     2107.495     7430.263     1658.261        1.850        0.560      160.555       47.701        0.088      341.935       16.993      865.328
05/19/2013  13:22:00     -112.399       79.144       -9.245       60.140       53.623       40.949     3616.827     2875.467     1676.783        1.357        0.408      137.467       33.437        0.059      341.816       16.791      865.303
05/19/2013  13:23:00      -51.240       34.188       -1.514       48.421       55.581       30.637     2344.639     3089.218      938.633        0.508        0.319       61.598       22.821        0.137      342.065       17.214      865.275
05/19/2013  13:24:00     -148.837        7.547      -10.971       55.362       69.867       26.019     3064.997     4881.394      676.968        1.547        0.431      149.028       28.204        0.036      341.841       16.834      865.248
05/19/2013  13:25:00      -59.138       30.311       10.051       52.985       25.316       29.982     2807.461      640.920      898.943        0.443        0.217       66.453       32.002        0.232      342.089       17.255      865.252
05/19/2013  13:26:00       -0.510       38.673       13.781       31.623       30.301       26.948      999.997      918.162      726.181        0.216        0.132       38.676       23.540        0.370      342.401       17.786      865.248
05/19/2013  13:27:00       51.979       40.809       16.711       55.209       41.801       33.190     3047.999     1747.284     1101.592        0.527        0.295       66.084       20.791        0.099      342.339       17.680      865.235
05/19/2013  13:28:00       88.184       44.399        4.371       47.818       60.184       43.650     2286.553     3622.097     1905.318        0.879        0.391       98.730       37.069        0.141      341.787       16.743      865.220
05/19/2013  13:29:00       56.281       23.106       12.291       54.819       41.206       38.420     3005.126     1697.938     1476.095        0.501        0.309       60.839       19.438        0.102      342.040       17.172      865.198
05/19/2013  13:30:00      107.997       87.527       31.085       93.058       62.265       59.016     8659.852     3876.907     3482.924        1.815        0.801      139.012       32.142        0.053      342.396       17.776      865.165
05/19/2013  13:31:00      145.572      140.915       31.292      128.913       76.242       76.987    16618.582     5812.782     5927.063        3.519        1.418      202.604       39.036        0.037      342.404       17.786      865.161
05/19/2013  13:32:00       26.518      207.723      -26.415       92.569      130.737       50.705     8568.971    17092.152     2570.969        3.639        1.412      209.408       37.822        0.033      342.273       17.565      865.195
05/19/2013  13:33:00       -8.307      249.065      -12.866       65.382      133.973       56.465     4274.743    17948.728     3188.276        4.383        1.271      249.204       68.299        0.075      342.241       17.511      865.200
05/19/2013  13:34:00       39.749      128.293        6.191       73.287      120.644       58.570     5371.042    14555.048     3430.497        2.071        1.168      134.310       61.281        0.208      342.192       17.429      865.204
05/19/2013  13:35:00      174.941       60.979       12.936       99.395       89.311       52.296     9879.300     7976.453     2734.832        2.754        1.030      185.264       32.874        0.031      341.770       16.711      865.193
05/19/2013  13:36:00       43.649       49.079        7.826       72.421       76.851       49.417     5244.809     5906.070     2442.067        0.898        0.680       65.681       27.832        0.180      341.998       17.100      865.148
05/19/2013  13:37:00       11.941      -13.535       19.347       36.001       67.589       30.793     1296.096     4568.240      948.188        0.375        0.341       18.050       14.457        0.642      341.827       16.810      865.122
05/19/2013  13:38:00       67.533       59.666       35.130       81.449       78.282       49.120     6633.860     6127.997     2412.763        1.226        0.759       90.115       51.334        0.324      341.701       16.595      865.071
05/19/2013  13:39:00       44.720       78.146       22.427       44.404       54.697       36.019     1971.712     2991.720     1297.371        0.743        0.313       90.038       25.914        0.083      341.630       16.478      865.066
05/19/2013  13:40:00       18.325      130.494      -24.958       46.260       96.308       50.576     2139.998     9275.141     2557.927        1.598        0.699      131.774       22.199        0.028      341.670       16.543      865.021
05/19/2013  13:41:00       21.039       54.237       -4.518       35.869       61.146       21.956     1286.597     3738.877      482.058        0.445        0.275       58.174       20.103        0.119      341.692       16.582      864.990
05/19/2013  13:42:00      129.903       97.229        8.623      121.469       68.875       51.380    14754.798     4743.803     2639.932        2.427        1.107      162.260       59.700        0.135      341.548       16.336      865.015
05/19/2013  13:43:00      120.011      117.242        9.228       92.805       76.278       60.500     8612.834     5818.340     3660.249        2.316        0.905      167.775       38.173        0.052      342.012       17.123      865.014
05/19/2013  13:44:00      156.481      101.947       24.968      111.444       75.946       67.384    12419.804     5767.831     4540.554        2.911        1.136      186.760       38.015        0.041      342.510       17.969      864.977
05/19/2013  13:45:00      132.532      139.221        1.179      124.456       92.873       69.600    15489.296     8625.409     4844.225        3.295        1.448      192.217       49.907        0.067      342.125       17.314      864.972
05/19/2013  13:46:00       25.190      248.150      -16.966       74.789      102.463       62.460     5593.348    10498.681     3901.226        4.124        1.000      249.425       59.079        0.056      342.119       17.305      864.970
05/19/2013  13:47:00       40.516      165.274        2.721       72.127      111.444       68.095     5202.348    12419.739     4636.912        2.561        1.113      170.168       64.091        0.142      342.479       17.915      864.946
05/19/2013  13:48:00      -11.469      185.729       -5.428       70.301       92.273       53.152     4942.242     8514.277     2825.144        2.547        0.814      186.083       45.850        0.061      342.270       17.561      864.957
05/19/2013  13:49:00        4.660       41.929       31.504       55.065       82.204       42.099     3032.101     6757.473     1772.354        0.716        0.578       42.187       38.841        0.848      342.420       17.818      864.935
05/19/2013  13:50:00       14.542      216.419      -11.057       70.637      194.172       71.497     4989.636    37702.807     5111.760        4.748        2.390      216.907       99.139        0.209      342.364       17.721      864.938
05/19/2013  13:51:00       51.783      266.031      -21.829       63.961      133.701       63.394     4091.032    17875.947     4018.803        4.995        1.299      271.024       74.661        0.076      341.992       17.088      864.949
05/19/2013  13:52:00      -11.724      168.880      -32.450       73.445       72.244       45.331     5394.109     5219.197     2054.896        2.119        0.633      169.286       40.144        0.056      341.590       16.409      864.935
05/19/2013  13:53:00        3.652      124.978        4.693       55.543      122.782       46.829     3085.058    15075.495     2192.972        1.800        1.018      125.031       56.035        0.201      342.475       17.911      864.894
05/19/2013  13:54:00       51.027      199.196       -9.698       77.297      151.829       70.240     5974.783    23052.194     4933.715        3.816        1.698      205.628       76.589        0.139      342.076       17.230      864.876
05/19/2013  13:55:00       95.477      204.583       -6.763       87.359      123.831       70.310     7631.591    15334.121     4943.462        3.946        1.395      225.765       72.412        0.103      342.126       17.315      864.894
05/19/2013  13:56:00      123.973       68.279        9.916       71.298       39.629       42.479     5083.451     1570.425     1804.464        1.429        0.423      141.532       25.996        0.034      341.968       17.048      864.888
05/19/2013  13:57:00       61.123       33.235       15.781       29.773       33.671       31.014      886.422     1133.711      961.895        0.404        0.149       69.574       15.985        0.053      341.992       17.091      864.864
05/19/2013  13:58:00      139.743      100.784       87.476      144.867      132.722       81.435    20986.547    17615.028     6631.695        4.128        2.262      172.295       56.951        0.109      342.203       17.447      864.829
05/19/2013  13:59:00      167.845      126.954       99.575      131.725       99.927       89.211    17351.354     9985.451     7958.600        4.474        1.765      210.450       73.757        0.123      342.245       17.516      864.808
05/19/2013  14:00:00      101.909      130.896      109.626      116.300      108.776       86.499    13525.652    11832.168     7482.044        3.618        1.642      165.889       89.681        0.292      342.428       17.828      864.809
05/19/2013  14:01:00      126.591      152.302       96.026      100.075       54.374       77.097    10014.940     2956.574     5943.923        3.368        0.946      198.044       64.709        0.107      342.231       17.491      864.825
05/19/2013  14:02:00        6.557      100.703      126.535       41.022       66.858       42.051     1682.827     4470.037     1768.304        1.706        0.396      100.917       38.604        0.146      342.507       17.963      864.826
05/19/2013  14:03:00      126.441      118.089       55.575      101.626       62.139       74.233    10327.889     3861.241     5510.534        2.636        0.985      173.010       36.704        0.045      342.739       18.357      864.826
05/19/2013  14:04:00      199.434       77.414       35.637       84.713       72.525       55.831     7176.225     5259.900     3117.154        3.129        0.778      213.932       39.546        0.034      342.273       17.565      864.830
05/19/2013  14:05:00       40.083       59.517        0.833       71.490       58.173       41.649     5110.781     3384.139     1734.664        0.769        0.511       71.755       36.050        0.252      341.951       17.020      864.817
05/19/2013  14:06:00       68.245       23.635       41.906       70.891       73.565       46.485     5025.587     5411.872     2160.901        0.978        0.630       72.222       41.902        0.337      342.382       17.752      864.789
05/19/2013  14:07:00        7.516       71.701      114.212       55.017       94.354       76.510     3026.902     8902.665     5853.848        1.801        0.889       72.093       72.153        1.002      342.596       18.114      864.776
05/19/2013  14:08:00       39.560       21.313       38.788       51.417       60.380       39.519     2643.675     3645.731     1561.727        0.569        0.393       44.936       23.091        0.264      342.631       18.177      864.786
05/19/2013  14:09:00       74.409       91.787      -19.145       50.226       61.760       36.639     2522.623     3814.307     1342.416        1.100        0.384      118.159       36.384        0.095      342.183       17.414      864.820
05/19/2013  14:10:00      -69.729      138.235      -22.589       82.366       65.669       37.210     6784.136     4312.401     1384.613        1.848        0.624      154.826       40.973        0.070      342.386       17.758      864.839
05/19/2013  14:11:00       -3.775       58.107        3.827       63.183       50.516       35.292     3992.093     2551.837     1245.495        0.560        0.389       58.229       36.016        0.383      342.645       18.200      864.833
05/19/2013  14:12:00        0.217       54.581        2.644       52.495       62.753       43.147     2755.764     3937.967     1861.699        0.577        0.428       54.582       33.113        0.368      342.818       18.495      864.826
05/19/2013  14:13:00      -22.593       75.125        4.628       47.999       60.814       35.444     2303.893     3698.364     1256.251        0.672        0.363       78.449       38.514        0.241      342.887       18.612      864.805
05/19/2013  14:14:00       -0.078      125.085       16.394      110.965      102.662       49.761    12313.126    10539.455     2476.169        2.062        1.266      125.085       43.723        0.122      342.732       18.345      864.813
05/19/2013  14:15:00       93.156       96.867        6.842       72.492       88.125       38.687     5255.081     7765.974     1496.716        1.631        0.726      134.392       40.632        0.091      342.208       17.456      864.827
05/19/2013  14:16:00      -35.969      329.306      -37.710       77.695      148.168       46.441     6036.585    21953.729     2156.731        7.065        1.507      331.264       61.131        0.034      342.392       17.767      864.825
05/19/2013  14:17:00       63.022      157.509       -2.732       85.288       90.764       51.010     7274.120     8238.048     2602.069        2.345        0.906      169.649       29.578        0.030      342.359       17.710      864.814
05/19/2013  14:18:00       84.542       88.839       27.823      109.755       81.155       79.719    12046.218     6586.134     6355.106        2.040        1.249      122.636       67.551        0.303      342.585       18.095      864.782
05/19/2013  14:19:00      166.162       98.991       49.218       74.060       63.923       66.452     5484.867     4086.148     4415.819        2.691        0.699      193.414       29.328        0.023      342.578       18.082      864.784
05/19/2013  14:20:00      113.660       80.388        8.896      116.720       59.444       58.652    13623.669     3533.623     3440.025        2.002        1.030      139.215       37.903        0.074      342.916       18.659      864.768
05/19/2013  14:21:00      132.860       69.973        6.590       74.154       77.242       54.696     5498.753     5966.310     2991.633        1.852        0.723      150.160       21.631        0.021      342.268       17.559      864.791
05/19/2013  14:22:00      125.812       95.517       26.790       77.077       56.071       52.754     5940.936     3143.907     2782.935        1.877        0.593      157.963       40.216        0.065      342.515       17.978      864.787
05/19/2013  14:23:00      245.337      119.724       63.668      145.529      111.176       93.958    21178.666    12360.052     8828.150        6.046        2.118      272.991       70.860        0.067      342.285       17.585      864.787
05/19/2013  14:24:00      105.784       57.182       16.240       77.799       44.849       47.660     6052.749     2011.421     2271.511        1.253        0.517      120.250       22.584        0.035      341.922       16.971      864.792
05/19/2013  14:25:00      159.375       93.909       27.852       89.519       46.430       42.046     8013.595     2155.764     1767.879        2.346        0.597      184.985       19.072        0.011      341.869       16.880      864.774
05/19/2013  14:26:00      126.025       74.329       26.152       63.221       61.946       50.107     3996.927     3837.252     2510.700        1.622        0.517      146.311       38.221        0.068      341.938       16.996      864.764
05/19/2013  14:27:00       63.475       74.352       49.208       71.888       52.269       55.221     5167.908     2732.072     3049.384        1.146        0.547       97.761       30.540        0.098      342.503       17.958      864.750
05/19/2013  14:28:00       99.577       75.516       65.649       76.291       69.221       52.248     5820.380     4791.505     2729.830        1.663        0.667      124.973       43.253        0.120      342.736       18.353      864.751
05/19/2013  14:29:00      116.925      121.878       24.693      129.552       95.716       78.912    16783.608     9161.590     6227.046        3.065        1.609      168.895       48.993        0.084      342.442       17.853      864.768
05/19/2013  14:30:00      105.653      135.207       63.574       85.292       77.697       77.861     7274.683     6036.802     6062.302        2.643        0.969      171.592       52.660        0.094      342.479       17.913      864.743
05/19/2013  14:31:00      197.116      147.927      104.726      135.359       84.587       92.917    18322.029     7155.016     8633.645        5.290        1.706      246.449       87.331        0.126      342.306       17.620      864.703
05/19/2013  14:32:00      120.213       66.829        9.432      111.243       77.826       42.330    12375.061     6056.894     1791.822        1.961        1.011      137.540       27.222        0.039      342.209       17.457      864.700
05/19/2013  14:33:00       70.497       42.312       22.272       44.732       30.600       37.182     2000.980      936.388     1382.514        0.579        0.216       82.220       24.037        0.085      342.539       18.019      864.688
05/19/2013  14:34:00       16.213      122.579       -9.342       49.556       78.463       38.957     2455.766     6156.393     1517.667        1.275        0.506      123.646       34.539        0.078      342.997       18.797      864.691
05/19/2013  14:35:00       71.387      124.538       40.604      101.465       67.378       60.589    10295.080     4539.757     3670.994        2.038        0.925      143.547       37.486        0.068      343.127       19.018      864.694
05/19/2013  14:36:00       73.981      123.150       44.173      110.062       78.621       62.224    12113.713     6181.320     3871.805        2.237        1.108      143.663       46.972        0.107      343.389       19.464      864.666
05/19/2013  14:37:00      143.002      136.567       42.624      131.966      108.798       85.320    17414.901    11837.020     7279.484        3.872        1.827      197.737       64.476        0.106      343.081       18.939      864.694
05/19/2013  14:38:00      159.462      144.661       22.854      129.211       98.247       89.255    16695.590     9652.477     7966.464        4.059        1.716      215.302       59.535        0.076      342.676       18.250      864.693
05/19/2013  14:39:00      281.272      195.003       41.769      125.532       85.356       83.082    15758.238     7285.691     6902.685        7.441        1.497      342.257       43.929        0.016      342.427       17.827      864.694
05/19/2013  14:40:00      156.774      137.402       26.552      116.910       91.804       77.846    13667.959     8427.913     6059.964        3.615        1.408      208.464       47.561        0.052      342.452       17.870      864.702
05/19/2013  14:41:00      223.578      109.753       15.671      108.832       69.062       57.982    11844.333     4769.546     3361.947        4.112        0.999      249.064       40.984        0.027      342.471       17.901      864.707
05/19/2013  14:42:00      252.634      142.736       42.163       74.764       74.082       73.743     5589.630     5488.111     5438.051        5.124        0.826      290.168       44.102        0.023      342.398       17.776      864.694
05/19/2013  14:43:00       91.316      151.495        5.497      136.331       67.382       69.841    18586.017     4540.338     4877.748        2.966        1.400      176.888       39.799        0.051      342.395       17.773      864.695
05/19/2013  14:44:00      -14.362       78.488       12.540       55.254       73.473       44.359     3053.014     5398.326     1967.745        0.847        0.521       79.791       48.317        0.367      342.835       18.522      864.656
05/19/2013  14:45:00       40.201       -8.397       19.528       57.724       82.920       37.699     3332.106     6875.739     1421.181        0.685        0.581       41.068       28.003        0.465      342.705       18.302      864.618
05/19/2013  14:46:00      315.275      186.239       75.245      133.059      121.368       79.970    17704.699    14730.184     6395.136        8.928        1.942      366.173       25.475        0.005      342.637       18.181      864.611
05/19/2013  14:47:00      227.064      183.711       37.898      123.642       70.304       84.391    15287.229     4942.591     7121.838        5.704        1.368      292.075       64.824        0.049      342.449       17.863      864.631
05/19/2013  14:48:00      130.998       95.725       11.560      102.751       78.890       62.090    10557.774     6223.583     3855.170        2.354        1.032      162.246       54.315        0.112      342.381       17.749      864.659
05/19/2013  14:49:00       73.590       47.509       30.232       54.155       43.941       50.748     2932.786     1930.782     2575.405        0.801        0.372       87.594       29.846        0.116      342.494       17.942      864.650
05/19/2013  14:50:00       98.726     -118.128       -5.384       84.938       75.660       50.193     7214.381     5724.476     2519.350        1.959        0.773      153.952       41.764        0.074      342.429       17.833      864.611
05/19/2013  14:51:00       88.173      -11.181       21.650       66.029       84.326       48.442     4359.777     7110.951     2346.657        1.109        0.691       88.879       42.152        0.225      342.599       18.123      864.572
05/19/2013  14:52:00      109.063       69.370       40.437       99.363       85.510       56.043     9872.952     7311.926     3140.833        1.933        1.016      129.255       46.831        0.131      342.754       18.384      864.569
05/19/2013  14:53:00       48.917       34.269       41.921       51.945       45.314       36.979     2698.262     2053.375     1367.434        0.572        0.306       59.726       21.451        0.129      342.732       18.349      864.535
05/19/2013  14:54:00       49.022       38.792       -5.400       76.213       55.864       44.425     5808.403     3120.804     1973.593        0.742        0.545       62.514       22.791        0.133      342.923       18.672      864.536
05/19/2013  14:55:00      192.844      144.008       23.908       93.524       72.006       60.699     8746.669     5184.875     3684.402        3.805        0.881      240.680       31.965        0.018      342.737       18.353      864.524
05/19/2013  14:56:00      342.148      152.123       60.050      166.976      140.750      102.740    27881.110    19810.602    10555.521       10.102        2.912      374.442       66.275        0.031      342.679       18.255      864.494
05/19/2013  14:57:00      198.833      118.228       39.272      131.916      108.329       71.460    17401.867    11735.255     5106.566        4.464        1.712      231.327       45.835        0.039      342.795       18.453      864.441
05/19/2013  14:58:00       89.037       93.827       60.046       93.665       77.335       55.710     8773.063     5980.666     3103.574        1.909        0.893      129.349       35.972        0.077      343.279       19.277      864.451
05/19/2013  14:59:00      178.184      114.212       22.258       94.054       76.134       57.882     8846.228     5796.367     3350.359        3.164        0.900      211.646       41.976        0.039      342.770       18.408      864.468
05/19/2013  15:00:00      194.186      123.717       37.731      140.600       81.825       91.465    19768.276     6695.299     8365.884        4.463        1.741      230.247       43.333        0.035      343.147       19.052      864.459
05/19/2013  15:01:00      210.414      128.118       31.323      146.290       94.721       79.586    21400.752     8972.013     6333.935        4.918        1.835      246.350       49.012        0.040      342.859       18.562      864.455
05/19/2013  15:02:00      154.034      101.172       20.329      157.437       95.748       59.259    24786.367     9167.740     3511.642        3.591        1.873      184.288       26.522        0.021      342.837       18.525      864.469
05/19/2013  15:03:00      167.329      113.748       20.627      180.676      128.625       71.652    32643.645    16544.325     5133.952        4.783        2.716      202.330       52.573        0.068      342.909       18.647      864.452
05/19/2013  15:04:00       28.666       -0.432       16.069       58.342       54.587       32.135     3403.833     2979.735     1032.660        0.425        0.371       28.670       18.861        0.433      343.318       19.346      864.445
05/19/2013  15:05:00       91.136       48.677       31.529       92.800       80.332       58.376     8611.821     6453.297     3407.773        1.507        0.924      103.321       35.838        0.120      343.187       19.120      864.432
05/19/2013  15:06:00       71.149       84.035       18.634       78.339       80.017       57.372     6137.031     6402.772     3291.565        1.415        0.792      110.109       46.696        0.180      343.179       19.108      864.441
05/19/2013  15:07:00       17.081      152.649       -7.600       50.334       86.898       48.871     2533.510     7551.218     2388.396        1.806        0.624      153.602       48.767        0.101      343.042       18.873      864.443
05/19/2013  15:08:00       62.461        6.480       -0.115       54.602       66.569       34.983     2981.358     4431.374     1223.818        0.629        0.432       62.796       12.459        0.039      343.167       19.088      864.445
05/19/2013  15:09:00      160.796      100.130       63.751      153.672       84.180       66.714    23615.101     7086.314     4450.753        3.754        1.758      189.424       48.180        0.065      342.984       18.775      864.441
05/19/2013  15:10:00      216.264      119.743       76.168      140.366      124.693       85.425    19702.736    15548.318     7297.428        5.472        2.127      247.202       80.389        0.106      342.435       17.839      864.427
05/19/2013  15:11:00      116.390       98.019       45.228       73.857       56.336       49.236     5454.800     3173.717     2424.155        1.812        0.553      152.166       31.029        0.042      342.621       18.157      864.438
05/19/2013  15:12:00      146.049      108.953       39.616      104.078       70.322       59.091    10832.131     4945.238     3491.738        2.702        0.963      182.211       35.709        0.038      342.594       18.111      864.421
05/19/2013  15:13:00      -84.235       -7.275       -2.860       67.586       88.653       51.847     4567.902     7859.345     2688.083        1.113        0.756       84.549       48.478        0.329      343.649       19.910      864.385
05/19/2013  15:14:00     -119.130       82.748      -14.386       63.866       67.713       37.191     4078.878     4585.072     1383.172        1.564        0.502      145.049       37.012        0.065      343.420       19.517      864.416
05/19/2013  15:15:00     -134.720      149.407      -34.131       99.952       80.096       42.520     9990.349     6415.328     1807.987        2.992        0.911      201.177       41.871        0.043      342.666       18.232      864.415
05/19/2013  15:16:00     -221.547       89.327      -17.475      114.876       66.446       53.807    13196.440     4415.026     2895.175        3.893        1.025      238.878       56.424        0.056      342.977       18.763      864.411
05/19/2013  15:17:00       45.139      240.293      -22.241      131.992      113.738       64.601    17421.946    12936.383     4173.350        4.740        1.727      244.496       63.018        0.066      342.941       18.700      864.455
05/19/2013  15:18:00       27.850      274.421      -23.590       78.244      183.741       69.096     6122.119    33760.607     4774.211        6.064        2.233      275.831       87.672        0.101      342.730       18.342      864.449
05/19/2013  15:19:00      -22.808      118.260       -0.468       99.528       83.519       46.825     9905.808     6975.349     2192.611        1.679        0.954      120.440       38.757        0.104      343.035       18.861      864.443
05/19/2013  15:20:00      112.175      176.953       -9.819      127.800       83.709       56.263    16332.753     7007.184     3165.512        3.524        1.325      209.513       43.566        0.043      342.772       18.413      864.451
05/19/2013  15:21:00       55.807      176.748      -19.948       74.229       84.400       47.301     5509.935     7123.423     2237.409        2.481        0.744      185.349       42.808        0.053      342.672       18.242      864.437
05/19/2013  15:22:00      161.600      121.755       30.704      204.826       97.686       72.750    41953.644     9542.514     5292.520        4.932        2.839      202.333       60.943        0.091      342.770       18.411      864.408
05/19/2013  15:23:00      192.620      136.282        4.036      104.086       70.526       63.489    10833.849     4973.861     4030.826        3.776        0.992      235.956       21.492        0.008      342.621       18.157      864.404
05/19/2013  15:24:00      190.915       49.224       65.693      162.552      101.754       93.815    26423.172    10353.897     8801.338        4.437        2.279      197.159       54.150        0.075      342.683       18.262      864.373
05/19/2013  15:25:00      124.791       91.925       98.521      142.702      119.826       81.405    20363.881    14358.325     6626.799        3.753        2.067      154.994       75.647        0.238      342.899       18.630      864.345
05/19/2013  15:26:00       86.732      -28.109       46.153       93.183       74.850       51.874     8683.098     5602.500     2690.910        1.371        0.849       91.174       35.203        0.149      342.990       18.787      864.336
05/19/2013  15:27:00       70.439      -50.583       39.271       93.953      106.287       66.682     8827.234    11296.899     4446.541        1.681        1.229       86.720       63.213        0.531      343.147       19.052      864.321
05/19/2013  15:28:00       58.950       80.067       64.052       75.495       62.419       69.162     5699.541     3896.083     4783.321        1.418        0.719       99.427       30.429        0.094      343.059       18.902      864.341
05/19/2013  15:29:00      101.770      120.327       13.443       84.579       95.296       62.452     7153.567     9081.349     3900.227        2.257        1.007      157.594       45.535        0.083      342.991       18.787      864.343
05/19/2013  15:30:00       76.079      126.793        4.781       99.612       66.524       43.776     9922.526     4425.388     1916.296        1.907        0.813      147.867       25.945        0.031      342.698       18.287      864.358
05/19/2013  15:31:00      195.242      135.978       20.910       91.090       69.454       58.927     8297.475     4823.910     3472.428        3.682        0.830      237.928       24.861        0.011      342.891       18.615      864.324
05/19/2013  15:32:00      115.048      123.962        1.506       99.998       75.648       52.977     9999.556     5722.663     2806.575        2.356        0.926      169.123       44.011        0.068      343.038       18.866      864.347
05/19/2013  15:33:00       50.477      169.475       -9.851       84.927      107.340       51.785     7212.602    11521.778     2681.692        2.639        1.071      176.833       43.906        0.062      343.253       19.232      864.340
05/19/2013  15:34:00      236.652      160.651       19.431       94.904       78.964       67.936     9006.705     6235.249     4615.238        5.102        0.993      286.029       40.626        0.020      343.453       19.572      864.330
05/19/2013  15:35:00      129.854      163.490       13.498      108.163      110.173       87.180    11699.189    12138.140     7600.420        3.760        1.572      208.785       75.311        0.130      342.991       18.785      864.368
05/19/2013  15:36:00      174.449      141.682       14.792      118.169       58.661       62.038    13963.801     3441.166     3848.724        3.599        1.063      224.736       44.915        0.040      342.761       18.396      864.369
05/19/2013  15:37:00      214.294      117.730       27.939      104.200       91.798       62.604    10857.736     8426.825     3919.215        4.188        1.160      244.505       35.883        0.022      342.938       18.694      864.335
05/19/2013  15:38:00      219.307      169.494       22.881       98.338       77.104       57.094     9670.294     5945.092     3259.750        4.811        0.944      277.171       32.175        0.013      342.794       18.449      864.338
05/19/2013  15:39:00       88.865      210.005       -1.973      105.460      138.870       86.138    11121.724    19284.792     7419.817        4.491        1.891      228.033       84.593        0.138      342.979       18.765      864.347
05/19/2013  15:40:00       50.175      205.150      -18.129       87.956      132.983       70.571     7736.342    17684.423     4980.333        3.766        1.520      211.197       78.741        0.139      342.853       18.552      864.361
05/19/2013  15:41:00       13.204      334.021      -39.268       85.979      129.297       57.039     7392.437    16717.665     3253.404        7.032        1.368      334.281       63.948        0.037      342.776       18.420      864.368
05/19/2013  15:42:00     -152.713      211.110      -30.413       85.366      103.120       57.979     7287.318    10633.716     3361.602        4.504        1.064      260.555       54.040        0.043      343.088       18.951      864.367
05/19/2013  15:43:00     -112.242      240.199      -51.957      156.970      116.780       62.457    24639.495    13637.585     3900.821        5.758        2.109      265.129       73.841        0.078      342.762       18.397      864.403
05/19/2013  15:44:00       25.163      212.064      -18.163       58.961      109.236       56.221     3476.343    11932.561     3160.832        3.225        0.928      213.552       60.699        0.081      342.724       18.332      864.344
05/19/2013  15:45:00       12.150      182.391       -0.520       60.226       98.925       50.552     3627.151     9786.068     2555.552        2.469        0.798      182.795       54.085        0.088      343.041       18.871      864.347
05/19/2013  15:46:00       42.057       94.385       11.442       75.087       68.972       58.547     5638.099     4757.201     3427.714        1.231        0.691      103.331       46.570        0.203      343.370       19.433      864.348
05/19/2013  15:47:00      -97.747       64.467       -5.667       63.288       44.015       31.158     4005.382     1937.328      970.822        1.033        0.346      117.092       25.300        0.047      343.378       19.449      864.358
05/19/2013  15:48:00     -143.215       21.081      -13.670       55.169       64.453       42.372     3043.587     4154.158     1795.366        1.507        0.450      144.758       32.514        0.050      343.592       19.811      864.361
05/19/2013  15:49:00     -112.288       89.830       -0.089      143.177       84.573       61.586    20499.772     7152.521     3792.825        2.606        1.572      143.798       75.869        0.278      343.308       19.326      864.364
05/19/2013  15:50:00     -254.502       -2.373      -23.670      118.095       73.430       52.075    13946.343     5391.904     2711.804        4.369        1.103      254.513       60.735        0.057      343.305       19.321      864.350
05/19/2013  15:51:00     -211.123      -48.742        6.120      124.905       99.880       63.656    15601.352     9976.087     4052.136        3.830        1.481      216.677       70.686        0.106      343.306       19.322      864.339
05/19/2013  15:52:00     -107.895       81.458      -17.528       73.709       82.093       42.483     5433.064     6739.334     1804.828        1.628        0.699      135.191       43.323        0.103      343.337       19.378      864.351
05/19/2013  15:53:00     -112.664      127.931      -18.388       66.993       98.857       46.898     4488.023     9772.741     2199.406        2.293        0.823      170.469       45.008        0.070      343.347       19.395      864.332
05/19/2013  15:54:00     -105.997      123.794      -16.706       67.856      106.502       47.076     4604.409    11342.734     2216.127        2.250        0.908      162.974       46.634        0.082      343.222       19.179      864.326
05/19/2013  15:55:00      -96.822      126.796      -14.457       69.512      101.653       43.652     4831.978    10333.307     1905.495        2.136        0.854      159.536       37.185        0.054      343.022       18.840      864.306
05/19/2013  15:56:00     -224.570      -65.717      -21.949       50.189       66.918       34.672     2518.960     4478.080     1202.123        3.171        0.410      233.988       12.747        0.003      342.916       18.658      864.273
05/19/2013  15:57:00        8.311       -9.435       22.726       63.974       39.714       30.059     4092.733     1577.194      903.566        0.362        0.329       12.574       25.171        4.007      343.227       19.190      864.269
05/19/2013  15:58:00        0.862      209.491      -30.935       43.252       71.162       35.643     1870.743     5064.092     1270.426        2.652        0.410      209.492       33.375        0.025      343.037       18.864      864.290
05/19/2013  15:59:00       50.092      211.453      -20.842       93.819      176.075       67.355     8802.028    31002.398     4536.639        4.599        2.217      217.306       81.469        0.141      343.307       19.324      864.299
05/19/2013  16:00:00      257.770      284.981       -3.611      153.396      177.334       91.982    23530.243    31447.282     8460.683       10.554        3.172      384.265       92.448        0.058      342.785       18.434      864.310
05/19/2013  16:01:00      177.816      116.465       85.528      108.935       78.885       71.635    11866.809     6222.775     5131.597        3.785        1.161      212.562       69.789        0.108      342.959       18.730      864.271
05/19/2013  16:02:00      180.994      119.078       39.115      106.089       81.385       76.346    11254.875     6623.591     5828.693        3.608        1.185      216.653       51.080        0.056      342.959       18.731      864.288
05/19/2013  16:03:00       49.874      130.578        4.309      103.841       89.152       47.684    10783.021     7948.014     2273.784        2.028        1.050      139.779       33.242        0.057      343.131       19.026      864.284
05/19/2013  16:04:00       13.742        6.692        4.184       45.291       26.302       35.252     2051.302      691.780     1242.724        0.212        0.199       15.285       21.419        1.964      343.020       18.838      864.273
05/19/2013  16:05:00      -13.671       93.750       -0.087       80.282       50.114       32.566     6445.197     2511.398     1060.554        0.949        0.501       94.742       38.329        0.164      343.131       19.028      864.257
05/19/2013  16:06:00      -59.508      310.972      -41.013       50.994       89.226       35.460     2600.356     7961.368     1257.435        5.687        0.591      316.615       25.344        0.006      342.942       18.701      864.264
05/19/2013  16:07:00     -228.850      274.502      -63.144      133.631      141.016       59.324    17857.157    19885.390     3519.340        8.648        2.063      357.384       61.661        0.030      342.940       18.698      864.262
05/19/2013  16:08:00     -263.727       81.142      -38.076       74.658       48.201       35.207     5573.748     2323.379     1239.529        4.336        0.457      275.928       35.680        0.017      342.831       18.512      864.268
05/19/2013  16:09:00       10.056       56.143       17.002       72.887       28.813       35.681     5312.493      830.200     1273.166        0.548        0.371       57.036       24.642        0.187      343.162       19.079      864.251
05/19/2013  16:10:00      114.787      118.460       21.755       78.596       49.649       47.607     6177.404     2465.012     2266.459        1.929        0.545      164.951       14.225        0.007      343.172       19.096      864.257
05/19/2013  16:11:00      210.324      185.863       19.287      142.987       81.054       65.789    20445.348     6569.706     4328.215        5.524        1.567      280.680       49.400        0.031      343.025       18.844      864.238
05/19/2013  16:12:00      293.497      163.141       72.415      122.052       95.588       92.355    14896.601     9137.063     8529.408        7.527        1.628      335.791       53.168        0.025      343.056       18.896      864.218
05/19/2013  16:13:00      115.728      134.561       10.708      103.264      112.838       79.649    10663.487    12732.315     6343.929        3.067        1.487      177.482       47.242        0.071      342.998       18.798      864.232
05/19/2013  16:14:00       66.814      139.151       -6.816       95.914      132.712       54.463     9199.425    17612.549     2966.235        2.682        1.489      154.360       60.047        0.151      343.285       19.288      864.238
05/19/2013  16:15:00       69.226       89.951        9.581      116.649       83.981       56.089    13607.100     7052.856     3145.971        1.839        1.190      113.505       39.670        0.122      343.516       19.682      864.252
05/19/2013  16:16:00       20.634      221.375      -41.278       48.897       90.152       32.104     2390.962     8127.346     1030.671        3.134        0.577      222.335       38.054        0.029      343.020       18.835      864.270
05/19/2013  16:17:00       18.831      171.287        0.429       85.909      108.594       61.949     7380.285    11792.728     3837.676        2.635        1.151      172.319       63.413        0.135      343.315       19.337      864.289
05/19/2013  16:18:00       -2.518      124.754       -9.918       61.466       95.341       36.584     3778.038     9089.842     1338.425        1.493        0.710      124.779       41.524        0.111      343.489       19.636      864.316
05/19/2013  16:19:00        1.700      109.107        0.161       43.289       86.701       36.029     1873.943     7516.990     1298.073        1.130        0.534      109.120       40.900        0.140      343.365       19.424      864.308
05/19/2013  16:20:00      115.777      252.263      -20.731      117.264      195.883       73.451    13750.954    38370.071     5394.988        6.748        2.876      277.563       93.599        0.114      343.104       18.978      864.330
05/19/2013  16:21:00      -34.651      373.275      -41.571       53.016       84.286       35.910     2810.736     7104.183     1289.495        7.673        0.560      374.880       38.663        0.011      342.862       18.565      864.335
05/19/2013  16:22:00       34.039      146.022       21.441       68.322      117.130       52.228     4667.931    13719.339     2727.750        2.202        1.056      149.937       59.551        0.158      343.344       19.388      864.300
05/19/2013  16:23:00       95.031       99.072        9.226       78.249       75.759       50.415     6122.937     5739.361     2541.721        1.666        0.720      137.281       37.677        0.075      343.228       19.191      864.281
05/19/2013  16:24:00      135.468       63.658       28.060      101.115       69.024       63.027    10224.205     4764.269     3972.446        2.107        0.948      149.680       27.759        0.034      343.337       19.375      864.239
05/19/2013  16:25:00       69.961       83.121       23.204       86.020       83.028       68.749     7399.400     6893.577     4726.426        1.568        0.951      108.644       51.898        0.228      343.003       18.809      864.243
05/19/2013  16:26:00       69.765       71.731       19.780       81.983       74.088       52.364     6721.217     5489.069     2742.023        1.267        0.748      100.062       55.655        0.309      343.464       19.593      864.219
05/19/2013  16:27:00      123.152      105.069       49.746       74.241       65.543       47.557     5511.785     4295.915     2261.651        2.037        0.603      161.882       34.559        0.046      343.190       19.126      864.202
05/19/2013  16:28:00       73.993       50.496       22.030       75.173       45.941       41.515     5650.928     2110.563     1723.487        0.900        0.474       89.581       31.479        0.123      343.077       18.934      864.156
05/19/2013  16:29:00       56.457      204.744      -22.251      102.222      149.998       63.332    10449.279    22499.473     4010.901        4.127        1.848      212.386       78.348        0.136      343.125       19.015      864.163
05/19/2013  16:30:00      -72.329      249.469      -29.624       63.862      111.814       47.667     4078.305    12502.267     2272.178        4.359        0.943      259.743       50.952        0.038      343.104       18.978      864.178
05/19/2013  16:31:00      -79.231      181.750      -28.386      102.156      130.950       55.008    10435.901    17147.960     3025.928        3.536        1.530      198.269       73.681        0.138      343.378       19.446      864.156
05/19/2013  16:32:00     -165.639      197.078      -20.722      108.957      121.290       64.041    11871.575    14711.377     4101.284        4.869        1.534      257.441       61.566        0.057      343.382       19.450      864.180
05/19/2013  16:33:00      -50.613      345.795      -49.596      119.143      149.482       66.595    14194.980    22345.004     4434.869        8.278        2.049      349.480       73.006        0.044      343.003       18.807      864.196
05/19/2013  16:34:00       53.710      407.829      -46.122      114.596      164.580       77.877    13132.236    27086.710     6064.787       10.880        2.314      411.350       83.843        0.042      342.958       18.730      864.165
05/19/2013  16:35:00      -27.051      413.020      -56.046      118.598      169.280       80.756    14065.397    28655.647     6521.536       11.184        2.462      413.905       90.402        0.048      342.960       18.731      864.168
05/19/2013  16:36:00      -34.831      329.475      -34.594       83.147      120.773       60.284     6913.492    14586.041     3634.109        6.804        1.257      331.311       57.616        0.030      343.386       19.458      864.153
05/19/2013  16:37:00     -157.710      270.038      -34.634      124.070      134.395       73.910    15393.386    18061.886     5462.653        6.895        1.946      312.718       82.119        0.069      343.487       19.631      864.213
05/19/2013  16:38:00      -63.121      393.388      -48.700       68.125      126.949       39.695     4640.989    16116.096     1575.670        9.172        1.117      398.420       40.080        0.010      342.949       18.714      864.228
05/19/2013  16:39:00      -95.226       99.060       10.420      103.513       69.909       59.232    10714.889     4887.239     3508.457        1.905        0.956      137.408       51.128        0.138      343.344       19.387      864.215
05/19/2013  16:40:00       16.869      235.549      -16.840       58.089      100.030       49.034     3374.297    10006.100     2404.365        3.591        0.789      236.153       52.517        0.049      343.139       19.037      864.212
05/19/2013  16:41:00      -60.424      150.281      -22.657       37.236      113.058       25.549     1386.498    12782.118      652.768        2.078        0.741      161.974       34.104        0.044      342.938       18.697      864.207
05/19/2013  16:42:00      -11.540      114.548       -3.200       29.538       81.457       41.822      872.485     6635.290     1749.114        1.126        0.463      115.128       49.558        0.185      343.252       19.233      864.196
05/19/2013  16:43:00       24.328       96.528       -2.210       62.634       83.132       33.155     3923.048     6910.863     1099.240        1.092        0.597       99.546       44.703        0.202      343.245       19.220      864.188
05/19/2013  16:44:00      -84.689      272.845      -36.746       75.900       58.334       41.625     5760.802     3402.799     1732.613        4.693        0.545      285.687       31.751        0.012      343.115       18.994      864.188
05/19/2013  16:45:00     -109.711      149.045      -25.547      113.970      120.302       45.307    12989.128    14472.605     2052.717        3.220        1.476      185.070       54.677        0.087      343.347       19.391      864.176
05/19/2013  16:46:00      -43.052      294.301      -33.450       31.948       73.111       31.641     1020.681     5345.153     1001.183        4.847        0.368      297.434       33.505        0.013      342.828       18.506      864.189
05/19/2013  16:47:00      -31.168      222.612      -31.291       30.718       33.396       18.421      943.579     1115.273      339.334        2.695        0.120      224.783       16.042        0.005      342.757       18.387      864.197
05/19/2013  16:48:00       23.643      146.692      -10.845       69.240       51.145       31.845     4794.182     2615.793     1014.101        1.531        0.421      148.585       27.104        0.033      343.022       18.842      864.171
05/19/2013  16:49:00       57.370       38.859       10.429       48.303       37.236       24.922     2333.183     1386.551      621.106        0.462        0.217       69.291       14.584        0.044      342.957       18.730      864.154
05/19/2013  16:50:00        3.188      338.393      -46.807       66.878      189.469       55.559     4472.641    35898.446     3086.851        8.008        2.173      338.408       70.114        0.043      343.021       18.835      864.189
05/19/2013  16:51:00      -61.959      263.443      -29.419      102.688      177.640       69.693    10544.800    31556.140     4857.171        6.052        2.348      270.631       70.209        0.067      343.113       18.993      864.161
05/19/2013  16:52:00      -28.529      334.168      -28.556      132.758      155.681       82.019    17624.663    24236.622     6727.120        8.093        2.429      335.384       91.589        0.075      343.097       18.966      864.160
05/19/2013  16:53:00       70.278      181.643       -2.034       70.583      132.925       72.835     4982.008    17668.938     5304.973        3.294        1.398      194.765       83.467        0.184      343.198       19.137      864.142
05/19/2013  16:54:00       36.479      151.413       -7.962       95.908       87.722       51.971     9198.346     7695.140     2700.967        2.195        0.980      155.745       66.147        0.180      343.038       18.866      864.141
05/19/2013  16:55:00       80.658       63.967       24.703       97.308       62.382       37.568     9468.921     3891.485     1411.367        1.299        0.739      102.945       16.489        0.026      343.256       19.239      864.109
05/19/2013  16:56:00      -62.248      118.986        0.744       62.140      112.559       43.351     3861.331    12669.528     1879.301        1.822        0.921      134.285       51.223        0.146      343.383       19.454      864.097
05/19/2013  16:57:00       78.192      171.550        3.253      119.363      100.126       69.523    14247.514    10025.118     4833.398        3.232        1.455      188.530       56.242        0.089      343.185       19.116      864.097
05/19/2013  16:58:00      253.708      135.201       25.822      123.069       69.705       83.300    15145.872     4858.721     6938.839        5.512        1.347      287.484       46.952        0.027      343.231       19.193      864.068
05/19/2013  16:59:00      123.269      162.569       -6.996      126.535      125.516       79.229    16011.123    15754.153     6277.295        3.985        1.902      204.019       80.153        0.154      343.259       19.241      864.065
05/19/2013  17:00:00      142.401      180.384      -10.822      114.383      126.501       85.997    13083.410    16002.444     7395.485        4.470        1.824      229.819       72.826        0.100      343.227       19.188      864.052
05/19/2013  17:01:00      107.221      133.521        4.977      100.714       90.823       57.249    10143.333     8248.866     3277.495        2.550        1.083      171.243       48.083        0.079      343.329       19.361      864.026
05/19/2013  17:02:00       29.441      271.995      -22.711      165.179      149.544       75.704    27284.028    22363.502     5731.150        6.536        2.769      273.584       69.675        0.065      343.452       19.570      864.034
05/19/2013  17:03:00      -44.511      338.140      -27.777       92.121      158.570       62.445     8486.227    25144.563     3899.370        7.730        1.877      341.057       68.930        0.041      343.543       19.727      864.061
05/19/2013  17:04:00       26.607      250.818       -1.660      109.797      193.194       90.270    12055.340    37324.024     8148.649        6.056        2.876      252.226       95.147        0.142      343.349       19.395      864.087
05/19/2013  17:05:00       93.294      146.589        8.055       94.713       96.628       67.084     8970.491     9336.938     4500.236        2.653        1.140      173.759       50.454        0.084      343.314       19.336      864.070
05/19/2013  17:06:00      118.126      154.616       15.421      115.989       78.303       72.356    13453.503     6131.322     5235.368        3.145        1.241      194.576       49.763        0.065      343.250       19.226      864.061
05/19/2013  17:07:00       65.656      156.685      -13.743       79.886      113.239       71.967     6381.840    12823.053     5179.288        2.671        1.219      169.885       62.920        0.137      343.254       19.235      864.058
05/19/2013  17:08:00      133.434      144.318       30.103      130.092      106.396       64.995    16923.995    11320.206     4224.407        3.600        1.623      196.551       61.734        0.099      343.374       19.439      864.069
05/19/2013  17:09:00      -19.317      272.016      -15.262       88.663      151.387       67.809     7861.040    22917.965     4598.002        5.498        1.769      272.701       74.410        0.074      343.245       19.219      864.125
05/19/2013  17:10:00      -17.646      290.957      -44.237       66.085      126.057       46.814     4367.230    15890.244     2191.567        5.468        1.122      291.492       47.393        0.026      343.189       19.121      864.115
05/19/2013  17:11:00      -11.555      282.655      -38.936       94.573       84.215       49.761     8944.038     7092.104     2476.116        5.002        0.926      282.891       44.585        0.025      343.271       19.261      864.109
05/19/2013  17:12:00      -23.362      235.230      -25.797       43.812       68.158       37.900     1919.459     4645.511     1436.437        3.227        0.400      236.387       37.356        0.025      343.458       19.580      864.098
05/19/2013  17:13:00        6.231      163.650       -8.726      102.181       70.822       45.792    10441.042     5015.796     2096.932        2.222        0.878      163.769       47.441        0.084      343.486       19.630      864.094
05/19/2013  17:14:00      125.843      148.199        6.844      117.237       95.635       77.554    13744.512     9146.110     6014.625        3.337        1.445      194.421       64.946        0.112      343.331       19.364      864.088
05/19/2013  17:15:00      -28.235      234.008      -24.605       58.624       99.057       48.001     3436.730     9812.267     2304.086        3.585        0.778      235.706       49.413        0.044      343.053       18.891      864.111
05/19/2013  17:16:00       85.699      134.088        2.191      117.249       96.292       70.098    13747.254     9272.092     4913.671        2.663        1.397      159.134       61.326        0.149      343.172       19.095      864.125
05/19/2013  17:17:00       70.034      173.616        4.394      112.510      102.059       75.933    12658.610    10416.015     5765.847        3.195        1.442      187.210       57.375        0.094      342.878       18.593      864.101
05/19/2013  17:18:00      181.308      175.248       18.714      145.284       89.011       69.408    21107.312     7922.984     4817.470        4.888        1.692      252.160       65.468        0.067      343.082       18.940      864.044
05/19/2013  17:19:00      223.490      152.796       12.347      113.600       92.727       69.265    12904.986     8598.292     4797.661        4.987        1.315      270.729       47.085        0.030      343.226       19.186      864.038
05/19/2013  17:20:00      135.987      197.727       -9.940      118.946      123.054       91.690    14148.058    15142.312     8407.038        4.768        1.885      239.976       79.828        0.111      343.287       19.287      864.052
05/19/2013  17:21:00      245.667      145.474       15.669      128.334       88.966       75.792    16469.620     7914.988     5744.475        5.594        1.506      285.509       55.465        0.038      343.234       19.198      864.037
05/19/2013  17:22:00       99.792      168.358       13.726      114.529      119.480       72.206    13116.902    14275.564     5213.691        3.554        1.630      195.711       70.440        0.130      343.173       19.096      864.042
05/19/2013  17:23:00       96.467       69.726       12.299       95.004       62.860       43.081     9025.679     3951.349     1855.972        1.457        0.742      119.027       19.417        0.027      343.150       19.059      864.040
05/19/2013  17:24:00      113.169      105.765       12.430      106.538       80.896       61.194    11350.416     6544.122     3744.744        2.289        1.082      154.898       47.430        0.094      343.305       19.320      864.031
05/19/2013  17:25:00      143.805      101.676       47.976      150.094       73.216       84.279    22528.338     5360.634     7102.996        3.415        1.750      176.119       89.583        0.259      343.319       19.345      864.011
05/19/2013  17:26:00      182.431      126.206       18.274       99.003       86.204       65.367     9801.521     7431.149     4272.797        3.552        1.075      221.831       48.123        0.047      343.471       19.603      864.018
05/19/2013  17:27:00      204.024      150.051       25.564      122.003       98.784       76.946    14884.629     9758.236     5920.620        4.767        1.528      253.261       49.466        0.038      343.213       19.164      864.010
05/19/2013  17:28:00       27.375      418.770      -60.153       84.818      128.447       62.153     7194.011    16498.670     3863.025       10.364        1.378      419.663       66.893        0.025      343.181       19.108      864.040
05/19/2013  17:29:00      -18.073      189.007        6.758       62.890      154.514       63.682     3955.167    23874.443     4055.413        3.398        1.594      189.869       80.243        0.179      343.113       18.994      864.035
05/19/2013  17:30:00      161.985      115.686       17.272      123.961      103.695       59.102    15366.422    10752.656     3493.059        3.476        1.481      199.054       44.854        0.051      343.363       19.420      863.998
05/19/2013  17:31:00      175.275      184.275       20.838      118.981       83.997       94.266    14156.543     7055.470     8886.034        4.760        1.505      254.319       57.695        0.051      343.162       19.075      863.989
05/19/2013  17:32:00      -42.211      389.784      -46.755       76.068      179.519       55.149     5786.411    32227.140     3041.418        9.847        2.053      392.063       72.809        0.034      343.104       18.977      864.050
05/19/2013  17:33:00       -3.831      419.411      -46.849       83.795      110.512       52.287     7021.655    12212.919     2733.972       10.004        1.098      419.428       47.970        0.013      343.070       18.919      864.042
05/19/2013  17:34:00       85.396      170.555       -6.872       94.266      106.545       64.237     8886.089    11351.823     4126.410        3.039        1.218      190.739       58.900        0.095      343.130       19.024      864.011
05/19/2013  17:35:00       77.560       87.862       14.092       72.788       81.661       60.460     5298.083     6668.592     3655.383        1.477        0.781      117.198       53.851        0.211      343.124       19.013      863.982
05/19/2013  17:36:00      -38.228      347.558      -42.722       52.283       63.706       27.564     2733.556     4058.400      759.760        6.582        0.378      349.654       19.776        0.003      342.930       18.679      863.994
05/19/2013  17:37:00       35.904      205.353      -23.930       63.511      115.208       51.574     4033.694    13272.793     2659.872        3.199        0.998      208.468       68.339        0.107      343.062       18.908      863.994
05/19/2013  17:38:00       62.369      175.532       -7.159       85.365      135.363       78.969     7287.259    18323.054     6236.113        3.329        1.592      186.283       73.399        0.155      343.200       19.141      863.974
05/19/2013  17:39:00      117.797      170.481        9.346      136.599      135.144       94.126    18659.153    18263.768     8859.679        4.440        2.289      207.219       70.235        0.115      343.261       19.244      863.959
05/19/2013  17:40:00        5.941      239.507      -10.533       99.496      148.808       80.871     9899.534    22143.775     6540.160        4.804        1.929      239.581       84.856        0.125      343.303       19.315      863.986
05/19/2013  17:41:00       10.615      466.260      -56.777      117.285      149.910       67.293    13755.732    22473.077     4528.368       13.074        2.038      466.381       63.416        0.018      343.113       18.991      864.018
05/19/2013  17:42:00      -90.218      524.410      -54.419       86.165      111.081       60.080     7424.474    12338.921     3609.605       15.474        1.169      532.114       49.036        0.008      343.031       18.853      864.040
05/19/2013  17:43:00       25.095      326.613      -31.044       78.311      134.551       77.363     6132.648    18103.911     5984.990        6.924        1.511      327.576       83.054        0.064      343.127       19.015      864.037
05/19/2013  17:44:00     -100.939      311.907      -29.992      103.999      128.850       60.952    10815.864    16602.233     3715.157        6.975        1.557      327.834       58.096        0.031      343.102       18.975      864.062
05/19/2013  17:45:00      -41.732      163.531      -25.524       83.797       73.585       31.322     7021.984     5414.733      981.059        2.127        0.671      168.771       27.418        0.026      343.066       18.914      864.027
05/19/2013  17:46:00     -121.456      221.771      -30.075      118.617      150.860       63.304    14070.024    22758.733     4007.439        5.283        2.042      252.852       67.421        0.071      343.222       19.178      864.012
05/19/2013  17:47:00     -108.496      212.672      -37.130      113.000      151.088       51.519    12769.045    22827.502     2654.221        4.831        1.913      238.749       41.648        0.030      343.292       19.297      864.016
05/19/2013  17:48:00       80.300      169.360        6.245      110.152      113.492       66.725    12133.523    12880.461     4452.262        3.231        1.473      187.432       62.536        0.111      343.170       19.090      864.014
05/19/2013  17:49:00        4.358      277.604      -38.413       83.853       95.610       48.338     7031.297     9141.217     2336.516        4.853        0.925      277.638       41.242        0.022      343.264       19.249      864.039
05/19/2013  17:50:00       -8.655      264.763      -15.973      114.540      171.595       65.745    13119.314    29444.853     4322.345        5.865        2.344      264.905       82.110        0.096      343.116       18.999      864.045
05/19/2013  17:51:00     -153.670      240.683      -41.024       84.618       76.733       46.717     7160.207     5887.938     2182.523        4.923        0.762      285.557       47.028        0.027      342.996       18.792      864.065
05/19/2013  17:52:00     -104.471      208.827      -33.076       60.515       64.361       40.428     3662.008     4142.293     1634.395        3.253        0.472      233.501       36.655        0.025      343.033       18.857      864.041
05/19/2013  17:53:00      -83.026      147.624      -25.827       76.335       74.184       39.040     5827.064     5503.308     1524.157        2.110        0.643      169.370       39.765        0.055      343.097       18.968      864.030
05/19/2013  17:54:00      -30.920      321.463      -35.584       93.357       94.512       51.628     8715.497     8932.587     2665.409        6.293        1.016      322.947       50.170        0.024      343.123       19.009      864.013
05/19/2013  17:55:00      -47.413      368.411      -44.612      102.727      124.014       59.706    10552.855    15379.518     3564.760        8.473        1.475      371.449       55.754        0.023      343.166       19.083      864.029
05/19/2013  17:56:00      -68.094      463.738      -55.805       82.943      130.542       62.026     6879.557    17041.281     3847.218       12.528        1.388      468.711       67.596        0.021      343.020       18.833      864.053
05/19/2013  17:57:00      -16.455      289.375      -32.404       79.795      127.154       45.035     6367.318    16168.193     2028.140        5.481        1.228      289.843       57.841        0.040      342.854       18.551      864.069
05/19/2013  17:58:00      -21.265      220.880       -5.308      125.861      137.938       77.754    15841.035    19026.965     6045.737        4.508        2.046      221.901       81.307        0.134      343.022       18.839      864.079
05/19/2013  17:59:00      -70.202      278.939      -27.288       57.513      126.918       49.128     3307.785    16108.128     2413.602        5.265        1.091      287.637       60.510        0.044      342.952       18.718      864.094
05/19/2013  18:00:00       83.857      119.377       28.875      132.366       95.171       78.163    17520.714     9057.536     6109.513        2.740        1.634      145.886       60.922        0.174      342.992       18.788      864.088
05/19/2013  18:01:00      162.863      152.576       17.733       99.249       84.537       72.060     9850.440     7146.575     5192.693        3.615        1.109      223.168       56.902        0.065      342.893       18.619      864.076
05/19/2013  18:02:00      228.007      137.940       17.401       91.204       82.333       63.457     8318.094     6778.712     4026.820        4.522        0.956      266.486       43.388        0.027      342.883       18.601      864.059
05/19/2013  18:03:00      180.936      110.642       26.602      113.565       68.558       63.279    12897.036     4700.207     4004.235        3.364        1.080      212.083       48.714        0.053      343.072       18.923      864.049
05/19/2013  18:04:00       32.358       98.223       43.118       70.739       89.315       80.993     5003.947     7977.144     6559.793        1.604        0.977      103.415       40.659        0.155      343.187       19.122      864.053
05/19/2013  18:05:00       21.832      387.650      -47.733       66.689      163.677       54.864     4447.470    26790.008     3010.034        9.363        1.712      388.264       75.903        0.038      342.904       18.636      864.104
05/19/2013  18:06:00       46.992      166.330        7.339       77.009      119.960       72.536     5930.455    14390.307     5261.440        2.775        1.279      172.841       75.071        0.189      343.028       18.849      864.074
05/19/2013  18:07:00      -39.569      169.236      -15.240       76.906      107.397       48.619     5914.458    11534.201     2363.843        2.512        0.991      173.800       43.889        0.064      343.188       19.121      864.083
05/19/2013  18:08:00      -43.730      255.435      -25.430       75.582      108.543       50.732     5712.655    11781.665     2573.766        4.393        1.003      259.151       51.709        0.040      343.068       18.915      864.113
05/19/2013  18:09:00       38.486      179.888        2.238       76.113       78.362       61.651     5793.152     6140.578     3800.835        2.479        0.787      183.959       50.435        0.075      342.895       18.622      864.092
05/19/2013  18:10:00      -26.704        9.739      -26.860       70.554       85.427       35.693     4977.824     7297.844     1273.976        0.754        0.677       28.424       25.186        0.785      342.887       18.611      864.056
05/19/2013  18:11:00       40.025      -84.138       -3.829       42.723       40.577       35.330     1825.225     1646.522     1248.218        0.671        0.236       93.173       14.513        0.024      342.793       18.452      863.986
05/19/2013  18:12:00       42.380       42.190       27.792       42.752       53.282       35.897     1827.697     2838.958     1288.560        0.515        0.298       59.800       31.419        0.276      342.862       18.570      863.964
05/19/2013  18:13:00       63.870       95.080        8.936       96.570       74.837       55.036     9325.719     5600.537     3028.944        1.557        0.898      114.541       38.912        0.115      342.982       18.772      863.985
05/19/2013  18:14:00       44.325      169.990      -23.912       72.017       96.959       54.347     5186.468     9401.001     2953.635        2.448        0.877      175.674       55.741        0.101      342.981       18.769      864.009
05/19/2013  18:15:00      -41.244      303.935      -32.016      101.112      114.602       60.246    10223.710    13133.662     3629.640        6.104        1.349      306.721       55.263        0.032      342.853       18.551      864.028
05/19/2013  18:16:00       82.893      180.637       -5.475      128.218       95.541       73.271    16439.854     9128.122     5368.681        3.523        1.547      198.748       65.126        0.107      342.927       18.677      864.051
05/19/2013  18:17:00       95.129      196.619        1.210       98.095      169.738       93.180     9622.547    28810.835     8682.586        4.740        2.356      218.423       98.341        0.203      342.890       18.615      864.043
05/19/2013  18:18:00       77.881      221.100       -6.200       87.304      139.363       80.039     7622.022    19422.030     6406.282        4.421        1.673      234.416       80.042        0.117      342.899       18.628      864.059
05/19/2013  18:19:00      102.821      207.570       -8.339      137.656      155.356       86.017    18949.060    24135.524     7398.875        5.210        2.524      231.641       93.842        0.164      342.907       18.643      864.038
05/19/2013  18:20:00      141.445      191.625        9.732      147.615      141.268      102.785    21790.095    19956.763    10564.735        5.456        2.616      238.175       96.172        0.163      342.912       18.652      864.023
05/19/2013  18:21:00       29.231      299.969      -28.278       99.984      125.211       58.602     9996.853    15677.888     3434.235        6.037        1.455      301.390       63.036        0.044      342.993       18.788      864.050
05/19/2013  18:22:00      -92.620      455.192      -37.092       94.429      133.040       61.408     8916.748    17699.745     3770.889       12.376        1.519      464.519       54.191        0.014      342.863       18.568      864.062
05/19/2013  18:23:00      -35.763      279.690      -22.767       74.093      142.183       61.077     5489.779    20215.996     3730.457        5.472        1.472      281.967       71.179        0.064      342.930       18.681      864.048
05/19/2013  18:24:00       52.838      127.775        0.311       71.140       87.359       43.819     5060.917     7631.550     1920.088        1.686        0.731      138.269       49.745        0.129      343.155       19.066      864.030
05/19/2013  18:25:00       19.064      363.517      -41.197       68.475       91.346       48.134     4688.815     8344.144     2316.881        7.477        0.767      364.017       30.707        0.007      342.973       18.754      864.025
05/19/2013  18:26:00      206.911      138.265        7.736       97.934       78.965       68.761     9591.045     6235.493     4728.021        4.127        1.028      248.856       37.882        0.023      343.017       18.830      864.002
05/19/2013  18:27:00      144.957      172.717        9.784      107.413       96.876       83.800    11537.533     9384.922     7022.366        3.944        1.397      225.485       67.653        0.090      342.910       18.649      863.988
05/19/2013  18:28:00      127.221      130.930       28.100      149.416      111.577       77.517    22325.106    12449.482     6008.914        3.744        2.039      182.559       39.368        0.047      342.922       18.669      863.971
05/19/2013  18:29:00      320.715      189.968       39.178      130.014      106.722       90.806    16903.733    11389.593     8245.642        8.850        1.827      372.755       43.835        0.014      342.923       18.669      863.933
05/19/2013  18:30:00      166.034      132.959       26.018      132.711       91.126       72.193    17612.267     8303.965     5211.876        3.852        1.556      212.710       43.844        0.042      343.007       18.813      863.928
05/19/2013  18:31:00      153.199      264.336      -14.247      196.587      144.659       90.393    38646.590    20926.318     8170.967        8.063        3.387      305.521       88.132        0.083      342.993       18.788      863.969
05/19/2013  18:32:00       11.318      199.217      -15.360       64.457      123.098       54.711     4154.721    15153.005     2993.279        3.117        1.115      199.538       55.171        0.076      342.987       18.779      864.002
05/19/2013  18:33:00       51.407       41.772       31.808       95.258       53.000       50.983     9073.994     2809.046     2599.218        0.994        0.724       66.239       26.687        0.162      343.090       18.957      863.996
05/19/2013  18:34:00       60.691      120.878        0.039       90.069       95.074       61.961     8112.345     9038.989     3839.209        1.964        1.050      135.258       47.803        0.125      343.062       18.907      864.007
05/19/2013  18:35:00       67.852      330.488      -27.325      102.316      173.842       83.021    10468.469    30221.067     6892.539        8.107        2.379      337.382       85.066        0.064      342.951       18.717      864.031
05/19/2013  18:36:00      109.143      168.213       23.516      119.717      156.695       98.219    14332.279    24553.297     9646.971        4.464        2.427      200.519       91.398        0.208      342.865       18.571      864.025
05/19/2013  18:37:00       36.024      355.014      -42.000       90.107      203.182       89.590     8119.318    41282.850     8026.280        9.325        2.871      356.837      105.033        0.087      342.817       18.489      864.060
05/19/2013  18:38:00      240.771      203.440       11.356      139.023       96.831       82.135    19327.390     9376.230     6746.176        6.746        1.772      315.212       62.095        0.039      342.724       18.332      864.029
05/19/2013  18:39:00       72.360      185.971        5.590       85.289      138.073       78.195     7274.243    19064.245     6114.482        3.615        1.623      199.553       75.886        0.145      342.710       18.308      864.018
05/19/2013  18:40:00       12.355      259.173       -5.370      130.464      156.862       80.501    17020.836    24605.692     6480.445        5.772        2.405      259.467       82.309        0.101      342.783       18.430      864.010
05/19/2013  18:41:00       98.717      120.546       12.716       81.424      121.301       61.356     6629.864    14714.011     3764.559        2.477        1.255      155.809       56.315        0.131      342.851       18.549      864.021
05/19/2013  18:42:00      214.323      126.239       35.457      140.296      102.455       77.213    19683.083    10497.105     5961.831        4.963        1.807      248.738       44.955        0.033      342.791       18.445      864.012
05/19/2013  18:43:00      166.589      206.605      -17.777      112.512      117.741       68.916    12658.996    13862.973     4749.392        5.101        1.564      265.400       59.146        0.050      342.822       18.496      864.024
05/19/2013  18:44:00      279.165      168.745       29.599      113.444       97.220       67.202    12869.512     9451.674     4516.175        6.706        1.342      326.202       31.555        0.009      342.738       18.353      864.025
05/19/2013  18:45:00       88.980      109.568        3.257       77.357       73.899       48.657     5984.084     5461.083     2367.475        1.687        0.691      141.148       39.090        0.077      342.706       18.303      864.021
05/19/2013  18:46:00      157.354       96.484       11.437       91.626       62.759       38.942     8395.389     3938.646     1516.450        2.402        0.693      184.579       30.932        0.028      342.782       18.431      864.007
05/19/2013  18:47:00      164.290      152.175       42.554       93.451       66.631       67.624     8733.142     4439.624     4572.967        3.485        0.887      223.939       51.516        0.053      342.856       18.556      863.995
05/19/2013  18:48:00      187.168      171.818       20.150      102.912       86.866       75.129    10590.883     7545.744     5644.345        4.437        1.189      254.074       59.075        0.054      342.745       18.366      864.008
05/19/2013  18:49:00       65.265      232.660      -24.107       67.757      105.836       70.155     4590.983    11201.346     4921.681        3.984        1.036      241.641       68.696        0.081      342.697       18.284      864.042
05/19/2013  18:50:00       56.588       84.909       10.804       74.045       79.954       42.833     5482.648     6392.680     1834.670        1.212        0.685      102.037       47.316        0.215      342.776       18.421      864.046
05/19/2013  18:51:00       59.035      163.063        9.615       98.961      119.979       63.780     9793.262    14394.920     4067.922        2.921        1.413      173.420       58.529        0.114      342.807       18.473      864.053
05/19/2013  18:52:00      182.016      161.520       34.126      135.180      109.234       96.128    18273.685    11932.059     9240.525        4.991        1.972      243.349       75.511        0.096      342.753       18.380      864.034
05/19/2013  18:53:00      265.483      141.466       27.891      115.763       95.326       79.880    13400.968     9087.126     6380.802        6.006        1.443      300.822       31.971        0.011      342.818       18.492      864.044
05/19/2013  18:54:00      357.064      191.182       44.773      150.219      124.251       93.232    22565.887    15438.254     8692.146       10.636        2.335      405.025       52.059        0.017      342.692       18.277      864.041
05/19/2013  18:55:00      277.396      155.072       10.125      138.933      101.803       71.356    19302.375    10363.817     5091.634        6.792        1.738      317.799       49.463        0.024      342.757       18.388      864.066
05/19/2013  18:56:00      209.173      162.571       27.903      127.068       98.096       84.607    16146.252     9622.846     7158.295        5.194        1.646      264.920       46.409        0.031      342.688       18.269      864.087
05/19/2013  18:57:00      253.787      181.276       20.692      159.315       95.518       79.171    25381.346     9123.648     6267.978        6.923        2.039      311.880       59.948        0.037      342.702       18.293      864.118
05/19/2013  18:58:00      183.576      127.130       42.274      132.899      105.445       70.707    17662.253    11118.641     4999.444        4.271        1.689      223.299       54.139        0.059      342.791       18.445      864.116
05/19/2013  18:59:00      247.250      134.814       39.028      124.846      106.975       63.200    15586.515    11443.610     3994.202        5.592        1.551      281.616       43.930        0.024      342.751       18.377      864.133
05/19/2013  19:00:00       94.823       81.734        3.709       90.628       72.117       45.220     8213.507     5200.873     2044.821        1.557        0.773      125.187       41.816        0.112      342.837       18.524      864.151
05/19/2013  19:01:00       20.446      256.437      -42.066       57.834      135.111       41.803     3344.826    18254.868     1747.494        4.564        1.167      257.251       38.896        0.023      342.743       18.365      864.166
05/19/2013  19:02:00       17.091      152.767       -6.260       51.503       86.441       50.921     2652.587     7472.054     2592.983        1.819        0.636      153.720       35.934        0.055      342.769       18.409      864.166
05/19/2013  19:03:00       97.899       88.511      -11.319       49.362       53.685       44.245     2436.597     2882.093     1957.635        1.241        0.364      131.979       38.419        0.085      342.758       18.390      864.177
05/19/2013  19:04:00       28.778       39.123        3.643       36.831       54.790       22.498     1356.510     3001.930      506.169        0.362        0.243       48.568       19.181        0.156      342.692       18.278      864.174
05/19/2013  19:05:00       60.095       70.545       -0.565       78.775       51.687       29.448     6205.442     2671.571      867.213        0.916        0.487       92.671       32.409        0.122      342.724       18.333      864.185
05/19/2013  19:06:00       72.562      101.457        1.476       72.148       63.576       43.608     5205.286     4041.954     1901.680        1.335        0.557      124.735       40.518        0.106      342.747       18.372      864.195
05/19/2013  19:07:00      177.586      139.070       -0.272       93.382       62.021       63.604     8720.247     3846.654     4045.504        3.374        0.831      225.560       49.538        0.048      342.708       18.305      864.214
05/19/2013  19:08:00      132.303      189.088        1.852      137.431       84.226       61.603    18887.397     7094.027     3794.889        4.151        1.489      230.777       49.632        0.046      342.703       18.293      864.213
05/19/2013  19:09:00      127.860       80.695       15.628       82.345       64.407       55.960     6780.631     4148.228     3131.507        1.858        0.703      151.195       38.358        0.064      342.782       18.429      864.221
05/19/2013  19:10:00      102.646       98.100       29.561      123.306       54.707       48.917    15204.403     2992.817     2392.830        2.081        1.030      141.985       42.751        0.091      342.750       18.375      864.227
05/19/2013  19:11:00       81.496       87.765       -0.537       71.137       52.775       35.539     5060.541     2785.169     1262.986        1.172        0.455      119.768       31.028        0.067      342.721       18.328      864.250
05/19/2013  19:12:00      112.993       82.985       31.915       98.149       60.696       57.141     9633.195     3684.000     3265.127        1.862        0.829      140.192       36.225        0.067      342.679       18.256      864.270
05/19/2013  19:13:00      -55.193      259.600      -40.948       53.979       78.451       31.961     2913.754     6154.612     1021.517        4.110        0.504      265.402       19.500        0.005      342.747       18.370      864.276
05/19/2013  19:14:00       10.939      287.194      -32.859       57.023       86.851       43.448     3251.648     7543.049     1887.761        4.818        0.634      287.403       46.788        0.027      342.660       18.222      864.270
05/19/2013  19:15:00        7.358      197.248      -20.827       50.264      103.357       45.242     2526.441    10682.726     2046.827        2.732        0.763      197.386       54.799        0.077      342.655       18.214      864.269
05/19/2013  19:16:00       82.567       61.116       21.850       63.795       63.424       45.346     4069.788     4022.649     2056.237        1.059        0.507      102.726       39.675        0.149      342.728       18.340      864.279
05/19/2013  19:17:00      220.513      183.496       23.191      108.087       68.009       66.326    11682.893     4625.222     4399.108        5.177        1.035      286.875       40.513        0.020      342.657       18.216      864.296
05/19/2013  19:18:00      171.066       94.130       41.833       84.719       85.081       59.825     7177.360     7238.731     3579.086        2.893        0.900      195.254       38.377        0.039      342.661       18.224      864.307
05/19/2013  19:19:00      198.591      133.183       29.659      121.433       81.705       70.938    14745.865     6675.718     5032.224        4.225        1.323      239.116       38.612        0.026      342.641       18.189      864.332
05/19/2013  19:20:00      113.216      110.389       16.700       87.611       59.801       58.263     7675.711     3576.127     3394.529        1.996        0.732      158.126       47.827        0.091      342.622       18.159      864.333
05/19/2013  19:21:00      116.568       84.422       22.386       94.006       73.724       54.607     8837.102     5435.292     2981.965        1.923        0.863      143.928       37.309        0.067      342.633       18.176      864.346
05/19/2013  19:22:00       24.257      104.373       -2.671       44.295       95.158       43.012     1962.067     9054.966     1850.052        1.218        0.643      107.155       53.505        0.249      342.657       18.219      864.371
05/19/2013  19:23:00       46.522       80.578       -1.506       41.656       60.316       32.881     1735.244     3637.991     1081.183        0.756        0.323       93.043       28.625        0.095      342.644       18.198      864.383
05/19/2013  19:24:00       52.299       94.711        3.412       59.027       69.140       51.297     3484.184     4780.345     2631.408        1.130        0.545      108.192       34.124        0.099      342.649       18.206      864.392
05/19/2013  19:25:00       59.882      111.303       -5.215       53.623       69.922       42.874     2875.439     4889.068     1838.189        1.280        0.480      126.389       45.726        0.131      342.639       18.189      864.403
05/19/2013  19:26:00       70.784      112.768      -15.517       45.995       65.094       35.360     2115.521     4237.269     1250.322        1.278        0.380      133.143       33.906        0.065      342.627       18.167      864.406
05/19/2013  19:27:00       98.791       49.757       10.916       49.946       36.456       30.336     2494.641     1329.056      920.302        0.855        0.237      110.614       23.051        0.043      342.629       18.171      864.409
05/19/2013  19:28:00       13.567      128.771      -11.055       51.648       61.673       32.525     2667.508     3803.498     1057.894        1.221        0.376      129.483       24.925        0.037      342.598       18.121      864.421
05/19/2013  19:29:00       87.057       86.351       16.782      109.870       74.240       49.718    12071.340     5511.572     2471.858        1.768        1.003      122.618       42.958        0.123      342.579       18.087      864.422
05/19/2013  19:30:00      235.440      124.008       41.174      120.493       91.891       63.309    14518.496     8443.929     4008.069        4.973        1.349      266.102       44.750        0.028      342.592       18.105      864.407
05/19/2013  19:31:00      266.486      172.231       40.151      126.159       90.625       76.152    15916.121     8212.937     5799.188        6.610        1.496      317.299       34.958        0.012      342.588       18.101      864.421
05/19/2013  19:32:00      144.945      117.944       12.295      105.281       69.434       63.178    11084.037     4821.099     3991.499        2.748        0.995      186.869       32.531        0.030      342.563       18.060      864.455
05/19/2013  19:33:00      207.522      155.528       23.094      102.793       83.564       73.565    10566.448     6982.929     5411.873        4.537        1.148      259.335       50.272        0.038      342.525       17.991      864.464
05/19/2013  19:34:00      170.109      124.849       23.378      141.769       94.151       92.621    20098.418     8864.501     8578.563        4.130        1.877      211.008       62.166        0.087      342.512       17.972      864.463
05/19/2013  19:35:00      199.536      149.948       29.211       86.922       67.359       67.573     7555.487     4537.214     4566.119        3.990        0.833      249.598       40.376        0.026      342.510       17.967      864.471
05/19/2013  19:36:00      119.108       46.828       13.527       84.192       49.669       37.302     7088.322     2467.056     1391.468        1.375        0.547      127.983       26.891        0.044      342.520       17.987      864.485
05/19/2013  19:37:00      113.275       56.904       13.758       69.680       41.301       44.051     4855.308     1705.807     1940.534        1.238        0.425      126.765       41.788        0.109      342.551       18.040      864.487
05/19/2013  19:38:00      183.371      114.297       25.517       65.073       55.670       52.573     4234.489     3099.101     2763.944        2.872        0.505      216.075       13.824        0.004      342.516       17.979      864.483
05/19/2013  19:39:00      117.303       72.792       15.086       86.431       57.989       36.331     7470.316     3362.696     1319.927        1.572        0.608      138.053       34.180        0.061      342.453       17.873      864.491
05/19/2013  19:40:00       97.306       62.062       13.928       71.395       49.429       54.005     5097.283     2443.207     2916.567        1.198        0.523      115.413       38.952        0.114      342.432       17.835      864.517
05/19/2013  19:41:00      214.946      176.521       22.821      130.412       93.174       70.176    17007.371     8681.472     4924.680        5.424        1.531      278.139       59.922        0.046      342.443       17.854      864.536
05/19/2013  19:42:00      156.974      215.985       -0.802      112.815      128.713       82.312    12727.248    16567.028     6775.206        5.367        1.803      267.003       79.897        0.090      342.406       17.791      864.563
05/19/2013  19:43:00      126.805      120.791        9.393      110.254       89.975       75.398    12155.932     8095.577     5684.812        2.834        1.297      175.129       48.045        0.075      342.412       17.803      864.566
05/19/2013  19:44:00       97.070      204.657      -10.925       85.380      121.870       68.965     7289.683    14852.386     4756.185        3.916        1.345      226.510       62.826        0.077      342.390       17.764      864.583
05/19/2013  19:45:00       70.491      117.806       -8.191       61.849       70.949       59.364     3825.275     5033.711     3524.093        1.565        0.619      137.285       48.852        0.127      342.378       17.744      864.603
05/19/2013  19:46:00      122.784      140.336        1.868      121.881       65.045       62.768    14854.951     4230.861     3939.789        2.889        1.151      186.467       40.853        0.048      342.367       17.725      864.616
05/19/2013  19:47:00      119.094       85.328        5.966       92.766       74.520       55.615     8605.528     5553.224     3093.048        1.937        0.863      146.507       41.901        0.082      342.338       17.676      864.628
05/19/2013  19:48:00      189.359      122.643       16.931      114.708       68.209       64.812    13157.959     4652.533     4200.553        3.659        1.101      225.606       29.977        0.018      342.316       17.639      864.648
05/19/2013  19:49:00      207.290      173.331       33.720      131.152      113.160       97.442    17200.736    12805.231     9495.040        5.682        1.975      270.209       70.940        0.069      342.317       17.639      864.655
05/19/2013  19:50:00      132.675      157.856       -3.114      101.662       92.451       84.436    10335.096     8547.230     7129.515        3.427        1.301      206.206       59.402        0.083      342.301       17.613      864.669
05/19/2013  19:51:00      145.648      170.032        8.360      112.833       97.236       76.130    12731.208     9454.819     5795.703        3.908        1.399      223.884       54.125        0.058      342.282       17.579      864.677
05/19/2013  19:52:00      151.323      259.813       -7.545      136.674      149.360       99.077    18679.888    22308.504     9816.223        7.062        2.540      300.668       95.306        0.100      342.275       17.569      864.679
05/19/2013  19:53:00       74.762      208.610       -8.199       90.634      142.482       78.856     8214.545    20301.167     6218.202        4.195        1.737      221.602       80.229        0.131      342.256       17.536      864.697
05/19/2013  19:54:00       52.619      113.102        2.649       73.073       67.511       49.079     5339.629     4557.718     2408.787        1.393        0.615      124.743       39.707        0.101      342.195       17.434      864.709
05/19/2013  19:55:00      125.810      182.559        6.122      107.730      111.738       69.149    11605.650    12485.333     4781.576        3.903        1.444      221.712       68.222        0.095      342.226       17.485      864.718
05/19/2013  19:56:00      125.313      136.449      -11.481      125.036       75.364       47.577    15634.116     5679.719     2263.525        2.901        1.179      185.261       37.218        0.040      342.210       17.459      864.711
05/19/2013  19:57:00       56.138      145.369       -5.539       68.592      103.275       68.359     4704.813    10665.705     4672.942        2.217        1.002      155.832       70.133        0.203      342.180       17.408      864.728
05/19/2013  19:58:00       60.706      194.342      -13.565       55.847      125.798       57.225     3118.919    15825.262     3274.665        3.192        1.111      203.603       66.328        0.106      342.165       17.381      864.735
05/19/2013  19:59:00      151.218      138.361       15.206       78.466       82.952       68.110     6156.931     6881.101     4639.017        2.996        0.884      204.965       53.925        0.069      342.180       17.407      864.749
05/19/2013  20:00:00      118.207      112.807        2.421       98.881       64.503       50.546     9777.472     4160.612     2554.919        2.160        0.825      163.396       38.742        0.056      342.173       17.397      864.748
05/19/2013  20:01:00      119.432      146.609       -4.827       88.649       97.334       67.764     7858.699     9473.959     4592.002        2.885        1.096      189.099       60.676        0.103      342.159       17.372      864.756
05/19/2013  20:02:00      107.295      137.753        4.568       95.341       87.922       64.115     9089.864     7730.320     4110.721        2.572        1.047      174.608       59.832        0.117      342.164       17.379      864.760
05/19/2013  20:03:00      126.793       82.984       10.044      105.452       60.059       52.193    11120.133     3607.138     2724.069        2.025        0.873      151.535       20.333        0.018      342.146       17.349      864.754
05/19/2013  20:04:00      135.640      134.828       17.793       97.562       79.136       58.750     9518.280     6262.511     3451.619        2.806        0.962      191.250       54.096        0.080      342.135       17.330      864.757
05/19/2013  20:05:00       84.304      105.470        8.109       70.099       77.085       50.154     4913.912     5942.024     2515.398        1.583        0.669      135.023       42.325        0.098      342.109       17.287      864.762
05/19/2013  20:06:00       77.903       89.906       17.027       85.657       72.424       53.660     7337.130     5245.166     2879.373        1.495        0.773      118.962       43.584        0.134      342.082       17.242      864.768
05/19/2013  20:07:00       56.013      141.777      -15.809       47.287       93.575       37.121     2236.043     8756.270     1377.951        1.793        0.619      152.441       44.810        0.086      342.062       17.208      864.777
05/19/2013  20:08:00      100.977      137.457       15.811       75.431      110.032       64.906     5689.801    12106.960     4212.726        2.567        1.100      170.560       69.918        0.168      342.092       17.257      864.776
05/19/2013  20:09:00       86.716      105.553        0.805       80.206       64.306       50.893     6432.971     4135.305     2590.050        1.591        0.658      136.606       43.036        0.099      342.084       17.245      864.785
05/19/2013  20:10:00      109.363      189.757        1.325       87.350      130.343       82.518     7630.065    16989.387     6809.155        3.969        1.571      219.016       80.305        0.134      342.107       17.282      864.784
05/19/2013  20:11:00      140.692       93.420       11.977      130.793       81.926       58.788    17106.825     6711.796     3456.057        2.796        1.364      168.883       37.034        0.048      342.093       17.260      864.794
05/19/2013  20:12:00      143.598       96.234        9.570      111.059       92.865       61.528    12334.125     8623.823     3785.647        2.735        1.237      172.862       34.426        0.040      342.090       17.253      864.796
05/19/2013  20:13:00       67.959       56.358       26.504       71.476       45.341       40.794     5108.859     2055.789     1664.182        0.866        0.441       88.287       27.357        0.096      341.974       17.059      864.798
05/19/2013  20:14:00       84.365       88.889       -1.895       58.718       69.159       34.651     3447.799     4782.960     1200.665        1.222        0.472      122.550       28.009        0.052      342.060       17.204      864.799
05/19/2013  20:15:00       61.581      143.879      -15.888       59.880       68.171       42.814     3585.674     4647.325     1832.998        1.740        0.503      156.504       31.810        0.041      341.965       17.044      864.805
05/19/2013  20:16:00      159.038      173.433       -4.152      115.207      108.896       61.106    13272.708    11858.348     3733.993        4.212        1.443      235.313       60.630        0.066      342.050       17.186      864.796
05/19/2013  20:17:00      182.118      153.305        1.793      114.221       84.755       66.401    13046.485     7183.402     4409.151        4.065        1.232      238.053       43.800        0.034      342.044       17.176      864.796
05/19/2013  20:18:00      135.954      130.495       12.749       88.586       68.717       61.907     7847.401     4722.045     3832.510        2.604        0.820      188.447       48.683        0.067      342.028       17.149      864.812
05/19/2013  20:19:00       76.012       81.251       11.715       85.926       60.785       50.978     7383.249     3694.773     2598.802        1.309        0.684      111.263       42.530        0.146      341.969       17.051      864.810
05/19/2013  20:20:00       43.906      102.249        0.720       64.810       56.665       39.552     4200.292     3210.876     1564.369        1.068        0.449      111.277       31.110        0.078      341.913       16.956      864.814
05/19/2013  20:21:00       99.153       94.184        6.391       61.598       44.974       38.270     3794.361     2022.661     1464.597        1.301        0.364      136.755       26.948        0.039      341.941       17.002      864.815
05/19/2013  20:22:00       50.272       71.307       15.294       66.838       64.579       47.449     4467.329     4170.421     2251.436        0.937        0.544       87.247       42.602        0.238      341.901       16.935      864.814
05/19/2013  20:23:00       75.143      101.204       -1.933       59.767       53.477       44.313     3572.089     2859.804     1963.635        1.214        0.420      126.050       34.866        0.077      341.908       16.947      864.818
05/19/2013  20:24:00       89.271       87.026       21.015       65.279       55.862       48.907     4261.284     3120.567     2391.915        1.288        0.489      124.671       41.076        0.109      341.930       16.984      864.828
05/19/2013  20:25:00       93.944       53.016       11.140       52.440       37.659       37.884     2749.955     1418.170     1435.198        0.868        0.280      107.871       25.270        0.055      341.881       16.901      864.831
05/19/2013  20:26:00       83.512       70.235       13.520       71.250       50.888       34.648     5076.625     2589.596     1200.471        1.048        0.443      109.121       33.176        0.092      341.858       16.864      864.843
05/19/2013  20:27:00       19.900       94.027      -11.686       47.008       65.472       37.026     2209.738     4286.541     1370.893        0.862        0.393       96.110       38.406        0.160      341.853       16.853      864.838
05/19/2013  20:28:00      103.210      110.942      -14.918       55.917       71.724       45.787     3126.676     5144.342     2096.445        1.677        0.518      151.527       43.078        0.081      341.863       16.870      864.841
05/19/2013  20:29:00      118.677       86.923        7.920       80.099       59.955       38.310     6415.881     3594.591     1467.679        1.659        0.574      147.105       33.148        0.051      341.870       16.882      864.837
05/19/2013  20:30:00       54.846      122.053      -16.794       55.273       84.355       44.184     3055.074     7115.683     1952.213        1.515        0.606      133.810       43.371        0.105      341.798       16.759      864.846
05/19/2013  20:31:00       66.132      153.792      -15.691       72.347       80.106       49.785     5234.094     6416.926     2478.528        2.120        0.706      167.408       45.342        0.073      341.821       16.797      864.844
05/19/2013  20:32:00       83.518      115.567        3.536       74.744      111.356       51.345     5586.639    12400.055     2636.335        2.048        1.031      142.587       57.090        0.160      341.780       16.729      864.847
05/19/2013  20:33:00       89.815      101.025       13.458       80.106       58.708       45.652     6417.026     3446.627     2084.101        1.520        0.597      135.177       35.181        0.068      341.779       16.728      864.854
05/19/2013  20:34:00       65.519      100.320       14.935       91.251       57.944       43.853     8326.740     3357.465     1923.046        1.409        0.680      119.819       43.782        0.134      341.745       16.670      864.862
05/19/2013  20:35:00      101.379      146.246      -14.244       76.162       76.069       42.301     5800.692     5786.528     1789.390        2.262        0.669      177.948       40.713        0.052      341.756       16.690      864.867
05/19/2013  20:36:00       99.894      121.015       11.321       88.814       70.236       59.207     7887.863     4933.148     3505.525        2.054        0.816      156.918       53.356        0.116      341.765       16.701      864.876
05/19/2013  20:37:00       64.543      110.736       -4.448       73.195       72.623       47.666     5357.553     5274.064     2272.024        1.467        0.645      128.173       42.812        0.112      341.713       16.616      864.885
05/19/2013  20:38:00       76.098       82.846        3.312       70.824       56.101       44.395     5016.080     3147.293     1970.886        1.140        0.507      112.492       35.840        0.102      341.710       16.612      864.885
05/19/2013  20:39:00       67.763       88.030        6.458       49.341       71.391       46.619     2434.524     5096.605     2173.289        1.104        0.485      111.090       48.302        0.189      341.700       16.593      864.878
05/19/2013  20:40:00       77.567       99.923       -4.136       91.978       39.852       35.491     8460.036     1588.172     1259.612        1.366        0.565      126.496       20.967        0.027      341.667       16.537      864.876
05/19/2013  20:41:00       59.292       89.757      -15.809       47.835       61.965       34.996     2288.153     3839.619     1224.739        0.959        0.368      107.573       37.998        0.125      341.641       16.495      864.872
05/19/2013  20:42:00       97.600       99.262        6.860       73.758       51.355       42.889     5440.197     2637.306     1839.480        1.467        0.496      139.207       38.808        0.078      341.640       16.491      864.859
05/19/2013  20:43:00       91.277       99.721        6.036       75.920       47.234       37.493     5763.839     2231.069     1405.745        1.385        0.470      135.187       21.255        0.025      341.609       16.438      864.852
05/19/2013  20:44:00       45.708       83.391      -10.204       34.306       35.609       26.616     1176.902     1268.018      708.388        0.615        0.158       95.096       22.904        0.058      341.608       16.439      864.867
05/19/2013  20:45:00       56.479       79.871        0.664       57.368       57.192       36.277     3291.099     3270.960     1316.006        0.872        0.394       97.823       29.703        0.092      341.567       16.369      864.887
05/19/2013  20:46:00       99.971       75.464       12.186       72.427       53.948       35.893     5245.641     2910.428     1288.324        1.264        0.472      125.256       34.869        0.077      341.597       16.419      864.889
05/19/2013  20:47:00       34.956       58.992        0.141       30.605       37.043       26.054      936.683     1372.181      678.789        0.384        0.149       68.571       24.420        0.127      341.525       16.297      864.903
05/19/2013  20:48:00       70.434       82.454       -8.868       34.762       47.506       31.889     1208.386     2256.784     1016.914        0.816        0.224      108.442       27.798        0.066      341.552       16.343      864.915
05/19/2013  20:49:00       51.773       77.397        5.477       49.852       55.145       39.271     2485.181     3040.962     1542.247        0.788        0.353       93.117       31.544        0.115      341.577       16.385      864.920
05/19/2013  20:50:00       63.078       50.426        4.294       33.608       27.924       25.119     1129.506      779.741      630.975        0.454        0.127       80.756       18.613        0.053      341.512       16.274      864.929
05/19/2013  20:51:00       77.660       54.002       13.078       37.553       24.768       20.673     1410.211      613.437      427.363        0.578        0.123       94.591       14.260        0.023      341.513       16.276      864.952
05/19/2013  20:52:00       88.342      107.240        6.160       69.699       78.163       52.428     4857.925     6109.430     2748.736        1.653        0.686      138.942       43.463        0.098      341.545       16.330      864.965
05/19/2013  20:53:00      106.437       79.767       18.989       59.654       53.904       58.405     3558.556     2905.682     3411.116        1.396        0.494      133.010       34.247        0.066      341.595       16.416      864.971
05/19/2013  20:54:00       62.056       65.163        8.632       47.138       34.736       32.658     2222.003     1206.610     1066.526        0.633        0.225       89.985       24.539        0.074      341.508       16.269      864.988
05/19/2013  20:55:00       94.397       83.217        8.515       58.427       58.210       45.322     3413.683     3388.385     2054.075        1.238        0.443      125.841       39.318        0.098      341.562       16.361      864.988
05/19/2013  20:56:00      172.064      128.359       15.568       97.979       59.461       43.678     9599.828     3535.620     1907.752        3.068        0.752      214.668       22.979        0.011      341.657       16.520      864.983
05/19/2013  20:57:00      114.676       80.674       23.507       51.225       44.097       41.855     2623.986     1944.534     1751.807        1.326        0.316      140.210       27.803        0.039      341.605       16.434      864.973
05/19/2013  20:58:00      142.257       83.885       22.545       41.053       36.205       38.048     1685.384     1310.779     1447.640        1.611        0.222      165.148       20.590        0.016      341.586       16.401      864.983
05/19/2013  20:59:00       55.456       56.252       12.508       52.625       29.282       37.156     2769.366      857.423     1380.568        0.570        0.250       78.991       19.059        0.058      341.491       16.239      864.997
05/19/2013  21:00:00       17.008       51.592        1.610       25.641       39.181       27.285      657.436     1535.165      744.484        0.294        0.147       54.323       26.754        0.243      341.436       16.148      865.019
05/19/2013  21:01:00       15.341      105.260      -18.063       21.408       61.460       21.927      458.320     3777.346      480.798        0.818        0.236      106.372       31.388        0.087      341.498       16.250      865.024
05/19/2013  21:02:00       42.316       58.689       -0.354       36.260       41.138       32.062     1314.784     1692.300     1027.956        0.463        0.202       72.353       31.741        0.192      341.428       16.133      865.038
05/19/2013  21:03:00       48.784       64.778       -2.369       36.013       41.970       37.275     1296.910     1761.517     1389.421        0.551        0.222       81.092       30.376        0.140      341.403       16.092      865.044
05/19/2013  21:04:00       19.139       83.949      -10.646       51.098       56.488       30.055     2611.006     3190.938      903.327        0.711        0.335       86.103       36.115        0.176      341.375       16.043      865.050
05/19/2013  21:05:00       25.924       82.632        3.189       31.907       66.100       27.622     1018.044     4369.235      762.958        0.683        0.308       86.603       32.118        0.138      341.321       15.952      865.051
05/19/2013  21:06:00       24.993       62.010        4.932       39.544       50.549       32.434     1563.707     2555.210     1051.965        0.483        0.259       66.857       27.129        0.165      341.311       15.937      865.063
05/19/2013  21:07:00        3.445       89.387       -3.459       39.150       72.291       34.687     1532.689     5225.956     1203.208        0.799        0.398       89.454       31.506        0.124      341.249       15.831      865.071
05/19/2013  21:08:00       37.539      121.389      -14.594       34.331       50.801       31.032     1178.592     2580.787      962.967        1.054        0.236      127.061       25.088        0.039      341.296       15.910      865.075
05/19/2013  21:09:00       55.838       63.264        7.940       70.679       48.166       34.678     4995.570     2319.980     1202.549        0.785        0.426       84.381       28.997        0.118      341.243       15.821      865.085
05/19/2013  21:10:00       26.709      119.884       -2.369       44.780       61.968       44.337     2005.243     3840.083     1965.792        1.145        0.391      122.823       39.762        0.105      341.272       15.869      865.087
05/19/2013  21:11:00        0.818       77.300        7.060       45.935       62.938       32.719     2110.067     3961.248     1070.563        0.658        0.357       77.304       35.400        0.210      341.224       15.790      865.093
05/19/2013  21:12:00       17.253      121.126      -12.295       47.651       46.613       32.963     2270.659     2172.748     1086.572        1.032        0.276      122.349       30.914        0.064      341.278       15.881      865.089
05/19/2013  21:13:00       20.204       68.410        1.992       43.173       51.118       33.878     1863.869     2613.009     1147.748        0.536        0.281       71.331       29.903        0.176      341.230       15.800      865.091
05/19/2013  21:14:00       28.124       94.778        0.882       55.456       60.621       34.800     3075.401     3674.867     1211.059        0.887        0.398       98.863       30.902        0.098      341.271       15.868      865.097
05/19/2013  21:15:00       29.919       89.482       -0.623       34.214       50.914       32.864     1170.593     2592.186     1080.038        0.687        0.242       94.351       29.236        0.096      341.315       15.941      865.104
05/19/2013  21:16:00       29.355      100.740      -18.661       32.508       36.993       24.298     1056.756     1368.450      590.405        0.719        0.151      104.930       11.965        0.013      341.278       15.881      865.103
05/19/2013  21:17:00       28.527       94.605      -10.291       35.626       44.975       28.686     1269.222     2022.747      822.859        0.699        0.206       98.812       26.275        0.071      341.255       15.842      865.122
05/19/2013  21:18:00       38.236       58.377        5.334       34.274       42.886       30.405     1174.677     1839.174      924.461        0.442        0.197       69.784       25.185        0.130      341.246       15.826      865.128
05/19/2013  21:19:00       23.226       85.124       -7.069       31.896       43.930       28.130     1017.357     1929.867      791.281        0.579        0.187       88.236       26.890        0.093      341.268       15.863      865.142
05/19/2013  21:20:00       34.351       77.762        8.680       35.699       44.789       39.279     1274.424     2006.067     1542.852        0.606        0.241       85.011       32.880        0.150      341.258       15.845      865.144
05/19/2013  21:21:00       30.390       93.423       -6.357       32.561       50.940       30.435     1060.216     2594.856      926.303        0.714        0.229       98.242       30.520        0.097      341.275       15.874      865.150
05/19/2013  21:22:00       33.360      112.285       -0.006       33.044       63.114       37.252     1091.919     3983.432     1387.710        1.009        0.323      117.136       43.325        0.137      341.264       15.856      865.154
05/19/2013  21:23:00       34.970       56.457       12.404       39.109       49.795       32.923     1529.492     2479.508     1083.935        0.483        0.255       66.410       34.514        0.270      341.231       15.801      865.168
05/19/2013  21:24:00       29.326       80.790       -1.331       29.372       52.854       32.334      862.696     2793.598     1045.463        0.604        0.235       85.948       35.106        0.167      341.218       15.776      865.164
05/19/2013  21:25:00       33.085       63.124       14.021       41.833       57.897       36.676     1750.032     3352.075     1345.117        0.586        0.322       71.269       34.660        0.237      341.216       15.775      865.183
05/19/2013  21:26:00       30.181       66.618        1.075       29.347       38.200       27.379      861.232     1459.221      749.611        0.421        0.154       73.136       25.499        0.122      341.187       15.726      865.186
05/19/2013  21:27:00       46.118       61.802       -2.127       37.013       37.261       32.040     1369.937     1388.396     1026.545        0.487        0.189       77.113       22.604        0.086      341.202       15.752      865.201
05/19/2013  21:28:00       37.970      101.887       -9.323       35.201       50.243       30.737     1239.078     2524.407      944.778        0.831        0.235      108.732       30.365        0.078      341.200       15.748      865.206
05/19/2013  21:29:00       44.771       74.591       -3.406       34.198       38.177       29.044     1169.525     1457.467      843.528        0.552        0.174       86.996       25.618        0.087      341.229       15.797      865.220
05/19/2013  21:30:00       28.413       60.935       -2.871       25.227       39.300       21.721      636.395     1544.506      471.809        0.359        0.133       67.233       22.912        0.116      341.181       15.715      865.225
05/19/2013  21:31:00       36.839       63.905       -3.995       33.494       50.598       27.505     1121.831     2560.194      756.509        0.495        0.222       73.763       26.640        0.130      341.221       15.781      865.224
05/19/2013  21:32:00       29.684       38.282       14.455       31.346       38.406       26.596      982.592     1475.012      707.338        0.286        0.158       48.443       22.739        0.220      341.167       15.691      865.238
05/19/2013  21:33:00       24.061       48.547        6.386       30.124       31.843       26.271      907.444     1013.993      690.153        0.279        0.131       54.183       17.080        0.099      341.132       15.631      865.231
05/19/2013  21:34:00       40.216       43.564       -7.545       32.240       30.128       15.067     1039.429      907.713      227.028        0.287        0.109       59.289       10.629        0.032      341.134       15.638      865.232
05/19/2013  21:35:00       45.382       55.421        0.486       29.755       24.605       23.116      885.337      605.426      534.370        0.358        0.101       71.631       18.167        0.064      341.189       15.729      865.236
05/19/2013  21:36:00       38.760       58.121       -7.772       20.853       32.015       16.767      434.828     1024.964      281.132        0.334        0.087       69.860       13.861        0.039      341.158       15.676      865.238
05/19/2013  21:37:00       51.405       38.693       10.736       28.060       27.734       18.575      787.343      769.155      345.038        0.308        0.095       64.340       13.665        0.045      341.173       15.703      865.258
05/19/2013  21:38:00       30.522       36.349       10.012       24.596       31.431       23.681      604.961      987.907      560.767        0.225        0.108       47.464       20.019        0.178      341.076       15.540      865.260
05/19/2013  21:39:00       28.409       32.399        4.389       22.580       22.352       21.649      509.871      499.601      468.688        0.168        0.074       43.090       18.888        0.192      341.064       15.518      865.270
05/19/2013  21:40:00       31.103       43.578        2.018       20.946       18.523       14.927      438.754      343.105      222.807        0.194        0.050       53.540       12.651        0.056      341.147       15.659      865.280
05/19/2013  21:41:00       26.283       40.860        1.354       19.258       18.864       15.071      370.858      355.855      227.126        0.166        0.048       48.583       14.683        0.091      341.131       15.631      865.283
05/19/2013  21:42:00       14.281       65.720       -0.909       17.760       27.082       20.172      315.402      733.425      406.910        0.299        0.073       67.254       17.814        0.070      341.238       15.812      865.289
05/19/2013  21:43:00        6.825       91.166      -10.314       23.169       22.298       11.849      536.803      497.214      140.396        0.482        0.059       91.421        9.577        0.011      341.296       15.910      865.289
05/19/2013  21:44:00      -14.440       82.797       -8.699       20.209       25.994       13.668      408.395      675.672      186.809        0.420        0.064       84.046       10.827        0.017      341.317       15.947      865.306
05/19/2013  21:45:00      -23.852       29.158       -7.019       15.393       28.090       12.491      236.931      789.044      156.030        0.132        0.059       37.671        7.372        0.038      341.307       15.931      865.308
05/19/2013  21:46:00      -40.065      -10.133       -3.314       14.993       11.098        8.162      224.796      123.165       66.624        0.107        0.021       41.327        7.316        0.031      341.323       15.954      865.318
05/19/2013  21:47:00      -58.543       -9.554       -9.227       15.492       12.759        8.576      240.007      162.796       73.555        0.204        0.024       59.318        7.615        0.016      341.218       15.778      865.333
05/19/2013  21:48:00      -64.424      -21.113       -6.582       19.779       15.349       10.850      391.224      235.582      117.716        0.269        0.037       67.795        7.864        0.013      341.090       15.562      865.342
05/19/2013  21:49:00      -83.162       -7.147      -17.512       13.034       15.737        8.596      169.882      247.647       73.889        0.388        0.025       83.468        2.699        0.001      340.860       15.172      865.362
05/19/2013  21:50:00      -88.398      -10.631      -15.210       22.902       13.929       11.621      524.503      194.026      135.054        0.451        0.043       89.035       12.149        0.019      340.772       15.025      865.378
05/19/2013  21:51:00      -88.533      -12.275       -7.946       14.592       16.260       12.209      212.934      264.384      149.060        0.434        0.031       89.380        6.384        0.005      340.742       14.973      865.380
05/19/2013  21:52:00      -90.841      -15.671      -15.112       12.117       11.992        7.926      146.829      143.820       62.825        0.454        0.018       92.183        3.686        0.002      340.621       14.769      865.395
05/19/2013  21:53:00      -90.523       -8.508      -13.395       22.506       17.381       15.084      506.511      302.100      227.520        0.474        0.052       90.922       12.021        0.017      340.510       14.579      865.399
05/19/2013  21:54:00      -74.413      -12.543      -11.741       21.729       14.151       12.005      472.129      200.238      144.130        0.332        0.041       75.463       12.192        0.026      340.504       14.570      865.400
05/19/2013  21:55:00      -88.665       -8.964      -13.588       24.085       12.932        9.610      580.111      167.232       92.345        0.448        0.042       89.117        5.162        0.003      340.489       14.544      865.407
05/19/2013  21:56:00      -62.474      -29.047       -3.384       18.188       17.864       11.855      330.789      319.110      140.544        0.277        0.040       68.897        9.798        0.020      340.487       14.542      865.410
05/19/2013  21:57:00      -49.159      -18.687       -7.258       12.520       15.228        8.430      156.744      231.891       71.067        0.164        0.023       52.591        6.116        0.014      340.480       14.528      865.409
05/19/2013  21:58:00      -63.896      -11.971      -11.336       22.383       13.135       10.514      500.979      172.534      110.548        0.257        0.039       65.008       12.032        0.034      340.463       14.500      865.408
05/19/2013  21:59:00      -52.886       -3.549       -9.259       16.126       13.429        9.326      260.052      180.331       86.966        0.171        0.026       53.005        7.894        0.022      340.498       14.560      865.422
05/19/2013  22:00:00      -53.294       -7.815      -11.936       28.045       12.691        9.204      786.539      161.062       84.715        0.204        0.052       53.864        5.949        0.012      340.401       14.397      865.422
05/19/2013  22:01:00      -48.721       -4.822       -5.937       40.798       17.042       12.665     1664.488      290.425      160.398        0.227        0.106       48.959       17.356        0.126      340.365       14.335      865.425
05/19/2013  22:02:00      -58.862      -18.825       -8.924       14.028       21.058        9.482      196.784      443.453       89.900        0.231        0.037       61.800        9.086        0.022      340.337       14.288      865.432
05/19/2013  22:03:00      -64.870      -14.751       -7.096       15.025       17.769       13.446      225.736      315.743      180.805        0.260        0.036       66.526        9.125        0.019      340.327       14.273      865.442
05/19/2013  22:04:00      -66.548      -20.269      -15.507       19.620       18.287       11.266      384.938      334.430      126.927        0.296        0.042       69.566        9.518        0.019      340.357       14.321      865.449
05/19/2013  22:05:00      -48.293      -25.113      -12.521       21.980       14.771       13.774      483.133      218.176      189.717        0.201        0.045       54.432        6.191        0.013      340.352       14.313      865.457
05/19/2013  22:06:00      -81.310      -13.621       -9.746       18.507       14.265       10.450      342.516      203.491      109.204        0.377        0.033       82.443        9.135        0.012      340.306       14.236      865.462
05/19/2013  22:07:00      -76.542      -30.270       -8.436       19.987       19.040       10.153      399.498      362.532      103.082        0.386        0.043       82.310        6.312        0.006      340.223       14.094      865.489
05/19/2013  22:08:00      -87.083      -32.877      -15.598       16.649       15.670        8.992      277.201      245.559       80.850        0.476        0.030       93.082        4.822        0.003      340.166       14.000      865.498
05/19/2013  22:09:00      -90.036      -29.644       -7.749       25.256       19.711       15.126      637.857      388.520      228.791        0.515        0.063       94.791       11.847        0.016      340.159       13.985      865.501
05/19/2013  22:10:00      -84.334      -14.846      -10.431       18.101       15.976       13.885      327.646      255.219      192.791        0.411        0.039       85.631       11.647        0.018      340.234       14.112      865.516
05/19/2013  22:11:00     -109.914       -6.047       -9.861       23.836       23.855       13.171      568.137      569.040      173.465        0.676        0.066      110.081       13.527        0.015      340.131       13.939      865.527
05/19/2013  22:12:00       -3.845        3.939        4.720       24.831       21.217       15.627      616.599      450.173      244.198        0.068        0.066        5.505        8.693        2.494      340.049       13.802      865.539
05/19/2013  22:13:00      -22.731       -7.499        3.643       30.256       23.976       21.511      915.395      574.854      462.738        0.127        0.098       23.936       16.691        0.486      340.020       13.753      865.555
05/19/2013  22:14:00      -47.749      -18.136       -6.012       34.785       19.386       13.860     1209.993      375.813      192.093        0.221        0.089       51.077       11.371        0.050      340.127       13.931      865.555
05/19/2013  22:15:00       -4.422      -10.423        3.099       15.557       21.045       16.266      242.021      442.903      264.567        0.054        0.047       11.323       10.643        0.884      340.229       14.106      865.566
05/19/2013  22:16:00      -37.345      -13.484       -4.452       23.251       16.170       21.312      540.600      261.466      454.219        0.143        0.063       39.704       17.376        0.192      340.321       14.261      865.576
05/19/2013  22:17:00      -70.236      -13.789      -15.187       17.752       19.661       13.665      315.140      386.543      186.729        0.312        0.044       71.576       10.806        0.023      340.418       14.425      865.576
05/19/2013  22:18:00      -85.338       36.144      -17.465       31.596       42.199       23.713      998.337     1780.791      562.310        0.612        0.167       92.677       19.541        0.044      340.614       14.756      865.590
05/19/2013  22:19:00      -85.833       65.901      -21.079       35.248       40.543       23.887     1242.455     1643.744      570.611        0.780        0.173      108.214       17.407        0.026      340.654       14.822      865.598
05/19/2013  22:20:00      -54.546      113.035      -14.348       42.203       50.668       29.404     1781.098     2567.203      864.608        1.058        0.261      125.508        9.826        0.006      340.656       14.827      865.614
05/19/2013  22:21:00      -46.541       67.438      -13.590       45.603       51.448       26.323     2079.677     2646.906      692.894        0.616        0.271       81.939       24.913        0.092      340.676       14.861      865.645
05/19/2013  22:22:00      -54.457      158.675      -21.139       51.079       59.477       33.486     2609.018     3537.554     1121.321        1.793        0.363      167.759       28.902        0.030      340.746       14.978      865.653
05/19/2013  22:23:00      -35.956      275.330      -31.913       45.445       87.824       36.105     2065.290     7713.065     1303.545        4.460        0.554      277.667       44.934        0.026      340.747       14.977      865.685
05/19/2013  22:24:00      -53.825      270.653      -30.284       68.826       71.959       43.268     4736.961     5178.092     1872.137        4.442        0.589      275.953       40.278        0.021      340.720       14.932      865.715
05/19/2013  22:25:00      -31.432      255.629      -24.781       57.589       77.843       43.063     3316.441     6059.577     1854.396        3.909        0.562      257.554       44.246        0.030      340.697       14.893      865.729
05/19/2013  22:26:00      -76.328      307.662      -32.957       51.346       76.295       43.284     2636.426     5820.999     1873.505        5.595        0.517      316.989       36.039        0.013      340.754       14.989      865.745
05/19/2013  22:27:00      -92.455      223.041      -28.931       73.657       98.550       50.653     5425.365     9712.156     2565.769        3.841        0.885      241.443       58.140        0.058      340.742       14.970      865.745
05/19/2013  22:28:00      -43.402      268.897      -28.029       55.407       78.398       36.156     3069.944     6146.171     1307.292        4.275        0.526      272.377       29.213        0.012      340.710       14.914      865.733
05/19/2013  22:29:00      -47.713      263.046      -30.889       39.304       89.068       30.890     1544.830     7933.099      954.219        4.143        0.522      267.338       30.177        0.013      340.682       14.869      865.743
05/19/2013  22:30:00      -25.025      281.935      -31.972       64.272       99.789       46.464     4130.954     9957.834     2158.862        4.869        0.812      283.043       50.120        0.031      340.661       14.833      865.747
05/19/2013  22:31:00      -48.323      260.337      -28.916       55.567      106.672       41.088     3087.735    11379.008     1688.222        4.355        0.808      264.783       42.968        0.026      340.633       14.785      865.771
05/19/2013  22:32:00      -38.569      281.683      -39.671       62.165       85.640       33.482     3864.525     7334.188     1121.050        4.736        0.616      284.312       35.823        0.016      340.724       14.938      865.778
05/19/2013  22:33:00      -40.613      267.741      -25.378       74.453       82.551       43.741     5543.215     6814.719     1913.252        4.412        0.714      270.803       43.852        0.026      340.761       15.001      865.778
05/19/2013  22:34:00       -9.737      230.447      -33.084       48.391       66.471       25.418     2341.687     4418.330      646.094        3.085        0.370      230.653       27.235        0.014      340.793       15.056      865.793
05/19/2013  22:35:00      -29.587      237.907      -24.218       61.970       65.515       37.878     3840.318     4292.209     1434.707        3.381        0.478      239.739       28.210        0.014      340.791       15.053      865.798
05/19/2013  22:36:00       -8.674      223.857      -25.988       50.884       83.563       40.006     2589.201     6982.757     1600.451        3.102        0.559      224.025       40.520        0.033      340.742       14.971      865.799
05/19/2013  22:37:00      -26.946      193.427      -26.804       49.275       60.043       33.122     2428.042     3605.186     1097.048        2.299        0.357      195.295       35.063        0.032      340.719       14.932      865.810
05/19/2013  22:38:00       13.198      252.200      -37.415       56.483       64.100       38.676     3190.354     4108.812     1495.862        3.699        0.440      252.545       33.729        0.018      340.705       14.907      865.826
05/19/2013  22:39:00        4.062      173.584      -26.470       44.047       64.563       41.345     1940.123     4168.422     1709.393        1.933        0.391      173.631       41.649        0.058      340.600       14.731      865.838
05/19/2013  22:40:00      -29.276      194.158      -25.575       59.004      104.751       36.060     3481.527    10972.705     1300.332        2.748        0.788      196.352       42.287        0.046      340.606       14.742      865.857
05/19/2013  22:41:00       -7.219      183.143      -28.529       39.687       56.784       31.177     1575.052     3224.442      972.035        2.009        0.289      183.286       31.612        0.030      340.585       14.707      865.880
05/19/2013  22:42:00      -18.198      191.616      -21.443       76.207       80.975       34.763     5807.479     6556.969     1208.480        2.554        0.679      192.478       36.139        0.035      340.572       14.683      865.889
05/19/2013  22:43:00      -34.290      241.481      -32.299       44.899       44.283       24.194     2015.944     1960.971      585.353        3.255        0.228      243.904       14.251        0.003      340.600       14.728      865.884
05/19/2013  22:44:00      -11.875      183.046      -20.854       43.889       50.312       29.536     1926.210     2531.341      872.384        1.970        0.266      183.431       26.663        0.021      340.537       14.626      865.892
05/19/2013  22:45:00      -51.352      171.492      -19.635       29.073       51.962       27.009      845.242     2700.082      729.507        1.835        0.214      179.016       26.305        0.022      340.563       14.669      865.887
05/19/2013  22:46:00      -50.961      200.574      -18.693       50.971       85.953       33.067     2598.007     7387.956     1093.446        2.713        0.554      206.947       36.639        0.031      340.573       14.685      865.890
05/19/2013  22:47:00      -52.871      216.396      -28.428       40.622       70.140       29.887     1650.182     4919.579      893.215        2.895        0.373      222.761       22.497        0.010      340.626       14.773      865.887
05/19/2013  22:48:00      -46.573      169.072      -16.260       45.725       52.254       32.253     2090.783     2730.514     1040.240        1.844        0.293      175.369       24.280        0.019      340.558       14.660      865.881
05/19/2013  22:49:00      -41.089      223.123      -23.354       56.724       62.098       28.070     3217.659     3856.180      787.925        2.994        0.393      226.875       30.326        0.018      340.577       14.689      865.884
05/19/2013  22:50:00      -58.347      154.728      -21.163       45.098       45.721       33.630     2033.844     2090.393     1130.950        1.652        0.263      165.364       26.529        0.026      340.558       14.661      865.871
05/19/2013  22:51:00      -59.451      205.318      -22.976       63.138       73.460       36.916     3986.366     5396.347     1362.814        2.848        0.537      213.752       31.839        0.022      340.618       14.762      865.874
05/19/2013  22:52:00      -61.145      169.739      -24.679       44.694      100.933       30.964     1997.591    10187.446      958.785        2.315        0.657      180.416       40.482        0.050      340.608       14.743      865.882
05/19/2013  22:53:00      -49.365      233.427      -21.781       59.513      124.759       35.098     3541.748    15564.855     1231.896        3.886        1.017      238.590       43.300        0.033      340.651       14.817      865.878
05/19/2013  22:54:00      -25.094      191.508      -23.036       39.110       55.283       24.157     1529.577     3056.214      583.582        2.150        0.258      193.145       22.448        0.014      340.591       14.715      865.879
05/19/2013  22:55:00      -14.086      163.788      -20.166       35.344       60.185       24.017     1249.217     3622.259      576.810        1.644        0.272      164.393       23.160        0.020      340.526       14.606      865.883
05/19/2013  22:56:00       -4.084      164.595      -10.980       70.556       70.482       35.393     4978.108     4967.644     1252.655        1.921        0.560      164.646       35.755        0.047      340.472       14.516      865.895
05/19/2013  22:57:00       19.706      193.111      -26.757       39.846       58.297       33.888     1587.675     3398.505     1148.402        2.226        0.307      194.114       37.783        0.038      340.523       14.603      865.902
05/19/2013  22:58:00      -15.423      190.206      -27.126       40.188       46.884       27.654     1615.106     2198.083      764.744        2.086        0.229      190.831       26.397        0.019      340.521       14.597      865.931
05/19/2013  22:59:00       -8.463      153.230      -21.533       25.776       28.358       23.007      664.427      804.188      529.309        1.301        0.100      153.463       16.177        0.011      340.511       14.582      865.935
05/19/2013  23:00:00        4.339       87.861       -8.890       31.500       24.212       21.275      992.251      586.209      452.633        0.492        0.102       87.968       17.503        0.040      340.460       14.496      865.948
05/19/2013  23:01:00       14.086       80.802        1.740       38.125       59.067       33.046     1453.528     3488.951     1092.052        0.638        0.302       82.021       33.675        0.169      340.370       14.343      865.956
05/19/2013  23:02:00       23.146      105.210       -6.792       30.336       56.996       32.424      920.302     3248.531     1051.296        0.843        0.261      107.726       32.478        0.091      340.447       14.472      865.951
05/19/2013  23:03:00       93.740       56.671        4.873       28.220       28.893       19.927      796.393      834.802      397.103        0.702        0.101      109.539       13.088        0.014      340.492       14.547      865.956
05/19/2013  23:04:00       70.431       52.950        9.789       33.425       23.769       19.182     1117.198      564.957      367.950        0.495        0.103       88.115       12.453        0.020      340.405       14.403      865.955
05/19/2013  23:05:00       98.630       56.245        0.771       71.486       35.515       41.166     5110.315     1261.332     1694.630        1.048        0.403      113.541       26.529        0.055      340.498       14.558      865.953
05/19/2013  23:06:00       23.375       34.384       28.362       32.300       34.272       25.134     1043.269     1174.580      631.700        0.269        0.142       41.577       14.298        0.118      340.408       14.410      865.944
05/19/2013  23:07:00       84.357       60.733       22.761       48.975       33.542       29.420     2398.556     1125.079      865.565        0.786        0.219      103.945       13.979        0.018      340.451       14.482      865.958
05/19/2013  23:08:00       80.406       51.260       21.295       30.465       31.229       26.852      928.087      975.277      721.026        0.608        0.131       95.355       15.768        0.027      340.427       14.439      865.971
05/19/2013  23:09:00       63.004       41.885       22.135       16.894       24.925       18.723      285.391      621.277      350.535        0.374        0.063       75.656        6.307        0.007      340.370       14.345      865.976
05/19/2013  23:10:00       94.711       37.738       14.658       31.229       32.205       21.342      975.253     1037.160      455.484        0.654        0.123      101.953       13.683        0.018      340.416       14.421      865.978
05/19/2013  23:11:00       42.222       -0.294       14.628       37.918       36.647       27.077     1437.777     1343.037      733.170        0.275        0.176       42.223       26.279        0.387      340.370       14.343      865.980
05/19/2013  23:12:00       28.889       33.867       46.456       39.628       35.077       23.561     1570.340     1230.389      555.115        0.375        0.168       44.515       20.533        0.213      340.311       14.243      865.959
05/19/2013  23:13:00      100.188       33.988       20.218       64.429       46.016       46.007     4151.139     2117.500     2116.638        0.999        0.419      105.796       35.883        0.115      340.488       14.542      865.954
05/19/2013  23:14:00       73.676       50.234       18.180       39.029       33.537       30.019     1523.228     1124.716      901.153        0.591        0.177       89.172       25.994        0.085      340.444       14.470      865.965
05/19/2013  23:15:00      105.509       37.639        2.787       52.015       33.539       33.143     2705.523     1124.867     1098.475        0.874        0.246      112.022       28.102        0.063      340.451       14.480      865.971
05/19/2013  23:16:00       48.947       41.726       40.546       27.382       23.139       21.146      749.787      535.421      447.160        0.376        0.087       64.318       12.160        0.036      340.358       14.325      865.974
05/19/2013  23:17:00       41.186       56.919       56.355       29.422       28.638       18.914      865.631      820.159      357.756        0.508        0.102       70.257       12.270        0.030      340.436       14.455      865.985
05/19/2013  23:18:00       69.071       59.909       36.487       57.698       32.366       39.710     3329.005     1047.580     1576.886        0.782        0.298       91.433       39.748        0.189      340.400       14.395      866.009
05/19/2013  23:19:00      112.689       63.668       10.318       45.584       45.270       31.208     2077.923     2049.341      973.910        1.098        0.255      129.431       23.186        0.032      340.323       14.263      866.041
05/19/2013  23:20:00      144.177      108.648       29.745       36.077       42.914       37.880     1301.558     1841.600     1434.892        1.903        0.229      180.531       19.101        0.011      340.371       14.344      866.055
05/19/2013  23:21:00      159.907      105.132       33.233       57.206       45.379       45.484     3272.529     2059.288     2068.798        2.256        0.370      191.371       30.118        0.025      340.268       14.169      866.081
05/19/2013  23:22:00      140.100      103.804       24.385       62.302       60.270       40.510     3881.586     3632.480     1641.056        2.007        0.458      174.365       34.361        0.039      340.273       14.177      866.100
05/19/2013  23:23:00       89.902       66.375       15.216       57.859       45.055       40.146     3347.714     2029.944     1611.696        0.985        0.349      111.750       29.390        0.069      340.182       14.026      866.109
05/19/2013  23:24:00      151.445      104.591       23.663       63.071       41.776       38.995     3977.991     1745.271     1520.618        2.084        0.362      184.051       21.531        0.014      340.240       14.122      866.112
05/19/2013  23:25:00       66.817       79.435       12.436       48.490       54.514       42.562     2351.288     2971.776     1811.487        0.903        0.357      103.800       32.699        0.099      340.193       14.044      866.128
05/19/2013  23:26:00       62.671       87.946       -4.719       51.371       53.658       39.276     2638.931     2879.157     1542.626        0.937        0.353      107.991       30.418        0.079      340.148       13.967      866.139
05/19/2013  23:27:00       73.759       82.160        1.556       56.749       57.210       47.252     3220.484     3272.967     2232.749        1.046        0.436      110.412       40.820        0.137      340.126       13.930      866.145
05/19/2013  23:28:00       45.631      116.373       -6.244       51.512       78.915       42.777     2653.505     6227.608     1829.902        1.319        0.536      125.000       41.979        0.113      340.165       13.995      866.150
05/19/2013  23:29:00       29.324      127.141       -3.238       46.280       79.738       43.934     2141.835     6358.134     1930.175        1.373        0.522      130.479       45.910        0.124      340.165       13.996      866.155
05/19/2013  23:30:00       48.521       99.648        4.478       53.427       90.269       53.023     2854.445     8148.469     2811.410        1.306        0.691      110.833       57.688        0.271      340.198       14.050      866.154
05/19/2013  23:31:00       55.617      145.704       -2.510       67.015       90.750       45.788     4491.045     8235.584     2096.529        1.957        0.741      155.958       47.238        0.092      340.268       14.168      866.149
05/19/2013  23:32:00       33.272      200.880      -25.693       54.016       67.065       41.855     2917.719     4497.737     1751.815        2.564        0.458      203.617       36.305        0.032      340.228       14.101      866.154
05/19/2013  23:33:00       20.740      194.266      -19.796       42.656       60.314       36.753     1819.555     3637.754     1350.751        2.268        0.340      195.370       24.776        0.016      340.176       14.014      866.141
05/19/2013  23:34:00       35.636      240.797      -27.625       50.648       52.661       35.323     2565.263     2773.179     1247.721        3.330        0.329      243.419       35.221        0.021      340.175       14.011      866.125
05/19/2013  23:35:00       46.426      175.981       15.268       78.146      119.884       68.093     6106.737    14372.260     4636.632        2.923        1.256      182.002       65.810        0.131      340.247       14.134      866.116
05/19/2013  23:36:00       21.349      195.868      -10.388       49.490       94.888       51.274     2449.305     9003.776     2629.062        2.650        0.704      197.028       56.318        0.082      340.232       14.107      866.110
05/19/2013  23:37:00       29.288      257.857      -19.475       62.445      107.618       52.236     3899.327    11581.719     2728.641        4.296        0.910      259.515       56.991        0.048      340.221       14.091      866.106
05/19/2013  23:38:00       22.781      236.491      -22.890       57.288       98.114       48.009     3281.916     9626.446     2304.890        3.609        0.761      237.586       50.564        0.045      340.182       14.022      866.112
05/19/2013  23:39:00       25.668      208.764      -23.548       46.699       78.929       36.973     2180.766     6229.780     1366.979        2.728        0.489      210.336       35.796        0.029      340.204       14.061      866.112
05/19/2013  23:40:00        6.167      275.732      -28.809       50.202       60.273       38.963     2520.264     3632.870     1518.124        4.228        0.384      275.801       34.509        0.016      340.206       14.062      866.101
05/19/2013  23:41:00        4.423      240.683      -29.348       40.277       53.899       31.351     1622.276     2905.098      982.896        3.216        0.276      240.724       29.712        0.015      340.194       14.041      866.096
05/19/2013  23:42:00      -12.270      241.549      -30.640       58.983       83.149       32.970     3479.050     6913.782     1087.000        3.546        0.574      241.860       39.866        0.027      340.223       14.091      866.105
05/19/2013  23:43:00        2.264      210.574      -23.472       49.047       60.871       41.255     2405.565     3705.311     1701.995        2.635        0.391      210.586       39.841        0.036      340.147       13.964      866.116
05/19/2013  23:44:00      -14.836      243.736      -26.972       43.511       63.502       33.623     1893.198     4032.507     1130.518        3.370        0.353      244.187       33.161        0.018      340.208       14.065      866.119
05/19/2013  23:45:00      -49.524      229.596      -31.467       38.055       47.607       21.721     1448.201     2266.442      471.786        3.017        0.209      234.877       15.559        0.004      340.185       14.027      866.130
05/19/2013  23:46:00      -47.374      232.186      -26.515       39.718       51.088       24.597     1577.555     2610.018      605.027        3.082        0.240      236.970       24.768        0.011      340.119       13.917      866.141
05/19/2013  23:47:00      -28.972      199.333      -23.275       44.880       84.861       33.790     2014.246     7201.374     1141.734        2.573        0.518      201.427       40.991        0.041      340.101       13.888      866.150
05/19/2013  23:48:00      -37.438      217.595      -21.753       53.137       51.894       33.728     2823.530     2693.008     1137.601        2.794        0.333      220.792       26.531        0.014      340.133       13.941      866.166
05/19/2013  23:49:00      -18.351      223.193      -26.000       51.373       70.678       36.857     2639.207     4995.441     1358.462        2.991        0.450      223.946       37.550        0.028      340.124       13.925      866.185
05/19/2013  23:50:00      -46.458      232.780      -24.489       58.415       57.673       38.752     3412.304     3326.153     1501.728        3.259        0.412      237.371       30.738        0.017      340.154       13.975      866.197
05/19/2013  23:51:00      -25.467      330.404      -33.250       53.949       94.737       37.342     2910.543     8975.048     1394.462        6.210        0.664      331.384       39.484        0.014      340.183       14.023      866.190
05/19/2013  23:52:00       -8.169      223.066      -23.533       41.045       59.074       24.617     1684.725     3489.773      605.993        2.808        0.289      223.215       22.815        0.010      340.085       13.861      866.201
05/19/2013  23:53:00      -38.613      212.610      -23.003       48.503       48.937       22.649     2352.520     2394.801      512.991        2.624        0.263      216.088       17.232        0.006      340.092       13.872      866.207
05/19/2013  23:54:00      -36.881      193.167      -17.286       46.307       69.008       24.558     2144.384     4762.113      603.080        2.324        0.375      196.656       27.652        0.020      340.068       13.830      866.210
05/19/2013  23:55:00      -65.019      186.379      -23.418       38.855       43.104       24.033     1509.699     1857.979      577.587        2.173        0.197      197.395       20.509        0.011      340.120       13.918      866.216
05/19/2013  23:56:00      -49.447      148.824      -21.868       34.721       67.515       27.634     1205.526     4558.308      763.627        1.580        0.326      156.823       24.670        0.025      340.161       13.988      866.219
05/19/2013  23:57:00      -49.138      179.490      -20.054       38.192       51.905       25.080     1458.600     2694.089      629.030        1.991        0.239      186.095       25.765        0.019      340.168       14.000      866.229
05/19/2013  23:58:00      -51.737      116.907      -21.394       47.182       54.938       27.480     2226.160     3018.195      755.178        1.140        0.300      127.844       19.867        0.024      340.205       14.066      866.221
05/19/2013  23:59:00      -46.411      188.717      -20.466       47.871       60.173       24.480     2291.596     3620.814      599.293        2.235        0.326      194.340       22.122        0.013      340.157       13.981      866.221
